GFSSE_700_rhum_000.txt.gz
RH
34 33 30 31 29 29 28 30 33 35 35 27 12 7 6 3 3 3 3 4 4 5 6 6 7 8 9 9 8 8 8 7 8 8 9 10 11 10 9 10 12 12 12
32 32 32 33 31 29 27 27 30 32 32 34 35 25 9 7 6 3 3 4 5 6 7 7 7 8 9 9 9 9 10 10 9 9 10 12 12 11 10 10 11 12 12
36 33 34 34 32 30 28 27 26 25 26 28 31 35 34 14 7 7 5 5 6 7 7 7 7 7 8 9 10 10 10 9 9 10 11 11 11 10 10 10 10 11 12
36 37 37 36 32 31 30 30 26 22 21 21 22 27 32 33 20 7 7 8 8 9 9 9 10 10 10 9 9 9 8 8 9 9 9 9 8 8 8 9 10 11 12
41 40 40 37 36 34 32 32 29 24 21 19 18 17 22 30 31 27 13 7 7 8 8 8 8 8 8 8 8 8 7 7 8 8 8 8 9 10 10 10 11 11 12
42 41 41 40 40 37 34 33 31 26 25 22 16 13 11 18 28 29 26 20 14 10 8 8 8 8 8 8 9 9 9 10 10 11 13 14 15 14 14 13 13 12 12
43 42 42 41 41 38 35 33 31 28 28 26 20 17 14 10 17 26 27 25 22 20 18 17 16 15 14 14 14 14 15 16 17 18 19 18 18 18 17 17 17 16 15
42 42 42 42 42 39 36 33 32 30 31 30 25 19 18 13 10 15 24 23 22 21 19 20 21 21 22 24 25 26 26 25 24 22 23 24 24 25 25 23 22 21 19
42 42 42 42 42 41 37 34 34 32 32 32 29 22 22 21 17 15 16 16 16 18 19 21 22 22 22 24 25 26 26 26 26 26 26 27 25 24 25 26 26 27 27
42 42 42 42 42 42 39 37 37 35 33 32 31 29 23 26 25 25 26 27 29 30 31 34 34 33 31 30 28 26 25 25 25 25 25 24 23 22 21 22 22 22 27
46 43 42 42 42 42 40 40 40 38 37 34 32 32 30 24 27 26 28 30 30 32 33 35 36 30 28 27 25 24 23 21 20 20 20 21 21 21 21 21 20 23 76
44 41 41 42 42 42 42 41 43 41 38 36 34 33 34 32 26 27 29 29 30 30 32 32 30 29 24 23 22 22 23 24 24 25 26 28 29 29 28 28 28 28 28
48 45 42 41 41 41 43 42 44 43 40 37 35 35 37 36 34 26 30 30 31 31 31 31 29 28 27 29 29 28 29 30 30 29 29 28 29 29 27 25 26 28 29
47 46 44 42 42 43 44 43 45 44 41 38 36 36 38 39 37 36 33 32 32 32 32 31 30 31 31 28 30 32 31 24 15 8 6 6 6 5 5 5 5 6 9
46 46 44 43 43 44 44 44 44 45 43 40 38 38 40 41 40 42 39 35 34 33 32 32 32 30 29 32 27 14 5 2 2 4 6 6 6 6 6 6 6 5 6
46 46 46 46 44 43 43 44 44 45 44 42 39 40 42 43 41 44 43 37 34 33 34 32 28 33 32 20 8 2 3 6 7 7 7 7 6 6 6 6 6 6 6
48 51 51 52 50 49 44 43 44 45 46 42 41 42 44 45 43 43 43 38 35 34 32 29 37 32 21 6 2 8 8 8 8 8 7 7 6 6 6 6 6 6 6
43 44 58 55 53 49 43 43 53 55 53 44 42 45 46 44 43 44 41 38 35 31 36 40 34 23 6 3 9 9 9 9 8 8 8 7 7 7 8 8 8 8 8
40 45 52 48 44 43 43 41 46 53 50 38 44 46 39 39 43 47 41 34 32 43 41 37 25 5 4 9 10 10 10 9 9 10 9 8 9 9 9 9 9 8 8
45 52 53 51 43 38 36 39 40 44 39 40 48 41 35 42 42 38 34 36 45 44 37 26 7 6 8 10 10 11 12 12 12 11 11 10 10 10 10 9 9 9 9
44 55 48 45 43 39 37 34 37 35 38 52 43 36 39 43 38 33 45 48 45 37 22 8 6 8 9 11 13 14 14 15 15 14 13 12 12 12 11 11 10 10 10
52 50 45 45 47 42 41 37 40 41 52 45 36 40 43 38 38 49 48 42 32 18 10 7 7 9 12 17 19 19 18 16 16 15 15 14 14 14 14 13 12 12 12
48 46 45 45 44 44 40 42 46 52 47 34 38 41 36 46 49 46 38 28 21 14 9 7 9 14 18 20 21 20 19 18 18 17 17 17 16 16 14 13 12 12 11
47 50 49 49 42 40 39 46 52 46 34 37 37 39 47 49 44 38 31 27 22 15 10 10 13 17 21 22 23 22 22 21 20 18 17 18 17 15 13 11 10 9 8
51 51 52 44 44 38 48 49 40 32 35 34 40 47 50 47 44 47 51 48 36 24 16 13 15 19 23 25 25 23 22 20 18 18 19 16 14 12 9 7 6 5 5
51 52 52 44 48 48 44 35 33 35 34 41 48 49 50 52 53 54 54 52 48 36 24 15 13 19 24 26 24 22 21 20 18 15 14 13 10 7 6 6 6 6 6

GFSSE_700_rhum_003.txt.gz
RH
34 33 31 31 31 29 26 26 28 31 33 34 28 11 8 5 3 3 4 4 4 4 6 6 7 8 9 9 8 8 8 8 8 8 9 9 11 12 11 9 10 11 11
34 34 35 32 32 29 26 25 24 24 27 29 32 33 16 8 6 3 3 4 5 6 7 7 8 8 9 10 9 9 9 10 10 10 10 11 12 13 12 10 9 10 11
37 36 35 34 32 29 28 27 23 21 21 21 25 30 34 20 7 7 4 5 6 7 7 7 7 7 8 9 10 10 11 12 11 10 11 12 12 12 10 9 9 9 10
37 37 37 36 34 31 29 29 26 23 20 18 18 21 29 33 23 7 7 8 8 9 9 10 10 10 11 11 10 10 10 10 9 9 9 9 9 8 8 7 8 8 9
41 40 39 38 36 35 32 30 28 27 27 22 15 13 17 29 31 24 10 7 8 8 8 8 8 8 8 8 8 8 8 8 8 7 8 8 8 9 10 11 11 11 11
49 44 40 40 39 37 33 30 29 29 30 27 20 15 11 14 30 30 26 20 13 10 9 8 8 8 8 8 9 9 9 9 10 10 11 13 14 15 15 15 15 14 13
46 43 42 41 40 38 34 31 30 30 31 29 24 18 15 9 14 28 30 26 23 22 21 21 20 20 19 19 19 19 19 21 20 20 20 20 20 20 19 18 18 17 16
43 43 42 42 41 39 35 32 32 31 30 29 27 23 20 17 12 16 31 25 23 23 20 19 20 21 20 21 22 23 22 23 22 23 22 22 21 22 23 24 24 24 24
43 44 43 42 42 41 37 35 34 33 32 30 29 28 24 22 21 19 19 19 20 23 26 27 29 30 29 30 29 27 26 23 23 23 22 22 21 21 22 22 21 20 21
41 43 43 42 42 42 39 37 38 36 36 35 32 30 30 26 24 25 26 28 30 32 34 37 42 40 36 30 28 26 25 23 21 20 18 18 17 17 18 18 18 17 29
46 44 43 43 42 42 41 39 40 41 39 37 34 32 33 34 29 26 29 29 30 31 34 36 37 34 31 29 24 21 20 19 20 21 22 22 22 23 24 24 24 24 23
43 42 42 42 42 43 41 40 41 44 42 39 36 34 34 36 36 33 30 31 31 29 31 32 32 30 28 25 26 27 27 27 27 28 28 28 28 29 29 29 28 26 24
48 41 41 41 42 42 41 42 42 44 44 41 39 37 36 37 39 38 36 32 31 30 31 31 30 31 31 32 32 31 31 33 33 30 24 16 11 12 14 12 8 8 7
47 45 42 40 41 41 41 42 43 44 45 44 42 40 40 40 40 39 39 35 33 31 31 31 32 33 35 30 33 33 27 17 7 2 1 3 4 5 5 5 5 5 5
46 47 45 43 42 42 43 44 44 44 45 45 45 42 43 43 42 41 40 38 38 33 32 32 34 33 32 34 29 18 8 1 4 6 7 8 8 7 7 6 6 6 6
46 46 49 47 44 42 42 44 45 44 44 45 47 46 44 44 45 44 41 42 39 35 34 33 30 36 37 27 16 4 3 8 8 8 8 8 8 8 8 7 7 6 6
53 54 52 52 53 49 45 44 46 49 50 48 54 50 44 45 47 47 44 44 40 36 33 30 40 37 27 11 1 5 9 9 10 10 10 10 10 10 9 9 9 9 9
49 47 45 50 57 58 54 51 55 51 50 55 54 54 44 46 47 44 43 41 39 34 32 43 39 30 10 2 6 8 10 11 11 12 13 13 13 12 12 11 10 9 9
53 45 40 41 51 58 54 54 54 51 50 51 54 53 42 48 44 39 45 42 35 35 44 39 29 14 4 6 8 9 10 12 14 16 16 16 15 14 13 12 12 12 11
55 50 44 40 43 49 49 46 42 44 48 46 51 46 49 48 38 42 45 35 43 44 37 24 11 5 5 7 9 10 14 17 18 18 18 17 16 15 15 14 14 14 14
60 61 49 46 54 53 52 42 43 40 44 44 45 51 56 42 40 43 35 47 46 32 20 12 7 5 5 8 12 17 19 20 20 19 18 19 18 17 17 16 16 16 15
66 64 50 57 63 58 48 47 46 46 43 52 53 58 50 42 42 36 48 44 31 21 15 11 7 4 6 11 17 19 20 21 22 22 22 21 20 18 17 16 15 15 14
64 61 48 59 58 51 54 51 49 49 49 50 58 51 43 44 40 49 44 35 32 37 34 24 13 8 9 16 20 23 24 24 24 22 23 21 20 18 17 15 14 14 13
61 59 57 51 49 50 56 51 50 50 50 59 47 46 45 43 50 45 42 52 53 51 47 37 20 9 9 16 25 29 30 28 26 22 20 20 19 17 15 14 12 8 5
55 57 51 52 51 54 49 49 46 62 59 44 40 43 45 51 48 49 52 51 51 50 46 42 29 10 6 14 25 30 30 28 27 25 21 19 17 14 12 9 6 5 6
48 54 50 52 53 50 48 42 43 57 43 37 40 46 52 50 50 51 51 55 57 56 49 43 37 12 4 12 23 29 29 28 27 24 21 17 14 11 8 7 7 9 10

GFSSE_700_rhum_006.txt.gz
RH
34 33 32 32 31 29 28 25 23 25 29 32 32 17 8 5 3 3 4 4 4 4 5 6 6 7 8 8 7 7 7 7 7 8 9 9 9 11 12 12 10 9 10
34 34 34 32 30 30 27 25 22 21 21 24 30 34 21 8 6 3 4 4 5 6 7 7 7 8 9 9 9 9 8 8 9 10 11 11 11 12 13 13 12 10 9
36 36 35 34 32 30 28 28 23 20 19 18 20 27 33 23 7 6 4 5 6 7 7 7 7 8 8 9 10 10 10 11 12 12 11 11 11 12 12 11 9 8 8
38 37 36 36 34 32 30 29 27 27 26 20 14 15 25 32 21 7 8 8 8 8 9 9 10 10 10 10 10 11 11 11 11 10 10 9 9 9 8 7 7 8 8
41 38 38 37 36 35 33 30 29 30 29 26 18 13 12 24 30 20 8 8 9 9 9 9 9 9 9 9 9 9 9 8 8 8 7 7 8 8 9 10 12 12 12
43 44 45 42 37 37 33 31 30 30 30 28 24 17 12 11 27 29 23 17 11 10 9 9 9 9 9 9 9 8 9 9 9 10 12 14 15 15 16 16 16 16 15
44 46 48 42 40 38 35 32 31 32 30 27 27 24 18 11 12 27 29 26 23 22 22 21 21 20 20 20 21 21 21 23 23 23 22 22 20 20 19 21 21 20 19
48 50 44 43 41 41 37 33 33 32 32 29 27 27 24 19 16 11 19 22 22 22 20 18 18 19 21 20 21 20 20 21 20 21 22 22 23 24 24 23 25 26 26
45 44 44 44 42 42 39 35 35 34 35 36 33 29 29 25 22 22 24 22 23 24 26 28 29 29 30 29 28 29 28 26 24 24 24 23 22 22 21 20 20 22 25
44 44 44 44 44 42 41 37 38 36 37 38 35 32 30 31 28 25 28 29 29 29 30 32 33 38 34 30 29 28 27 25 21 20 18 18 18 18 18 19 20 20 19
42 42 42 44 44 43 42 40 39 40 40 40 37 34 33 33 33 32 28 29 30 28 29 30 31 32 31 29 26 24 24 24 25 25 25 26 27 27 28 27 27 27 27
48 46 45 44 44 43 43 42 40 42 43 42 40 38 35 35 35 36 34 32 30 31 30 31 31 31 31 30 30 32 32 30 29 30 28 30 30 24 19 16 15 17 17
51 46 42 42 43 43 43 43 42 41 44 45 43 41 40 38 37 37 37 37 36 34 32 32 32 32 33 34 34 32 30 31 31 27 18 10 4 2 3 4 4 5 5
50 49 46 41 42 42 42 42 41 42 43 45 46 44 42 41 40 39 39 39 40 38 34 32 32 33 34 32 31 35 31 21 10 2 2 5 7 7 7 7 7 6 6
49 49 47 44 42 42 43 43 42 42 43 44 46 46 45 43 41 41 41 41 41 40 38 34 33 33 29 31 34 29 18 4 4 8 8 8 8 8 8 8 8 8 7
45 49 51 49 46 43 42 44 46 48 46 45 46 46 47 47 44 43 43 43 41 42 40 35 32 29 34 36 29 14 2 7 9 9 9 10 10 12 12 12 12 12 11
48 53 53 54 53 52 46 44 44 45 46 48 49 49 52 54 51 45 46 44 41 42 38 33 29 38 36 29 15 2 6 8 10 10 11 13 15 16 16 17 15 14 13
46 51 56 56 56 58 58 55 53 49 51 51 51 51 55 54 51 43 46 43 43 41 34 32 40 33 25 11 5 6 8 10 11 12 15 16 17 17 17 16 16 15 15
48 50 50 50 49 50 57 60 59 57 56 55 50 49 49 52 49 46 43 40 43 36 36 38 27 16 7 5 5 7 9 11 14 17 18 18 18 17 17 17 17 16 16
48 52 52 47 45 43 46 54 64 60 54 51 48 50 48 50 43 49 40 46 37 40 37 24 15 9 6 4 5 8 12 17 19 20 20 20 20 21 20 19 19 18 18
48 49 54 49 47 46 47 51 57 55 49 41 40 46 46 44 45 46 46 40 44 38 26 23 23 16 9 6 6 11 16 21 22 22 22 23 23 22 21 20 19 19 18
44 49 52 54 46 43 53 64 63 64 52 46 40 45 50 58 56 45 43 44 40 33 44 47 43 37 22 10 8 14 21 24 26 26 27 25 24 23 22 20 19 18 17
35 38 46 60 47 48 59 68 70 60 55 49 44 44 79 96 54 47 43 44 40 48 46 44 41 39 30 13 7 11 19 24 28 28 28 26 24 23 21 18 16 15 15
34 33 39 62 55 50 59 66 63 60 55 60 53 62 85 60 56 43 48 45 49 48 50 50 45 40 36 18 6 7 16 23 26 25 23 22 22 21 19 17 15 12 9
40 37 37 60 56 51 62 56 61 63 55 57 56 62 58 59 47 51 47 51 50 53 54 54 53 52 49 40 13 8 12 18 23 25 23 23 21 19 18 16 12 9 8
36 39 43 60 59 55 52 56 60 57 57 50 52 55 49 48 51 49 51 52 55 58 57 56 57 57 56 45 27 15 15 22 27 28 25 22 20 17 15 11 9 11 12

GFSSE_700_rhum_009.txt.gz
RH
33 33 32 33 33 27 28 26 23 21 21 24 29 31 14 8 4 3 3 4 4 4 4 5 6 7 7 7 6 6 6 6 6 7 8 8 9 9 10 11 12 12 10
34 34 34 33 29 29 28 27 24 20 19 19 21 28 32 16 7 3 4 4 4 5 6 6 7 8 9 9 9 9 8 8 8 8 9 10 10 10 11 12 13 12 11
35 34 34 34 32 30 29 27 27 26 26 18 15 18 26 31 14 7 3 4 6 7 7 7 8 8 9 9 10 10 10 10 10 11 11 11 11 11 11 11 11 9 8
36 36 35 35 34 33 32 29 28 29 29 26 17 13 14 27 28 10 7 6 7 8 8 8 9 9 10 10 10 10 10 10 10 10 10 10 10 10 9 8 8 8 8
39 38 38 37 37 37 34 31 29 30 30 28 24 16 11 15 29 23 10 8 8 9 9 9 9 10 10 10 10 10 9 9 9 9 8 8 8 8 9 10 12 14 14
42 41 41 44 45 38 35 32 30 32 30 28 26 22 16 10 21 28 23 17 11 9 8 9 9 9 9 9 9 9 9 9 9 9 10 11 12 14 16 18 18 18 17
42 44 44 44 44 39 36 33 32 32 31 28 26 26 23 17 11 19 29 27 24 23 22 22 22 21 21 21 21 21 22 22 22 21 21 20 18 17 17 16 18 20 20
45 46 45 46 44 41 39 36 33 33 33 34 32 28 27 24 20 15 16 17 17 16 17 16 17 19 19 20 20 22 22 23 22 23 23 22 22 22 22 21 20 21 21
47 47 48 48 44 44 41 38 34 34 35 36 34 32 29 28 27 22 24 24 24 26 26 28 28 30 32 31 30 28 27 26 25 23 22 20 19 18 18 17 17 17 17
44 45 47 44 44 44 44 40 36 36 37 38 38 35 32 30 29 29 25 25 27 27 27 27 28 29 30 29 28 26 24 22 21 20 19 20 22 23 23 23 22 23 23
42 43 44 44 44 44 44 43 40 38 40 40 41 39 36 33 31 29 30 30 26 28 28 28 30 30 29 29 28 27 28 29 29 28 27 27 27 28 28 27 25 22 22
46 45 43 43 43 44 44 43 42 40 40 42 43 42 40 38 35 32 32 32 33 32 30 30 30 31 31 30 30 31 31 30 28 27 24 30 28 23 15 4 2 3 3
37 47 47 46 45 44 44 43 43 42 41 41 44 44 43 42 39 36 35 35 35 36 35 33 31 31 32 32 32 31 27 28 30 27 20 11 4 2 3 6 7 7 7
33 45 48 45 44 44 43 43 43 43 42 42 43 46 46 44 43 41 38 37 38 38 37 36 33 32 32 32 29 26 30 30 24 13 4 4 7 7 8 8 8 8 8
34 44 49 48 44 42 42 46 43 42 42 42 43 45 46 46 46 45 42 40 40 40 39 39 36 32 32 28 26 32 30 22 7 5 8 8 9 9 10 11 12 12 12
39 42 49 49 47 45 44 45 47 45 43 43 44 44 46 46 48 51 51 43 42 42 39 38 34 32 27 30 33 30 23 6 5 8 9 10 11 13 15 16 17 17 16
46 45 47 50 50 49 49 46 46 48 49 51 52 50 49 49 49 54 53 46 41 42 36 35 33 28 35 32 25 20 7 5 8 9 10 12 15 16 17 16 16 16 16
48 50 52 51 51 51 54 54 53 52 50 48 48 50 51 51 53 56 53 47 42 39 36 34 30 36 27 17 10 6 5 7 9 10 13 16 17 17 17 17 18 18 18
57 48 49 55 56 54 54 57 61 61 62 57 54 54 54 51 52 50 50 43 42 37 36 32 36 24 16 10 6 6 7 9 11 14 18 18 18 19 20 20 21 20 19
71 52 52 46 51 53 52 53 54 57 62 62 61 61 55 50 49 48 45 42 41 38 34 38 27 29 31 24 12 6 7 10 14 18 19 20 21 22 23 23 22 21 19
64 44 49 49 45 50 49 46 44 45 53 63 61 58 47 43 43 44 44 48 41 37 41 32 36 34 33 34 30 16 9 11 16 20 24 25 26 27 26 25 23 21 19
36 40 42 51 49 50 47 44 46 48 61 61 61 57 49 46 47 45 57 51 42 44 37 42 39 38 34 32 31 20 8 9 15 22 25 28 28 28 26 24 23 21 19
30 34 49 52 55 50 44 42 47 58 64 60 60 59 52 49 49 62 80 55 46 41 45 46 48 48 46 45 42 34 17 9 9 13 18 22 23 24 24 24 22 20 18
26 33 38 42 52 52 42 38 45 54 62 65 66 66 62 57 84 99 75 49 48 48 47 52 53 53 53 53 51 50 43 32 20 17 16 19 22 24 24 21 20 17 14
37 38 31 41 41 46 50 45 51 64 68 66 63 61 59 59 99 99 70 52 48 50 52 56 56 54 54 55 56 55 50 37 19 17 19 23 24 22 20 19 17 13 11
31 48 31 43 39 43 56 56 58 66 65 60 61 59 60 65 99 86 56 54 53 51 57 60 57 54 55 57 60 60 55 33 20 24 25 24 22 20 18 14 11 12 14

GFSSE_700_rhum_012.txt.gz
RH
32 34 34 34 31 26 27 27 25 21 19 19 23 28 30 15 8 4 3 4 5 4 4 4 5 6 7 6 6 6 6 6 7 7 7 8 8 9 9 10 11 13 13
33 34 33 34 30 28 28 28 27 26 25 20 16 19 27 30 14 7 3 4 4 4 5 6 6 8 9 9 9 9 8 8 8 8 8 9 10 11 10 11 12 12 12
35 34 35 32 32 31 31 29 28 28 28 26 20 13 15 25 30 10 5 3 5 6 7 7 8 8 9 10 10 10 10 9 9 10 11 11 11 11 11 11 11 10 9
36 35 34 35 35 36 34 32 29 29 29 28 25 18 11 14 27 26 8 6 6 7 8 8 8 8 9 9 10 10 10 11 11 11 11 10 10 10 9 8 8 8 9
36 37 36 36 37 39 37 33 31 31 31 29 27 25 17 9 17 28 18 8 8 9 9 10 10 10 10 10 10 10 10 10 9 9 9 8 8 8 9 10 11 13 15
38 39 39 38 41 39 38 34 33 32 32 30 27 25 24 16 10 22 27 22 14 9 8 9 9 9 9 10 10 11 11 12 13 14 15 17 19 20 20 20 20 20 18
41 42 41 40 43 41 38 35 34 34 34 34 32 28 25 24 17 12 25 28 26 25 24 22 21 20 18 18 17 17 16 16 15 15 15 14 16 17 17 18 20 21 20
44 46 47 44 45 41 41 37 36 35 35 35 32 30 27 24 25 21 18 15 16 18 20 22 23 24 25 25 24 24 24 24 23 23 21 21 20 20 20 20 19 19 18
48 47 47 46 48 45 43 41 37 35 36 37 36 36 34 28 25 25 25 24 25 26 26 25 25 25 26 26 25 25 24 24 23 22 20 18 17 17 17 18 19 20 19
49 48 45 46 48 47 43 43 42 36 37 38 39 40 39 36 32 29 27 28 27 25 26 26 26 26 26 27 27 26 25 25 25 25 24 25 24 24 24 25 24 24 25
47 48 46 45 46 46 44 44 44 41 38 39 41 42 41 39 38 34 31 30 30 31 30 27 26 26 27 27 28 28 29 28 27 26 25 25 24 24 25 24 22 16 8
46 44 43 43 44 44 44 44 44 43 41 40 41 43 44 42 42 40 36 33 32 32 32 32 29 29 28 27 28 28 28 27 23 20 22 26 23 18 11 3 2 2 4
37 42 47 46 42 41 42 44 44 44 43 42 42 42 45 45 44 44 42 39 35 32 33 32 32 31 30 30 29 30 26 23 24 25 24 19 11 4 3 6 7 8 8
30 33 36 46 48 45 44 43 44 44 44 43 42 42 44 46 46 45 45 45 42 38 34 34 32 32 31 30 29 27 24 27 28 25 18 6 5 7 8 9 9 10 11
61 32 31 45 47 47 46 47 47 47 44 44 43 43 44 45 46 46 47 49 50 45 38 36 35 33 32 30 28 25 29 28 26 20 8 6 8 9 10 12 14 16 17
58 44 36 37 46 49 48 46 45 51 48 45 44 44 44 45 45 47 49 52 52 47 42 37 36 33 31 29 27 30 26 23 17 9 4 8 9 11 13 16 17 16 15
55 48 42 39 41 50 49 48 47 48 49 50 52 51 51 47 48 52 52 53 53 49 43 38 34 31 30 30 30 23 14 9 7 6 7 9 11 14 17 16 16 16 17
69 58 50 44 42 47 51 52 51 50 49 50 48 48 49 48 52 52 52 52 52 48 42 37 34 31 31 30 22 14 8 6 7 8 10 11 15 18 18 17 18 19 21
70 70 72 58 43 42 50 54 54 57 58 58 59 56 50 52 55 55 52 51 50 46 41 38 33 32 32 29 28 26 14 7 7 9 12 16 19 19 19 19 22 23 23
57 70 71 74 62 44 50 55 55 55 55 58 59 61 59 59 60 55 49 44 46 46 42 37 33 34 33 31 28 26 28 22 11 9 12 15 19 23 24 25 26 27 26
37 64 71 69 69 54 48 47 51 53 53 55 54 54 59 63 62 52 44 41 46 48 45 37 37 36 35 36 35 33 30 24 18 12 11 13 17 22 26 28 27 26 24
30 55 69 74 62 57 52 51 53 52 50 47 44 52 54 62 60 54 48 44 48 53 44 40 39 39 42 44 45 46 46 40 36 26 16 13 12 12 16 18 20 22 22
32 36 60 70 69 54 56 55 54 53 50 46 44 56 60 64 62 56 53 49 56 61 44 43 43 46 49 50 49 49 50 50 49 42 36 26 20 19 21 23 24 22 21
38 35 49 53 60 58 53 48 53 53 49 47 49 58 67 70 67 60 60 55 99 63 48 46 47 53 53 51 50 50 50 53 55 52 40 25 20 22 23 22 21 20 18
40 59 42 56 73 54 39 52 58 54 49 50 62 71 74 71 64 60 63 96 100 59 50 49 52 57 56 53 52 51 51 53 55 55 45 26 22 23 22 20 19 16 12
31 44 51 60 69 52 50 43 52 56 46 54 62 73 71 68 64 68 74 99 100 57 52 51 56 60 58 55 54 55 56 56 59 54 33 23 22 21 20 16 12 12 14

GFSSE_700_rhum_015.txt.gz
RH
32 33 35 34 31 27 33 27 27 26 24 20 16 19 26 28 17 8 3 4 4 4 4 4 5 5 6 6 6 6 6 6 7 7 8 7 8 9 9 10 10 11 13
33 34 34 35 33 30 34 29 28 27 27 26 22 14 16 26 28 10 4 4 4 4 4 5 6 8 9 10 9 8 8 8 8 7 8 9 9 10 11 11 12 12 11
37 34 34 32 32 34 36 32 29 29 28 28 26 21 11 16 27 24 7 3 5 6 7 7 8 8 9 10 10 10 10 10 10 10 10 11 12 12 11 11 10 10 8
39 35 35 34 34 37 35 34 32 32 32 30 27 25 19 9 17 27 16 7 6 7 8 8 8 8 9 9 10 10 10 10 11 11 11 11 11 10 10 9 8 7 8
39 36 35 36 36 36 37 34 33 33 33 30 28 25 24 16 9 21 25 13 8 8 9 10 10 10 10 10 10 10 10 10 10 9 9 9 8 8 9 11 12 14 16
38 37 37 38 38 41 37 35 34 34 34 34 31 28 24 23 15 11 25 26 21 14 10 10 10 12 13 14 16 17 18 19 19 19 20 20 19 20 19 18 17 16 15
39 39 39 39 39 42 39 37 36 35 35 35 31 28 25 23 22 17 14 20 25 25 23 20 18 17 16 17 16 17 18 19 20 17 19 20 19 20 20 20 21 20 19
43 41 43 44 44 45 41 40 38 35 36 37 33 35 35 28 23 23 22 21 20 21 22 22 23 23 23 23 23 23 22 22 21 20 20 20 19 19 18 18 17 17 17
48 46 47 47 46 45 46 43 42 39 35 37 36 38 40 38 36 28 24 25 25 24 23 23 23 23 24 25 25 24 24 23 21 21 21 20 20 20 20 22 23 23 23
49 48 48 48 46 48 49 47 44 43 38 37 39 39 42 40 39 37 33 29 27 26 27 27 25 24 25 26 26 26 26 26 24 25 25 24 25 24 23 23 22 24 23
48 49 48 48 47 46 49 47 44 44 43 39 40 41 43 44 42 42 40 36 33 30 29 29 28 28 27 27 27 27 28 28 25 23 23 22 23 22 22 22 19 14 7
44 47 47 50 49 46 46 45 45 45 44 43 40 42 43 45 45 44 44 43 42 37 35 32 31 30 29 29 28 27 27 27 24 22 22 27 25 21 15 7 3 3 5
40 40 46 46 45 44 45 45 45 45 45 44 43 42 43 44 46 46 45 45 45 45 44 40 34 32 31 29 29 28 28 25 23 26 26 24 19 10 5 6 7 8 8
36 38 36 37 41 42 43 42 43 43 45 45 44 44 43 43 44 45 47 46 47 48 47 44 39 35 32 30 28 28 27 24 28 28 25 19 10 6 7 8 9 10 12
37 31 30 32 34 34 35 37 38 45 48 47 45 44 44 44 44 44 46 47 50 50 49 47 43 37 32 30 28 27 27 29 26 22 19 11 6 7 9 10 12 14 17
62 49 41 37 38 36 36 38 40 45 47 48 49 46 45 44 44 45 46 46 50 51 51 48 43 38 34 30 29 28 29 24 16 11 9 6 6 8 10 12 15 17 17
62 66 52 43 43 42 39 42 46 48 49 48 48 49 48 47 48 48 47 50 51 52 50 48 44 38 34 30 29 30 25 19 11 7 7 8 9 10 12 15 17 18 17
53 70 69 52 44 45 46 48 46 50 49 50 49 48 49 49 50 52 50 52 51 52 50 49 44 39 34 30 30 31 29 25 17 7 8 10 12 14 17 19 19 19 20
48 54 73 69 50 43 50 50 53 56 53 53 54 52 51 50 48 48 52 57 55 50 46 48 44 40 34 32 33 32 29 25 25 22 12 9 12 15 17 20 22 23 24
36 55 73 74 71 54 44 56 58 64 62 60 57 54 56 59 57 56 61 60 54 46 45 49 46 40 35 35 35 35 34 33 32 28 22 17 12 12 15 20 22 24 25
36 58 72 74 74 73 53 48 52 55 55 56 57 54 54 58 59 63 64 62 55 48 46 50 49 40 38 38 39 41 42 43 42 42 42 39 34 27 18 13 13 14 15
53 46 59 73 74 73 71 54 55 58 59 58 59 55 52 50 49 54 65 63 56 49 48 57 50 42 41 43 45 47 46 46 46 45 46 48 45 39 31 23 20 20 20
36 40 46 61 73 72 74 72 62 61 61 61 58 54 49 46 49 62 70 67 58 57 52 66 49 44 44 47 49 49 48 47 47 49 49 50 49 43 33 25 22 22 21
20 28 42 59 66 68 73 77 68 58 57 52 56 58 53 51 59 69 74 69 71 69 66 87 50 47 46 50 52 52 50 50 51 51 51 52 50 42 28 23 22 21 20
15 22 35 50 64 64 71 73 67 64 60 62 61 61 57 59 66 75 78 73 88 79 84 91 52 49 49 54 55 53 51 51 53 53 52 55 50 30 23 22 21 19 16
27 30 43 49 57 74 69 77 73 51 54 63 63 63 56 58 72 80 77 75 89 92 98 96 57 52 53 58 59 56 55 56 56 57 54 53 49 26 22 21 16 12 12

GFSSE_700_rhum_018.txt.gz
RH
34 33 34 34 34 31 33 28 28 27 26 24 21 15 18 25 27 11 4 4 4 5 5 4 4 5 6 6 5 6 6 7 7 8 8 8 8 8 9 10 11 12 12
33 34 35 35 34 33 35 29 29 28 27 26 25 20 12 18 26 22 7 3 4 4 4 5 6 7 8 9 9 8 8 8 8 7 8 8 9 9 11 12 12 12 12
33 34 34 34 34 35 36 32 31 31 32 30 28 25 17 11 22 26 11 4 5 7 7 7 8 9 9 10 10 10 10 10 10 9 10 10 11 12 12 12 11 10 9
35 35 35 33 34 36 34 33 32 32 33 32 30 27 24 13 12 25 19 8 6 7 8 8 9 9 9 9 10 10 10 11 11 11 11 11 11 11 10 10 8 8 8
38 36 36 34 36 36 37 34 34 33 34 33 31 28 25 22 11 16 26 21 9 8 9 9 10 10 10 10 10 10 10 10 10 9 9 9 9 9 11 13 16 17 19
41 37 36 36 38 41 38 36 35 35 34 35 32 28 25 22 21 12 17 28 27 24 21 17 16 16 18 19 19 20 20 19 18 17 15 15 15 15 16 15 15 15 17
42 38 37 38 41 41 42 38 37 35 36 37 34 33 32 25 21 21 17 15 16 18 18 18 17 17 17 18 18 18 19 19 20 22 21 21 21 20 20 20 20 19 19
44 39 39 40 41 42 44 41 39 38 36 37 36 36 39 37 33 24 23 23 23 23 23 22 22 22 22 22 22 23 22 22 21 21 21 20 19 19 18 18 18 19 20
47 42 41 42 47 47 46 46 43 42 39 37 38 38 40 40 38 36 31 27 25 25 25 24 23 23 23 23 24 25 24 24 24 23 24 23 23 24 24 25 24 25 25
53 52 49 48 49 49 48 49 49 44 43 40 38 40 41 42 42 41 39 36 34 31 30 28 27 26 26 25 25 26 26 25 25 25 25 24 23 21 21 22 24 24 23
46 59 60 56 51 49 48 49 50 46 45 44 41 40 43 44 45 45 44 43 43 41 39 37 32 30 28 27 28 28 28 27 27 26 24 23 24 23 24 23 19 14 10
48 50 59 58 53 49 49 48 49 46 45 45 44 42 42 44 44 46 46 46 45 44 44 44 42 37 33 30 29 29 29 28 27 25 25 27 27 24 19 11 5 4 4
43 48 48 54 55 53 51 47 47 46 46 46 45 45 43 43 44 44 46 47 46 46 46 46 45 44 38 33 31 28 27 27 26 26 28 27 25 18 10 6 7 7 8
41 40 39 48 52 52 49 46 46 45 45 45 46 45 45 44 43 43 44 46 47 48 49 49 48 46 41 36 32 30 28 27 29 27 24 21 17 9 7 8 8 9 10
42 39 41 40 41 38 42 49 48 46 46 47 46 47 46 45 44 44 44 46 47 47 50 50 50 47 44 39 34 30 28 28 27 19 12 11 9 6 7 8 10 11 13
48 40 36 38 36 33 29 32 34 36 42 46 48 49 49 47 45 44 44 46 47 50 51 50 50 48 45 40 35 30 29 29 26 17 9 7 7 7 8 10 11 13 16
53 56 50 43 43 32 32 37 42 42 41 47 48 48 50 51 48 46 46 47 49 53 51 51 51 50 46 41 36 31 30 31 29 24 13 7 8 10 10 12 14 17 18
56 60 56 51 51 45 36 41 42 45 49 50 48 50 51 50 50 50 53 53 53 52 54 54 50 47 46 42 37 32 33 32 28 26 23 14 9 11 14 17 19 20 20
56 64 68 56 49 63 60 50 47 44 50 51 50 50 50 51 50 49 49 51 55 59 57 52 48 48 49 44 36 34 35 34 34 33 30 24 19 15 12 13 16 20 22
51 61 70 73 61 55 68 61 52 51 52 55 48 47 52 56 58 59 58 57 59 63 60 53 49 52 52 44 37 37 38 40 42 42 42 42 42 42 39 34 28 23 18
30 40 55 71 70 61 55 63 55 52 49 55 49 48 53 58 56 61 61 63 67 66 62 56 53 56 56 44 40 41 43 45 44 44 44 44 43 43 45 45 42 35 29
25 23 22 30 63 71 63 68 82 66 55 60 60 60 60 60 59 55 55 61 67 68 65 58 57 64 56 45 43 44 46 47 48 46 46 46 46 46 45 44 44 41 35
23 31 33 32 68 75 73 72 72 76 74 58 62 61 60 57 56 52 54 64 72 72 68 64 64 74 53 48 48 49 50 50 48 47 46 48 49 48 48 47 43 37 28
22 34 34 40 40 68 73 74 73 73 70 66 60 58 64 64 61 56 54 62 78 78 71 74 73 90 56 51 52 53 54 54 52 50 51 53 54 53 53 49 40 27 21
14 19 39 52 50 54 51 69 73 72 86 82 76 65 69 70 66 58 56 68 78 82 80 99 84 97 66 55 54 57 58 57 54 54 55 57 56 57 55 46 28 23 21
18 17 17 28 51 56 64 61 66 74 73 82 76 72 68 72 65 62 60 69 82 91 89 99 97 93 86 58 56 57 61 60 58 58 59 59 58 58 57 32 24 21 16

GFSSE_700_rhum_021.txt.gz
RH
32 32 34 34 34 34 35 28 28 28 27 26 24 20 14 20 27 21 8 4 4 4 5 5 5 5 6 6 5 6 8 9 9 9 9 9 8 8 9 10 12 12 12
33 33 35 35 34 34 37 29 29 30 31 30 27 24 19 12 22 26 10 3 4 4 4 5 6 8 9 9 8 7 8 8 8 8 8 8 8 9 10 12 12 12 12
37 34 35 35 35 35 36 32 31 31 32 32 30 26 23 14 14 25 16 6 6 7 7 7 8 9 9 10 10 10 10 10 10 10 10 10 11 12 12 12 11 11 10
34 34 35 34 34 37 36 34 33 33 33 32 31 28 25 19 9 21 22 10 8 8 9 9 9 9 10 10 10 10 11 11 11 11 12 12 11 11 10 10 9 9 10
34 34 35 34 36 37 37 34 35 35 34 34 33 28 26 23 15 13 25 24 14 8 8 8 9 9 9 9 9 9 9 10 10 11 10 11 12 15 16 18 20 20 19
42 36 36 35 37 39 39 36 35 35 36 36 34 31 26 22 21 15 17 27 28 27 25 24 23 22 22 20 19 18 17 16 15 15 14 14 15 15 16 16 17 19 20
44 38 37 36 39 41 42 39 37 37 36 37 36 35 36 35 24 21 20 17 17 18 19 20 20 21 21 21 21 20 20 19 19 19 20 19 19 20 20 20 19 18 18
46 40 38 37 40 42 44 43 40 39 38 37 38 38 36 36 38 34 25 23 23 23 22 22 22 22 22 23 23 22 22 22 22 22 22 22 22 23 22 23 22 21 24
48 44 40 39 42 44 46 46 45 43 42 40 38 39 41 39 38 40 39 37 34 30 27 25 25 25 24 24 25 25 25 25 25 24 25 24 23 23 24 24 25 25 24
46 46 44 42 45 50 50 49 49 49 46 44 42 40 42 44 43 44 44 43 43 42 41 38 35 32 29 27 26 27 27 27 26 26 26 24 23 22 24 25 24 24 23
41 48 50 47 52 55 54 50 50 50 50 45 45 43 41 43 45 46 46 46 46 45 44 43 43 41 37 33 30 28 28 27 27 27 26 24 26 26 26 24 20 16 12
34 36 50 56 56 57 54 50 50 50 50 47 46 45 44 42 44 46 46 47 47 46 46 47 47 45 44 40 34 31 29 27 26 26 26 28 28 26 24 16 10 6 6
47 49 46 50 54 53 54 55 50 50 49 47 47 46 46 44 44 44 46 47 47 47 48 48 49 48 47 45 42 36 30 28 26 28 27 24 22 21 18 9 8 8 8
41 41 43 46 48 50 55 54 52 49 49 48 48 47 46 46 45 44 45 46 48 48 48 49 50 50 49 47 45 40 34 29 28 27 21 15 12 11 10 7 8 8 9
40 39 40 41 41 41 47 50 50 52 53 49 48 47 47 47 46 45 45 46 48 48 48 50 50 51 50 49 46 43 39 32 29 28 23 14 8 7 7 7 8 9 10
40 36 39 38 38 40 39 41 37 45 46 50 50 49 50 50 48 46 46 46 49 49 49 52 53 52 51 50 46 42 38 32 31 31 28 20 10 8 9 9 10 10 11
42 40 38 43 45 39 39 38 39 35 38 41 41 42 49 50 52 51 48 46 49 51 52 55 55 54 52 48 46 42 38 33 32 31 28 24 20 12 10 11 14 16 17
47 46 42 47 43 43 44 46 46 40 41 40 43 46 49 51 53 53 52 51 53 55 58 57 57 55 52 50 49 46 38 34 34 34 32 29 26 23 20 17 14 13 14
56 58 59 62 64 50 45 48 47 47 43 46 50 50 51 52 52 54 57 58 56 57 58 60 60 57 52 53 52 47 38 37 38 40 41 41 41 41 42 42 41 40 37
51 61 70 68 70 69 55 51 54 45 41 48 49 50 56 54 55 55 54 55 57 60 62 65 65 60 56 57 56 47 40 41 43 44 44 44 43 43 43 43 42 42 42
27 33 55 68 69 75 71 67 57 46 54 50 49 51 57 54 59 59 61 64 63 65 65 69 66 62 59 61 58 47 43 46 48 47 47 46 44 44 44 45 46 45 44
21 20 34 49 63 68 73 78 75 70 60 58 58 57 59 55 59 57 56 61 63 62 62 70 69 65 62 67 60 49 47 50 51 50 49 47 46 48 48 48 47 47 46
34 32 30 36 39 50 65 72 74 76 69 61 60 52 52 59 60 58 54 54 57 58 68 75 73 69 68 74 61 52 52 53 54 55 53 52 51 52 53 52 51 50 49
17 25 30 44 49 47 49 47 56 68 73 63 56 66 61 62 67 65 60 59 57 58 75 83 75 75 73 83 69 55 55 58 59 59 58 56 57 59 60 59 56 54 52
18 21 25 29 45 59 60 64 61 67 73 75 74 74 73 71 73 73 70 66 61 62 89 88 86 81 91 85 90 62 57 60 63 65 63 62 62 65 64 63 61 59 52
21 21 21 21 24 50 57 64 66 65 70 73 77 76 75 76 78 74 71 72 68 67 84 100 100 92 99 92 90 85 65 60 63 67 66 65 66 66 66 66 65 60 42

GFSSE_700_rhum_024.txt.gz
RH
32 29 33 34 33 33 36 29 29 31 31 29 26 22 16 15 23 26 11 3 4 4 4 5 5 6 7 5 6 7 9 10 11 11 11 11 9 8 8 10 11 12 13
32 33 35 35 35 32 36 31 30 31 33 31 29 26 19 12 19 25 12 4 6 6 5 6 7 8 9 9 8 7 7 7 8 8 8 8 8 9 10 11 12 12 12
37 33 35 35 36 36 36 34 31 32 33 32 30 28 25 17 15 23 14 7 6 8 8 8 9 9 10 10 11 11 11 10 10 11 11 11 12 12 12 12 12 11 10
39 34 35 35 35 37 36 35 34 34 34 34 32 27 25 21 12 18 23 14 8 8 9 9 10 10 10 11 11 11 11 11 11 11 11 11 10 10 10 10 10 11 14
42 33 35 35 35 38 38 35 35 36 36 37 33 30 25 22 18 14 24 25 19 12 9 9 9 10 12 13 15 16 17 17 17 17 18 17 17 17 17 17 17 16 16
39 34 35 35 36 38 39 36 36 36 37 38 38 35 34 30 22 19 15 19 24 25 25 23 22 20 19 18 18 19 19 20 20 20 20 20 19 19 19 19 19 19 20
47 38 36 36 37 40 40 39 37 37 39 39 38 38 36 34 35 25 22 22 21 20 20 20 21 22 22 22 23 23 23 23 23 22 21 21 21 20 20 19 18 18 18
46 42 38 36 37 43 43 43 40 39 40 40 39 39 39 40 37 38 37 33 28 26 24 24 24 24 24 24 25 25 25 25 25 25 25 25 24 24 24 24 24 24 24
41 44 40 38 38 44 45 46 44 44 43 41 41 40 42 42 42 42 43 41 42 41 41 39 36 32 29 26 25 25 26 26 26 26 25 24 23 23 22 22 23 23 23
42 46 44 41 39 44 48 49 48 49 49 46 43 41 42 44 44 45 45 45 45 45 44 43 42 42 39 34 31 29 27 26 26 26 26 25 23 24 26 26 25 24 22
35 37 48 44 42 45 53 54 51 51 50 50 46 45 43 43 45 46 46 47 46 46 46 47 47 47 45 43 39 35 31 28 26 25 25 25 26 26 27 26 23 18 12
39 40 44 49 47 48 55 57 55 51 51 50 48 46 46 44 44 46 46 47 47 47 47 48 48 49 49 48 46 44 39 32 28 26 26 26 25 24 23 22 17 10 8
50 42 36 36 51 55 56 58 56 51 51 51 49 47 47 46 45 44 46 47 47 48 48 49 50 49 50 49 48 46 44 40 33 28 27 25 21 16 13 14 11 8 8
37 41 48 47 46 48 52 54 56 56 53 52 50 49 48 47 47 46 45 46 47 48 48 49 51 51 51 50 50 49 46 42 36 31 29 28 22 13 8 8 8 7 8
39 37 36 39 40 42 46 49 54 55 53 54 53 50 49 48 48 47 47 46 47 49 49 49 51 53 53 52 52 50 46 41 37 32 31 30 26 18 11 8 8 8 9
41 40 40 39 38 40 40 42 44 54 49 54 53 51 51 51 50 50 49 48 46 49 50 51 52 55 55 53 52 50 46 41 38 33 32 31 27 24 19 12 11 11 13
42 44 44 45 43 40 38 40 44 44 46 41 45 46 44 46 54 53 52 51 48 48 50 53 54 58 56 56 53 51 46 43 38 34 34 33 32 30 28 27 25 23 20
47 46 48 49 46 46 36 40 44 48 50 44 43 42 43 44 50 53 53 53 52 50 51 55 59 58 59 57 56 51 48 45 38 36 37 39 39 39 39 39 39 39 39
50 53 53 54 52 47 40 36 49 54 55 53 48 45 46 48 53 54 55 57 56 55 58 60 61 61 62 62 58 53 50 46 39 39 42 43 43 43 42 42 42 43 43
51 54 56 57 59 60 50 48 44 49 54 54 50 47 50 50 54 56 57 56 57 58 58 60 61 65 66 63 59 55 53 48 41 43 46 46 45 45 43 43 44 45 46
28 40 50 54 57 64 70 62 57 47 42 45 53 53 52 50 55 59 59 58 57 59 63 64 65 68 64 64 62 58 56 49 44 47 49 49 48 46 46 46 48 49 49
32 30 28 33 49 53 65 70 71 74 64 60 69 64 63 56 60 63 67 62 66 63 65 65 69 65 66 68 64 63 60 53 49 49 52 52 52 50 49 50 51 52 52
33 36 38 38 34 35 38 55 70 72 74 75 70 64 59 64 57 59 72 68 64 61 64 64 62 65 74 73 71 67 65 56 52 52 54 55 55 54 53 53 55 55 54
17 18 28 42 48 52 46 36 44 61 68 68 74 70 64 56 66 55 67 72 69 63 61 61 66 71 82 82 78 76 76 64 56 55 56 58 60 60 58 58 58 58 57
19 19 20 25 36 46 59 63 58 46 50 57 58 65 75 66 74 76 68 72 71 72 68 68 74 97 91 95 84 88 84 82 68 58 57 60 64 65 64 63 62 61 61
24 24 26 27 27 27 32 41 53 67 64 57 57 58 72 68 71 74 76 75 72 76 76 73 77 82 99 99 98 91 93 87 82 78 65 61 63 64 66 67 66 65 65

GFSSE_700_rhum_027.txt.gz
RH
32 30 32 36 34 32 31 31 26 30 31 30 28 25 19 13 19 24 10 4 5 4 5 5 7 7 6 5 7 8 10 12 12 13 12 12 10 9 8 10 10 12 13
32 30 34 36 36 35 35 32 29 30 32 31 29 27 23 15 16 22 9 5 7 6 16 21 12 9 10 8 8 7 7 8 8 8 8 9 8 9 10 12 12 12 12
33 33 35 35 36 37 37 37 32 32 32 32 30 27 24 17 15 21 12 7 8 8 9 9 9 10 10 11 11 11 11 11 11 11 11 12 12 12 12 12 11 10 9
36 34 35 36 36 37 36 36 34 34 34 33 31 28 23 20 15 22 19 10 9 9 10 10 11 11 11 11 11 11 11 11 11 11 11 11 11 12 14 16 17 18 19
39 34 35 35 36 38 37 36 36 36 37 38 37 33 31 22 19 18 25 26 22 16 12 12 14 15 16 17 17 18 17 18 18 18 18 18 18 18 18 17 17 17 17
45 36 34 35 35 38 38 38 37 37 36 38 39 38 35 33 23 21 18 17 18 19 18 19 19 20 20 21 21 21 21 21 21 21 21 21 21 20 20 19 18 18 19
46 36 34 36 35 38 39 38 38 37 38 40 40 40 40 38 36 34 29 25 23 23 22 22 22 22 22 22 23 23 24 23 24 24 24 24 24 23 22 22 21 20 19
48 46 36 36 35 39 41 40 41 38 40 40 41 41 41 42 42 40 39 39 40 38 35 32 29 26 25 25 25 25 26 26 25 25 25 25 25 24 23 22 22 22 22
37 46 41 38 36 40 44 43 43 42 42 41 41 41 42 43 44 44 44 44 42 42 42 42 40 38 35 32 30 28 26 26 25 25 25 24 24 23 22 23 23 22 22
41 42 43 40 38 39 46 46 46 47 47 46 44 42 42 43 45 45 45 46 46 46 45 44 45 46 44 42 40 37 32 29 26 25 24 23 23 24 24 25 25 24 22
41 41 46 44 41 39 45 49 50 50 50 48 46 46 43 43 44 46 46 46 46 47 47 47 47 46 47 47 46 45 42 37 31 28 25 24 24 25 24 24 24 21 18
44 40 38 46 46 43 45 55 57 54 52 51 48 45 46 45 44 45 46 47 47 47 47 48 49 49 49 48 48 48 46 45 41 35 29 26 24 22 17 16 16 15 11
44 47 43 43 52 53 48 56 61 60 54 52 51 48 46 46 46 46 45 46 47 48 48 48 49 50 51 50 50 49 49 47 43 37 33 29 27 24 18 12 9 9 8
39 43 42 42 42 43 52 58 60 60 57 53 52 51 49 48 47 47 46 46 46 47 48 48 49 50 52 52 52 51 51 48 43 38 34 31 30 27 20 13 9 8 8
38 39 38 41 44 46 48 50 52 54 58 59 54 53 51 50 49 48 47 47 47 46 48 48 49 50 52 54 53 53 51 50 43 38 35 32 31 29 24 20 15 11 11
41 41 38 35 36 39 40 43 48 53 56 58 57 54 55 54 51 50 49 49 48 47 47 48 50 50 52 55 55 55 53 51 43 39 35 33 33 32 30 29 28 27 26
43 43 42 42 40 34 40 40 42 47 51 54 55 57 54 54 55 54 52 52 51 49 48 48 50 52 53 56 56 56 56 51 45 40 36 35 36 37 37 37 36 37 37
41 42 44 43 42 41 41 42 42 49 53 52 46 48 45 48 51 48 47 51 54 53 51 51 51 52 55 58 58 60 59 52 47 42 37 37 40 40 40 40 40 40 41
45 45 46 46 45 42 40 45 48 49 46 50 53 52 46 45 49 46 45 53 57 59 58 55 54 57 61 59 61 63 59 54 49 44 39 40 43 43 43 43 42 42 42
51 52 50 49 48 49 47 44 45 42 45 42 52 58 59 51 46 46 51 57 58 60 61 60 60 63 62 62 66 63 57 56 52 47 41 44 45 46 46 45 44 45 46
41 50 52 52 55 56 56 54 50 46 44 42 43 50 59 59 51 50 53 55 58 59 65 65 61 60 63 66 66 59 59 58 56 51 44 46 48 49 49 48 47 48 49
22 22 25 26 27 37 51 56 56 60 59 58 57 57 59 58 62 60 54 56 61 63 63 62 64 68 68 68 62 62 63 62 58 55 48 47 50 51 52 52 51 51 52
31 32 31 28 30 31 30 34 44 54 60 68 62 60 59 50 59 67 64 64 67 69 66 72 70 69 68 67 63 66 69 66 64 60 54 50 51 54 56 57 57 56 55
20 24 25 21 25 34 42 42 37 35 39 44 50 65 72 73 70 69 64 70 74 72 70 72 71 65 64 62 70 73 76 73 72 70 64 58 55 55 58 60 60 60 57
23 21 18 15 16 26 44 55 59 57 50 44 44 52 61 68 70 71 67 62 64 72 72 73 72 68 64 60 70 85 87 84 84 83 76 71 63 57 57 60 61 61 61
24 23 23 21 21 29 41 52 55 54 51 52 54 60 59 61 62 66 71 70 63 83 80 80 84 81 76 72 98 83 92 94 91 86 88 87 80 76 69 62 61 61 63

GFSSE_700_rhum_030.txt.gz
RH
32 32 32 36 30 32 33 28 26 29 30 29 28 25 20 13 20 20 6 5 5 5 5 8 7 6 5 7 8 8 9 11 12 13 13 12 11 9 8 9 10 12 12
32 31 33 36 34 34 35 34 28 26 28 30 27 26 22 14 18 17 7 6 7 9 15 21 9 9 8 6 6 7 8 8 8 8 9 9 9 9 10 11 12 12 12
35 32 34 36 36 37 38 38 34 30 27 30 28 25 23 17 16 20 10 7 8 9 9 10 10 10 11 11 11 10 10 10 10 10 10 11 12 12 12 11 11 10 11
37 33 35 35 36 36 37 38 38 33 34 36 30 29 22 19 17 22 18 10 9 10 10 11 11 11 11 11 11 11 11 11 11 12 11 11 11 13 15 17 17 17 17
35 34 35 35 36 36 37 37 38 36 34 36 38 32 30 22 18 19 24 24 20 14 12 12 13 14 15 14 14 14 15 15 16 17 18 17 16 17 18 18 19 19 19
35 33 35 34 35 37 38 37 37 37 36 36 39 40 36 33 26 22 19 18 19 19 19 20 20 20 20 19 19 18 19 19 19 19 20 20 19 18 19 19 18 18 18
40 40 34 35 34 38 38 38 37 37 38 38 38 40 42 40 36 36 34 28 25 23 23 23 23 23 23 23 24 23 23 24 24 23 23 23 23 22 22 22 22 22 22
48 40 35 36 34 38 39 38 39 38 39 40 39 41 42 43 43 42 40 39 40 40 38 35 32 30 27 26 25 25 25 26 26 26 25 25 24 23 22 21 22 21 21
36 47 37 36 35 38 41 38 40 40 40 40 40 41 41 43 44 44 45 44 44 42 39 39 40 40 39 36 33 31 29 27 26 25 24 24 23 23 23 23 23 24 24
41 42 43 38 37 36 43 42 40 40 42 42 41 41 41 42 43 45 45 46 46 46 46 45 43 42 44 44 43 42 39 34 30 28 26 25 25 24 24 24 24 24 22
40 41 46 42 40 37 43 46 45 44 45 46 45 42 43 42 43 43 45 46 46 46 47 47 47 46 45 45 45 46 46 43 41 37 32 27 25 23 21 19 18 19 18
45 42 40 44 45 41 40 47 49 50 49 49 48 44 41 42 44 45 45 46 46 47 47 47 48 49 48 48 48 47 46 47 45 42 36 32 28 25 21 15 12 11 11
34 43 42 38 46 49 44 45 57 59 57 54 51 50 45 43 43 44 45 45 46 47 47 48 48 49 50 50 50 50 49 49 48 45 38 34 31 28 26 18 13 9 8
33 33 43 42 42 47 57 53 56 59 62 59 54 52 50 47 46 46 45 46 46 46 47 47 48 49 50 51 51 51 51 51 50 46 38 35 32 30 28 23 16 12 10
34 36 40 46 43 42 43 46 54 60 61 63 59 55 53 51 49 48 47 46 46 46 47 47 48 48 49 50 52 53 52 52 52 47 40 36 32 32 30 27 24 22 19
38 36 37 37 39 37 39 42 45 50 55 61 63 61 57 54 52 50 49 48 47 47 47 47 48 48 49 51 52 55 54 54 54 48 42 37 34 34 34 33 34 34 34
42 42 38 40 41 40 38 35 35 38 44 53 58 59 59 58 58 57 53 50 49 48 48 48 48 48 49 51 53 57 56 56 57 50 44 39 35 36 38 38 38 38 38
42 43 43 41 40 39 37 39 42 42 42 43 48 51 57 60 58 56 57 54 54 53 52 52 51 50 50 52 54 59 58 60 59 52 48 41 36 38 40 41 40 40 39
37 40 42 44 43 42 39 38 36 42 50 45 46 46 48 49 53 51 55 52 49 48 51 55 54 54 53 53 57 62 60 63 60 53 50 44 38 40 42 43 43 42 42
27 34 41 42 44 45 43 40 35 38 41 49 45 40 39 48 53 55 56 52 48 45 51 57 59 60 59 57 61 64 62 65 58 53 53 48 42 42 44 45 45 44 44
18 20 24 39 46 51 51 46 45 38 37 38 40 45 47 52 62 63 63 61 57 51 59 62 62 60 62 62 65 63 66 64 54 54 56 53 45 43 45 47 48 48 48
15 16 18 21 32 42 48 49 49 48 45 47 50 52 52 53 56 59 66 63 63 62 60 63 60 63 62 62 64 68 67 60 51 58 60 56 50 46 47 49 51 51 52
24 23 21 20 20 21 22 24 26 26 29 36 43 46 41 48 53 50 55 61 66 67 62 64 65 64 65 69 70 72 68 61 55 64 63 61 57 51 50 51 53 54 56
21 22 26 29 28 27 28 28 29 29 30 32 39 48 61 67 68 69 60 59 62 69 73 66 66 70 70 75 73 70 69 64 64 67 68 66 66 61 56 55 55 56 58
24 22 22 22 23 22 19 16 17 29 36 43 45 42 45 52 61 69 70 72 70 69 70 72 71 72 72 76 74 69 68 72 74 77 76 78 79 77 72 65 60 58 58
24 22 21 20 20 19 18 17 20 33 53 63 61 59 61 61 59 60 61 67 68 72 72 71 65 72 79 80 79 78 71 70 90 88 90 88 82 78 78 81 79 78 74

GFSSE_700_rhum_033.txt.gz
RH
32 33 31 33 32 32 31 26 23 25 26 27 26 24 19 14 20 15 6 6 5 5 6 7 6 6 6 8 8 9 11 12 12 22 20 13 10 9 9 9 10 11 12
32 32 32 34 34 34 34 36 29 24 24 27 26 25 21 15 17 15 8 7 13 19 29 9 9 7 6 6 6 7 9 10 10 9 9 9 9 9 10 11 12 12 12
32 33 32 35 36 38 38 39 36 28 27 27 28 24 22 17 16 18 11 8 13 26 19 10 10 10 10 10 9 9 9 9 9 10 10 10 11 12 12 11 11 12 15
35 33 33 35 36 38 38 39 40 34 34 32 28 28 22 19 18 21 17 10 9 10 10 10 11 11 11 11 11 11 11 12 12 12 12 12 11 12 15 16 15 14 14
37 34 34 35 36 37 37 38 38 37 36 34 37 30 30 23 19 18 23 24 20 15 12 12 12 13 13 13 13 13 14 14 15 16 17 17 15 16 16 17 17 18 17
43 34 35 34 36 36 37 37 37 38 37 35 36 40 34 33 29 23 19 17 17 18 18 19 19 19 18 18 18 18 18 19 19 19 19 19 19 20 20 20 21 20 19
41 33 35 35 34 36 36 36 37 38 38 39 36 40 42 42 37 36 35 30 26 24 23 22 22 22 22 22 22 22 22 23 23 23 24 23 23 22 22 22 21 20 20
42 38 35 35 34 36 37 36 38 38 39 40 40 37 42 43 44 43 42 39 38 38 38 36 35 32 30 28 26 25 24 24 24 24 24 23 23 23 22 22 21 21 23
45 46 38 35 35 35 38 38 38 39 39 40 40 40 40 41 43 44 45 45 45 44 41 38 38 40 40 40 38 35 32 30 28 27 26 24 23 22 22 22 22 23 23
30 38 44 37 37 35 38 40 38 39 40 40 41 41 41 40 42 42 45 46 46 46 46 46 46 43 40 41 43 44 43 41 39 36 32 28 26 24 23 21 20 21 22
34 42 45 43 39 36 37 42 41 39 41 42 43 43 42 42 42 42 42 44 46 47 47 47 47 47 47 46 46 44 43 44 43 41 39 35 32 27 24 22 18 15 16
40 38 40 44 45 41 37 41 45 44 43 44 44 44 43 42 43 44 44 44 45 46 47 47 48 48 49 49 49 49 48 48 46 45 43 36 32 30 28 25 20 15 11
38 42 40 41 40 46 45 40 45 48 48 48 49 48 46 45 44 43 44 45 45 46 46 47 47 48 49 49 50 50 50 50 50 48 45 38 33 31 30 27 22 17 12
27 28 37 39 38 39 51 47 44 51 58 59 59 56 52 50 47 44 44 45 45 45 46 46 47 48 48 49 50 51 51 51 51 50 49 41 36 32 31 29 26 21 16
35 33 30 34 43 42 42 49 54 54 56 60 61 62 58 53 51 49 47 46 46 46 46 46 46 47 48 48 49 50 52 53 53 52 51 45 39 33 31 32 29 26 25
34 33 33 37 41 46 43 43 45 46 47 49 55 58 62 60 56 53 50 48 48 47 47 47 47 47 47 48 49 50 51 53 55 54 53 48 42 36 32 34 34 34 34
40 42 41 39 36 35 40 40 38 39 40 41 44 48 55 60 61 59 57 54 51 49 48 48 48 48 48 48 48 50 52 53 57 56 57 51 45 39 34 36 38 38 38
34 36 38 37 35 34 35 38 38 37 35 40 42 43 40 46 52 58 62 57 61 60 53 51 50 50 50 50 50 50 51 53 58 58 60 54 48 43 36 37 39 40 40
20 35 40 44 42 41 37 38 41 42 40 38 39 45 45 46 50 51 55 56 55 56 59 58 56 56 55 53 53 53 53 54 60 59 62 57 50 48 40 38 41 42 42
10 12 23 37 44 46 47 44 42 43 43 41 41 44 52 50 46 49 53 56 50 51 53 53 51 50 56 58 58 58 56 57 62 60 62 56 53 52 46 40 42 44 44
9 9 11 14 29 38 46 46 29 37 43 43 46 43 42 45 49 50 49 60 65 59 58 57 55 53 59 61 60 61 60 61 62 61 64 54 54 56 51 44 44 44 46
10 12 13 14 16 21 30 39 43 26 30 37 41 44 41 42 43 52 51 53 63 66 69 67 63 61 64 64 62 66 64 63 62 65 66 57 55 60 55 50 46 46 47
13 13 14 15 15 16 17 18 21 25 21 20 23 25 33 39 48 52 56 54 56 59 64 68 70 71 67 68 68 66 67 64 65 68 68 61 58 61 60 56 51 49 50
18 19 20 20 21 22 24 24 25 28 30 28 28 26 27 34 47 70 73 62 59 65 65 64 63 72 80 72 75 70 69 73 74 72 72 66 62 62 63 63 60 57 55
23 21 19 18 17 19 23 27 30 30 25 20 20 34 40 39 38 45 73 81 79 78 70 72 70 63 70 77 79 79 81 81 77 74 72 69 69 71 72 73 74 71 67
21 20 21 22 21 20 20 20 20 18 18 17 19 30 42 48 50 47 48 55 62 68 66 70 75 76 75 79 80 84 93 82 80 77 77 71 78 80 82 84 85 77 78

GFSSE_700_rhum_036.txt.gz
RH
33 32 32 33 34 30 32 29 23 23 24 25 25 23 19 14 16 13 7 6 6 6 5 6 5 6 7 8 8 10 11 15 13 22 34 20 12 10 9 9 10 11 12
32 33 33 33 34 35 36 36 29 25 24 26 25 24 20 16 16 14 8 8 9 9 7 8 7 6 6 7 9 10 12 14 12 11 11 9 9 9 10 12 12 12 11
32 33 32 35 37 38 37 34 35 37 33 26 27 24 21 18 16 17 11 9 9 10 9 9 10 10 10 9 8 8 8 9 9 9 9 10 11 12 12 11 12 14 15
33 33 32 35 37 38 38 37 34 40 38 31 27 28 23 20 18 20 19 12 10 9 10 10 11 11 11 11 11 11 12 12 12 12 12 11 11 13 15 15 14 14 15
36 34 33 35 36 38 38 38 37 40 40 36 32 30 30 25 20 17 20 24 23 21 19 17 17 16 15 13 13 12 12 13 15 16 17 17 16 16 16 16 16 16 16
30 33 34 34 36 37 38 38 38 38 39 41 34 40 35 32 32 27 22 18 17 17 17 18 18 18 18 18 18 18 18 18 18 18 18 19 19 20 19 18 18 18 18
32 41 35 35 35 36 37 37 38 39 39 42 42 35 41 43 40 36 35 35 32 28 26 24 23 23 23 23 23 23 23 23 23 23 22 22 22 21 21 20 19 19 19
40 40 34 35 35 36 36 37 37 38 39 41 41 41 35 41 45 45 44 43 40 37 36 36 36 36 35 33 32 30 28 27 26 25 24 23 22 20 19 18 18 20 21
46 40 36 35 35 34 36 37 37 38 40 41 42 40 40 38 38 42 46 46 46 45 44 44 42 37 37 39 39 40 39 38 36 34 32 29 26 25 24 22 21 21 22
40 46 45 39 36 35 35 38 38 38 39 40 42 42 41 41 41 42 40 44 46 47 47 47 47 47 46 43 41 40 39 39 40 38 38 36 33 31 26 24 22 19 18
30 31 35 42 38 37 36 38 40 38 39 40 41 44 43 42 42 42 43 43 43 46 47 48 48 48 48 48 48 48 48 48 47 42 38 37 33 28 27 27 24 22 18
26 29 34 39 45 41 39 37 41 42 39 39 41 42 45 45 43 43 44 44 44 45 46 47 48 48 48 49 49 50 50 50 50 49 47 42 36 32 28 28 26 24 20
31 30 30 38 41 45 45 41 38 42 45 44 44 44 45 47 47 45 44 45 45 46 46 46 47 47 48 48 49 49 50 50 50 50 50 49 43 36 32 29 28 26 22
30 28 36 36 36 38 39 42 46 42 43 47 50 52 53 52 51 49 46 45 46 45 46 46 46 46 47 46 48 48 49 50 50 49 52 51 49 40 35 30 30 29 26
36 34 32 29 30 34 37 36 36 47 48 46 50 53 55 58 58 56 53 50 48 47 46 46 46 47 47 46 46 47 48 50 50 50 52 52 52 44 39 33 32 32 31
38 38 37 35 31 31 35 43 42 43 46 50 50 50 52 53 55 59 59 55 52 51 49 48 47 47 47 47 48 48 48 49 50 51 51 54 54 50 41 38 32 34 35
34 37 38 36 32 32 34 37 38 44 43 42 42 41 42 48 51 54 56 60 61 58 55 52 50 49 48 48 48 49 49 49 50 51 51 55 56 54 44 42 35 35 37
35 47 20 19 29 32 34 36 36 37 40 38 38 37 35 37 42 44 46 50 55 64 65 62 60 58 53 51 51 51 52 51 51 52 52 55 58 58 48 45 40 36 38
16 17 27 31 19 23 37 39 38 40 41 41 44 43 42 40 39 43 47 51 52 53 59 60 57 56 63 60 58 55 54 54 54 54 54 58 57 60 51 48 46 39 39
15 13 14 21 28 31 26 36 40 43 45 42 40 39 42 43 41 46 51 52 50 49 51 58 58 57 61 60 55 50 53 59 59 58 56 60 61 60 55 51 51 44 41
14 10 8 9 12 16 28 41 40 38 45 52 52 46 45 48 44 41 46 49 54 54 51 52 65 68 66 65 63 58 62 68 66 63 60 61 63 65 59 52 55 51 44
11 10 9 10 11 12 16 17 30 25 21 22 26 40 52 48 46 47 44 46 51 51 53 56 52 64 71 74 70 68 68 68 67 67 65 64 65 68 64 54 59 56 51
10 11 12 12 13 13 14 15 15 19 18 15 14 18 23 40 51 47 44 49 47 58 58 58 64 63 69 76 75 78 71 65 67 73 70 68 70 73 70 60 61 61 58
12 14 14 15 16 17 18 18 20 22 25 29 29 26 26 28 31 36 44 44 51 54 70 71 66 70 74 73 74 70 78 80 76 74 75 76 81 78 75 70 65 65 63
16 17 20 21 20 18 18 18 20 24 28 30 31 27 21 18 16 24 38 43 49 56 65 77 82 79 72 73 72 73 74 77 82 85 85 86 94 81 82 84 78 75 70
25 25 24 21 18 18 18 18 17 17 17 18 19 19 18 18 17 40 38 45 55 55 64 69 71 78 77 74 73 79 84 87 87 96 98 94 96 99 97 95 91 86 81

GFSSE_700_rhum_039.txt.gz
RH
33 32 33 33 35 32 31 32 25 20 22 24 24 22 18 14 16 12 8 7 5 5 5 5 6 7 8 8 9 11 13 15 16 20 29 38 15 10 9 9 10 12 12
33 32 35 34 36 37 32 32 36 33 23 24 24 23 20 16 16 13 9 8 8 6 8 7 6 6 7 8 9 10 11 11 11 12 12 10 9 9 11 12 12 11 12
33 33 34 35 37 38 38 37 30 34 32 25 26 24 21 18 17 17 12 9 8 9 9 9 10 10 10 9 8 8 8 8 8 9 10 11 12 12 11 12 15 14 13
32 34 33 35 38 39 38 38 40 32 34 30 25 27 24 20 18 20 21 18 12 9 10 10 10 10 11 11 11 11 12 12 12 12 12 12 13 15 15 15 15 15 14
33 33 33 35 38 39 39 38 38 40 35 34 25 26 28 27 22 19 17 19 22 23 22 21 20 19 18 17 16 16 16 17 17 17 16 16 16 17 17 17 17 17 17
36 33 34 34 36 38 38 38 38 38 40 36 37 28 31 30 31 30 27 24 21 19 18 18 18 18 18 18 18 18 19 19 20 21 20 20 20 20 20 20 19 19 18
32 34 34 34 36 36 38 38 39 39 40 40 38 39 33 37 38 35 33 32 33 33 33 31 30 27 25 24 24 23 23 23 22 22 21 21 20 19 18 18 18 19 19
26 38 37 35 35 36 36 37 38 39 40 41 41 42 41 33 37 42 44 42 40 38 36 35 33 32 34 34 34 34 34 33 32 31 30 28 27 26 24 23 21 20 19
42 44 41 35 35 35 36 36 37 38 40 41 42 42 42 42 40 39 40 46 47 47 46 46 45 43 40 35 33 32 33 32 32 33 33 32 31 30 28 25 23 21 19
47 44 38 35 35 36 35 37 36 37 39 41 41 42 43 42 43 43 43 43 42 46 48 48 48 48 49 48 48 46 46 45 44 41 36 31 29 29 26 26 26 23 20
41 44 47 45 41 37 36 35 38 38 38 40 41 42 44 44 44 43 44 44 44 44 44 46 48 49 49 50 50 50 50 49 49 50 50 48 39 31 29 26 25 25 23
33 32 30 37 41 42 39 37 36 39 40 38 39 40 42 44 45 44 44 44 45 45 46 46 46 46 48 48 48 49 50 50 49 50 50 51 50 43 34 31 27 26 25
29 26 23 23 34 38 45 43 40 38 41 43 40 40 42 44 45 45 45 44 45 45 46 46 47 47 46 44 43 44 46 48 48 50 50 51 51 51 43 35 31 27 27
30 29 27 24 24 30 37 43 45 46 42 40 45 47 47 49 51 52 51 49 47 45 45 46 46 47 47 46 45 45 44 43 42 46 50 51 52 52 51 39 36 30 28
33 33 33 31 28 26 24 30 34 36 42 47 45 47 54 58 59 58 58 58 55 51 48 45 46 47 47 47 47 47 47 46 45 44 47 51 51 53 53 47 38 35 30
37 38 37 37 37 34 26 24 26 31 36 39 43 50 51 50 50 49 51 55 59 60 56 53 50 48 48 48 48 48 48 48 49 48 46 50 52 54 54 54 42 40 34
38 39 39 39 37 32 26 29 29 33 32 33 38 40 40 40 39 39 39 42 47 54 59 59 59 59 57 54 51 50 49 50 51 51 51 50 53 55 56 56 49 43 39
31 34 34 34 34 24 22 31 33 37 37 37 37 38 38 38 37 35 35 35 40 42 46 52 58 62 62 61 62 60 58 55 56 55 53 52 54 55 59 58 56 45 45
25 22 22 20 17 18 26 30 35 41 40 41 39 40 44 44 41 43 43 39 36 44 45 51 56 55 52 53 60 63 63 59 56 54 52 55 56 56 60 62 62 50 48
22 20 22 17 13 12 13 21 32 37 36 40 44 45 45 45 46 48 46 48 46 46 54 53 52 55 52 56 66 63 61 58 55 52 55 60 61 59 60 66 66 57 51
28 24 20 17 16 12 10 10 12 19 33 45 48 46 49 49 47 43 47 51 53 49 47 49 51 57 56 62 75 72 71 71 66 60 63 66 65 66 62 68 70 65 56
23 23 21 17 14 12 11 11 10 10 10 13 20 34 40 41 40 38 38 42 49 51 54 55 57 58 56 61 67 74 78 78 72 68 66 68 69 70 68 68 72 72 62
16 17 15 13 12 12 13 14 14 14 13 13 14 16 19 25 32 36 33 42 39 46 47 56 64 62 65 64 69 74 75 75 77 74 76 76 74 75 73 72 77 79 72
16 14 13 13 13 14 14 15 16 17 18 20 20 21 21 25 29 33 40 40 43 48 45 47 54 57 61 68 76 74 75 79 81 79 71 76 81 82 84 83 90 89 82
14 14 13 14 16 18 19 20 18 18 19 20 22 23 21 18 18 20 22 23 31 41 52 52 52 55 59 88 92 78 85 86 84 83 82 77 80 87 98 98 100 100 88
16 17 18 20 21 20 20 19 18 18 17 16 16 17 17 17 17 16 16 18 31 45 46 56 65 67 69 99 99 99 99 91 91 89 80 84 91 90 93 100 100 100 100

GFSSE_700_rhum_045.txt.gz
RH
34 35 38 39 35 33 29 28 29 24 24 24 23 20 16 15 14 10 8 6 7 6 6 7 8 8 8 8 11 34 40 29 17 14 20 25 15 10 9 11 12 12 12
36 32 36 40 40 40 39 33 22 27 22 22 23 21 18 16 15 12 8 7 8 8 8 6 7 8 8 9 9 11 12 13 11 10 9 9 10 12 12 12 13 14 13
37 35 36 39 40 40 40 40 37 22 20 20 23 22 20 18 18 18 12 9 10 10 10 10 10 10 10 10 10 10 11 12 12 12 12 12 13 14 15 15 15 15 15
36 37 38 39 39 40 40 40 40 38 26 22 22 24 24 21 18 17 20 21 20 17 15 13 12 12 12 11 12 13 14 14 16 16 17 17 17 17 18 18 18 18 18
36 34 36 38 40 40 40 40 41 40 39 32 27 24 24 26 27 26 22 19 18 18 18 18 18 18 17 17 17 18 19 20 20 21 22 21 21 20 20 19 19 18 18
35 34 34 37 40 40 40 39 40 41 41 40 37 29 31 26 26 28 29 30 30 30 30 30 29 29 28 27 26 26 27 28 29 29 30 29 29 28 26 25 23 21 20
34 34 34 35 38 40 40 39 40 41 41 41 40 40 36 34 39 32 28 31 32 32 32 31 29 29 29 29 30 31 30 30 30 30 29 28 28 28 27 27 25 24 22
33 34 35 35 36 38 39 39 40 41 42 42 42 41 41 42 41 43 45 40 32 30 31 33 35 37 39 39 38 40 39 38 37 37 37 37 36 30 27 26 23 24 23
38 34 34 35 36 36 37 38 38 39 41 42 42 42 42 42 42 43 44 45 45 44 43 41 36 33 32 35 35 37 44 46 46 47 46 45 43 45 41 31 27 24 23
35 32 34 35 36 36 36 36 37 38 39 41 42 42 42 44 44 44 44 45 46 46 46 45 45 44 42 40 39 38 38 38 40 41 43 46 48 48 45 46 35 30 26
31 30 32 37 36 36 36 36 36 36 37 39 41 43 43 44 44 45 45 45 46 47 47 48 48 48 47 46 45 43 43 43 42 42 42 44 45 46 48 48 49 38 32
44 45 45 45 38 36 36 36 36 36 37 37 38 39 41 42 43 44 44 45 45 45 45 46 46 47 48 48 48 47 46 46 46 46 46 46 45 45 47 50 49 49 38
44 44 44 43 42 42 42 40 39 38 38 39 40 40 39 39 40 42 43 44 45 45 45 45 45 45 45 46 47 48 48 48 48 48 48 48 48 47 48 48 51 53 51
33 32 30 29 30 34 39 42 44 45 45 42 40 42 43 42 41 43 46 50 54 56 57 55 52 49 47 46 46 47 47 48 49 49 49 50 50 50 50 49 50 54 55
35 33 32 29 27 26 26 28 30 36 40 42 46 47 46 47 50 55 60 62 62 61 61 64 64 64 62 58 55 52 50 50 50 50 50 50 50 51 52 52 52 54 57
36 34 33 31 32 33 33 30 29 28 26 25 32 38 42 48 53 55 56 53 50 46 43 43 45 49 54 59 64 68 69 66 63 59 55 53 52 52 53 53 53 55 57
38 38 36 34 35 35 37 37 36 33 25 22 33 42 41 41 40 42 44 43 38 36 35 32 31 32 35 41 48 58 65 68 67 65 64 63 61 58 59 58 55 55 58
40 39 39 37 37 38 38 39 38 34 26 20 24 32 38 39 44 42 37 38 39 41 38 32 35 36 32 36 44 50 53 56 58 58 58 62 66 64 62 62 60 58 59
38 40 40 39 39 39 39 39 37 34 26 20 22 26 34 37 41 40 37 37 41 42 43 46 44 45 45 43 46 48 49 52 54 53 56 64 66 65 64 63 67 67 64
28 28 31 33 33 32 32 31 29 26 19 16 18 22 30 33 35 37 39 45 50 53 50 49 43 40 48 53 57 58 54 52 55 59 58 62 69 74 76 75 76 78 75
36 29 26 25 24 24 22 21 20 20 20 18 17 18 20 29 40 40 46 44 42 37 38 38 41 48 56 64 61 62 72 75 72 72 71 65 63 66 76 83 81 83 87
35 30 30 32 31 30 30 29 27 24 21 19 16 13 13 15 17 22 24 43 44 41 40 40 32 34 38 51 72 69 69 67 66 72 70 70 72 72 75 81 84 86 88
36 36 36 35 36 35 32 29 26 24 21 18 15 13 13 14 15 20 20 19 20 22 27 26 26 29 47 40 40 63 64 58 56 55 63 68 74 82 86 88 87 87 87
38 37 34 32 26 22 22 23 22 18 16 14 12 12 13 16 18 21 23 25 28 31 34 36 37 36 36 41 39 44 46 49 53 46 73 73 66 76 93 98 98 94 99
33 28 25 22 18 17 16 16 15 15 14 14 14 14 16 19 19 18 19 20 24 27 29 26 22 21 32 41 53 66 55 63 81 90 67 67 82 75 97 97 99 98 100
24 24 22 18 16 16 15 13 13 14 15 17 19 20 19 18 18 18 17 17 18 20 22 25 27 31 39 78 65 57 58 47 44 43 39 36 40 41 51 78 81 74 86

GFSSE_700_rhum_048.txt.gz
RH
30 25 34 38 36 34 24 24 26 23 23 23 21 18 16 14 12 8 6 7 7 6 7 8 9 9 12 11 12 25 29 17 12 12 13 12 10 10 12 12 12 13 14
33 33 30 39 40 40 38 30 20 20 22 23 22 20 18 18 15 10 9 9 9 9 9 8 7 8 9 9 10 11 11 10 10 11 12 12 12 13 13 14 14 14 14
35 35 32 38 40 40 40 38 32 21 19 21 24 22 20 18 18 19 16 13 12 11 11 11 11 11 12 12 12 12 12 13 14 15 16 17 17 16 16 16 17 17 17
38 35 32 37 40 40 40 40 40 38 29 22 21 23 24 24 21 18 18 19 19 19 19 18 18 18 18 18 18 18 18 19 19 20 21 22 21 20 20 19 18 18 18
38 38 36 37 40 40 40 41 41 40 40 35 25 26 24 25 26 27 28 28 28 27 26 25 24 24 24 24 24 25 26 27 29 30 30 30 29 28 27 26 24 23 22
36 36 36 37 40 40 40 40 41 41 41 40 40 30 34 36 28 27 28 29 29 28 28 28 28 29 31 32 32 33 32 32 31 30 29 27 26 25 25 25 25 24 23
35 34 35 36 39 40 40 40 41 42 42 42 41 41 39 35 44 43 38 32 30 30 30 31 32 31 31 32 33 34 36 38 40 39 38 38 38 38 30 25 24 24 24
35 34 34 35 37 40 40 40 41 42 43 43 43 42 42 42 41 43 45 46 45 46 46 42 35 31 29 31 32 34 37 39 41 42 44 46 45 43 43 42 32 28 25
34 35 35 35 36 38 39 40 40 41 42 43 43 43 44 43 43 43 44 45 46 46 47 48 48 49 47 44 41 40 40 38 37 37 38 40 40 41 46 43 42 36 30
35 34 35 36 36 36 37 38 38 39 40 42 43 43 43 44 45 44 45 45 46 47 47 48 48 47 47 46 46 44 44 44 44 44 44 44 43 43 39 42 43 42 39
38 37 35 35 36 36 36 36 37 38 38 39 41 42 43 44 44 45 46 46 47 47 47 47 48 48 49 49 48 48 47 47 47 46 46 46 47 47 46 44 44 49 47
32 35 33 34 35 36 36 36 36 36 36 37 37 39 41 42 43 43 43 44 44 45 46 46 46 45 46 46 47 48 49 49 49 49 49 48 48 49 49 48 47 48 51
44 36 36 40 43 39 36 36 37 37 37 38 39 39 38 39 40 40 41 43 44 44 46 48 49 50 49 49 48 47 47 47 48 49 49 50 50 50 50 50 50 49 50
51 49 47 45 42 40 40 42 42 42 42 41 40 41 42 42 41 41 42 44 49 56 61 64 63 62 60 60 58 56 52 50 50 50 50 51 51 51 51 52 52 51 51
38 35 34 34 36 36 35 34 35 38 41 43 44 46 47 46 47 49 52 58 64 63 60 58 56 54 54 56 60 64 66 66 63 61 59 56 54 53 52 52 53 54 53
38 35 33 32 30 29 27 26 26 25 25 25 25 30 38 44 49 54 56 57 56 52 47 42 37 34 33 33 38 45 52 58 62 66 68 68 67 64 60 58 58 58 57
39 37 34 33 31 32 34 35 35 35 34 32 26 23 28 38 44 44 44 44 46 43 39 38 39 38 34 36 36 37 46 51 55 58 58 59 61 64 68 70 68 65 61
44 40 38 38 36 35 36 38 38 39 39 36 32 20 23 30 36 37 42 46 42 40 38 41 42 40 45 44 43 43 42 50 57 58 55 54 58 64 68 70 70 68 65
43 41 40 40 39 39 39 40 40 39 38 38 34 25 25 30 33 35 37 40 42 42 42 45 48 53 51 46 40 48 54 52 52 53 55 59 60 62 67 74 78 79 76
37 37 38 36 36 39 41 42 42 42 36 35 30 24 24 24 24 25 29 33 36 44 51 58 55 50 43 36 40 54 62 67 73 67 69 72 77 77 72 69 72 80 84
43 38 34 29 27 28 28 27 26 24 23 22 22 22 22 21 19 18 20 34 42 43 44 36 32 34 41 44 39 33 46 61 66 64 63 70 71 73 78 74 76 75 84
42 42 39 36 32 30 31 31 31 30 30 29 27 24 23 20 16 13 20 22 24 25 34 51 36 32 28 32 29 33 31 33 39 53 65 67 68 67 65 75 82 86 86
40 36 34 34 34 35 36 36 35 33 31 27 25 25 22 19 15 15 23 17 19 19 20 22 25 28 32 31 34 39 41 33 41 39 42 38 42 55 64 71 71 87 96
38 35 35 35 35 36 36 33 25 21 19 18 18 18 17 15 15 14 16 19 21 22 23 28 34 34 32 30 24 22 25 31 48 64 54 52 55 76 72 67 74 81 93
39 36 33 32 31 31 28 21 18 17 16 15 13 13 13 14 16 17 18 18 18 18 19 21 27 21 21 21 26 31 40 71 77 55 43 43 40 37 37 37 39 45 55
41 37 34 32 30 27 24 21 16 15 14 13 13 14 15 16 18 19 19 19 19 18 18 20 22 24 30 51 46 49 54 71 41 35 35 36 37 39 41 42 42 45 48

GFSSE_700_rhum_051.txt.gz
RH
28 29 31 33 32 24 20 22 21 22 22 21 18 17 16 11 8 8 8 8 7 7 8 9 9 12 19 11 12 20 14 11 10 10 10 11 12 12 13 13 14 14 14
34 34 32 37 39 36 28 19 19 21 23 22 20 18 19 17 13 10 10 10 10 10 9 9 9 9 10 10 10 11 12 13 13 14 15 16 16 16 16 16 17 17 17
35 34 33 38 40 40 39 35 28 19 19 22 23 22 19 18 18 19 19 18 17 14 13 12 12 12 12 12 14 16 18 18 18 19 20 20 20 20 20 19 19 19 18
34 32 32 39 40 41 41 40 39 32 20 20 20 22 25 25 23 20 20 19 19 18 18 18 18 18 18 19 20 22 23 24 26 28 29 28 28 27 26 25 24 23 21
36 33 33 39 40 41 41 41 41 40 36 26 26 26 24 25 26 27 28 28 28 28 28 28 28 28 29 30 30 31 31 30 30 29 28 27 26 25 25 25 25 24 23
38 37 36 38 40 41 41 41 42 42 41 40 38 30 41 40 33 29 28 27 27 27 26 27 27 27 26 27 27 28 30 31 33 34 34 34 32 28 28 25 22 22 22
38 38 37 37 40 41 41 41 42 42 43 42 42 41 36 34 44 45 45 46 43 41 36 32 30 31 31 32 32 33 34 34 35 36 37 36 38 37 34 35 31 27 25
37 38 38 36 39 41 40 41 41 42 43 43 44 43 43 43 42 40 44 46 47 48 48 48 48 47 44 42 42 41 40 40 40 39 39 39 38 39 41 42 40 38 31
35 35 36 37 38 40 41 40 41 42 43 43 43 44 44 43 44 44 45 45 46 47 48 48 49 49 49 48 46 45 45 45 45 45 45 46 45 45 44 40 43 44 43
34 34 35 35 36 38 39 40 40 40 42 43 43 43 44 45 46 46 46 46 47 47 47 48 48 49 49 49 49 49 48 48 47 47 46 46 47 48 48 47 44 40 45
35 35 35 35 36 36 36 38 38 39 40 40 42 43 43 44 44 45 46 46 47 48 48 47 47 48 48 48 48 48 49 49 49 50 49 49 49 49 49 50 50 48 42
40 36 35 35 36 36 36 36 37 37 37 38 38 40 41 42 43 43 43 43 44 44 45 47 48 48 49 50 51 50 49 48 48 48 49 49 50 50 50 51 51 51 50
41 40 38 36 35 36 37 37 36 36 36 36 37 38 38 39 40 40 41 42 42 43 44 47 52 55 54 55 55 55 55 55 52 49 50 51 51 51 51 52 52 52 53
37 34 36 38 36 38 38 36 36 37 38 38 39 40 41 41 40 40 40 41 43 48 57 63 64 63 61 58 58 59 60 62 63 62 60 58 57 57 56 54 54 53 53
54 52 50 49 48 44 39 38 41 43 44 45 46 46 46 47 46 47 48 52 56 61 62 58 56 52 46 39 36 36 39 44 51 54 59 63 67 68 67 65 62 60 58
50 45 45 45 45 44 43 40 37 36 32 30 29 28 30 36 43 48 52 55 56 55 52 48 43 39 36 35 35 34 35 34 36 40 44 52 59 62 65 66 68 70 68
59 42 38 36 33 30 28 28 28 29 31 33 32 31 27 23 29 38 42 43 44 42 44 42 39 37 38 39 38 43 42 41 41 44 47 51 52 54 56 60 66 69 68
59 41 40 36 34 32 33 34 35 36 37 38 38 36 33 21 23 29 34 39 44 47 43 41 39 38 40 44 49 51 47 45 49 52 49 51 51 52 58 60 62 68 72
66 49 40 37 37 36 35 36 38 38 39 40 40 40 39 33 27 28 32 36 41 43 41 39 39 42 47 54 55 50 44 43 46 56 60 69 76 75 74 74 70 68 73
52 48 44 41 41 41 40 40 40 40 42 42 42 40 36 29 24 23 24 28 34 35 38 42 46 50 55 46 39 38 44 46 40 46 59 67 64 64 72 76 86 83 76
40 39 39 39 38 36 36 39 40 40 37 32 29 26 24 25 25 24 21 17 17 19 27 30 33 37 28 50 53 30 25 28 28 33 35 42 52 61 71 68 73 73 77
48 46 43 41 38 36 33 28 28 27 27 28 30 30 30 28 27 25 23 19 16 21 22 25 34 32 31 25 25 22 23 24 30 31 34 43 45 50 58 57 56 59 65
53 53 47 40 37 35 33 32 32 31 31 32 31 28 25 23 22 22 21 20 30 27 24 20 20 31 23 22 26 28 26 22 18 20 30 35 42 58 52 55 55 70 88
53 54 47 40 38 37 37 36 36 36 34 27 21 17 16 17 16 16 16 16 16 16 18 20 21 21 21 20 20 22 23 22 28 31 39 65 57 43 34 36 38 38 39
43 42 39 38 38 39 38 38 35 32 26 21 18 16 15 13 13 13 13 14 16 18 18 19 20 20 20 19 19 21 27 43 45 43 40 42 35 37 39 40 37 36 34
43 41 39 38 40 39 37 35 31 26 23 19 15 13 12 12 12 13 14 16 18 19 20 20 19 19 20 23 34 36 49 76 41 38 37 37 37 37 34 34 34 32 32

GFSSE_700_rhum_054.txt.gz
RH
26 26 25 20 17 20 20 20 21 21 20 18 17 15 10 9 8 8 7 7 8 9 16 14 27 45 34 12 12 14 10 11 12 12 13 13 14 14 15 15 16 16 16
32 30 31 30 25 20 18 18 20 22 21 19 18 18 16 14 11 10 10 10 9 8 8 8 9 10 10 10 11 12 13 14 16 16 16 16 17 18 18 18 18 18 18
35 32 36 38 37 36 32 20 18 20 22 23 21 18 17 18 18 19 18 16 13 12 11 11 11 12 12 13 16 18 19 20 20 21 22 22 22 22 22 21 20 20 19
34 32 36 40 40 40 40 37 24 21 21 22 24 24 24 24 22 20 19 19 18 18 18 18 18 18 19 21 23 26 28 28 28 28 27 27 26 26 25 25 24 24 23
33 30 35 39 41 41 41 41 40 34 26 26 24 24 25 26 26 27 27 28 28 28 28 28 28 29 29 30 29 28 27 27 27 27 27 27 24 22 21 21 21 21 22
33 31 35 38 40 41 41 41 41 41 40 35 28 36 36 33 29 29 28 28 29 29 29 28 28 28 29 30 30 31 32 32 32 32 33 31 30 29 30 30 26 24 23
36 35 35 36 39 41 41 42 42 42 42 42 40 36 32 41 45 46 46 46 46 46 43 40 38 38 38 37 37 37 37 37 36 36 37 36 34 33 35 38 38 36 30
37 38 38 37 37 40 41 42 42 43 43 43 43 42 42 43 41 37 43 46 47 48 48 48 48 48 47 46 45 45 45 45 45 45 46 46 44 43 42 40 37 39 39
38 39 39 39 39 40 40 41 42 42 43 43 44 44 44 44 44 45 46 44 45 46 47 48 49 49 49 49 48 48 48 48 47 47 47 47 47 48 48 49 47 42 38
36 38 38 39 40 40 40 40 41 42 43 43 43 44 44 45 46 46 46 46 46 48 47 47 47 48 48 48 49 49 49 49 49 49 50 49 49 49 49 50 50 50 48
34 35 36 37 38 39 39 40 40 40 41 42 43 43 43 44 44 45 45 46 46 47 48 48 48 47 47 48 50 50 49 49 49 48 48 49 50 50 50 51 51 51 51
34 34 34 35 35 36 36 37 39 39 39 39 40 41 42 42 43 43 43 43 44 44 44 45 47 50 51 51 52 53 52 52 52 52 51 50 51 52 52 52 52 52 52
41 36 35 35 35 36 36 36 36 38 37 37 37 37 38 39 40 40 41 41 41 42 43 45 49 56 60 57 58 59 58 60 60 60 60 59 59 57 57 59 58 56 54
53 48 43 37 36 36 37 37 37 36 36 36 37 37 38 39 39 39 40 40 41 42 45 52 60 61 56 54 50 45 37 33 33 36 42 54 61 64 65 65 65 64 62
43 43 43 42 40 39 38 38 37 36 37 38 39 40 42 44 44 44 45 45 48 53 57 60 57 54 49 41 38 34 33 31 29 30 32 36 45 51 58 60 60 63 65
56 53 49 45 47 45 45 40 37 37 41 44 46 44 39 35 37 41 46 50 53 55 55 52 46 43 40 37 37 38 37 36 40 40 38 37 40 45 48 51 54 56 57
66 63 59 51 49 47 42 41 44 44 41 32 27 28 29 30 26 24 30 40 43 42 39 38 40 39 37 37 39 42 43 48 50 46 40 42 46 47 51 52 52 54 56
68 59 57 48 47 45 43 38 32 28 29 32 36 37 38 38 35 24 24 32 34 32 32 34 38 38 39 41 43 48 54 55 52 47 42 45 54 58 60 63 64 63 63
70 60 54 50 44 37 33 33 33 34 36 38 39 40 42 42 41 36 27 28 31 29 29 34 39 42 42 45 51 58 61 49 42 44 46 44 45 65 72 74 69 74 74
70 64 56 51 44 40 37 36 36 37 39 40 41 42 43 42 39 31 27 24 26 25 27 29 33 36 48 54 50 45 38 47 51 27 28 29 31 36 43 59 69 72 75
73 70 61 58 53 46 47 45 43 42 41 41 40 40 37 32 26 24 24 24 25 23 22 24 23 23 29 30 30 34 35 27 26 31 32 36 38 39 40 40 43 59 66
56 53 48 46 44 41 39 35 33 32 33 32 29 27 27 28 30 30 30 28 27 25 27 32 28 32 33 28 26 33 28 23 23 24 24 22 22 29 33 39 52 53 49
50 47 45 44 44 44 44 42 38 36 33 31 32 34 33 32 30 26 22 21 21 23 25 25 30 40 38 34 27 30 22 23 22 20 20 25 35 38 60 62 46 37 36
52 52 49 47 46 42 39 37 34 34 33 33 32 31 29 24 18 15 14 14 14 15 16 17 18 20 21 21 20 19 19 19 19 22 34 48 37 38 36 34 34 35 35
54 52 50 49 47 40 38 35 34 34 35 35 32 29 24 19 16 13 12 12 13 14 16 18 19 20 21 22 20 18 19 22 31 41 54 52 30 38 40 40 34 24 27
56 54 50 49 46 40 36 38 40 37 34 33 29 24 22 19 15 13 13 13 14 15 17 19 20 20 18 18 20 32 30 45 52 57 75 41 34 37 40 27 26 28 30

GFSSE_700_rhum_057.txt.gz
RH
23 20 14 13 19 19 19 20 20 18 17 16 12 10 9 8 7 7 7 9 26 45 55 70 72 64 26 10 11 10 11 12 13 13 14 15 16 16 16 17 17 17 17
28 23 17 13 14 15 17 20 20 19 18 17 16 14 12 10 9 9 8 7 8 10 10 10 13 10 10 10 12 13 15 16 17 18 18 18 19 19 18 18 18 18 18
30 28 24 21 20 16 17 19 22 22 20 19 18 18 18 18 18 16 13 11 10 10 10 10 11 12 13 15 18 19 22 24 25 25 24 25 25 25 24 24 23 23 22
30 32 32 33 34 31 21 19 20 22 24 24 24 23 22 21 20 19 18 18 17 17 17 17 18 19 21 24 27 29 28 27 26 24 23 23 22 21 21 21 22 22 22
32 35 37 38 39 39 38 36 27 23 23 22 24 25 26 27 27 28 28 28 27 28 28 28 29 29 29 28 28 28 28 28 29 27 27 26 26 25 25 25 22 21 20
32 35 37 39 40 40 40 41 40 38 28 26 30 28 27 26 27 27 27 27 26 26 26 27 28 29 28 28 28 28 30 31 31 32 32 30 28 27 28 28 29 28 26
32 35 38 37 40 40 41 41 42 42 41 39 31 30 38 42 44 45 46 46 44 43 43 43 44 44 45 45 45 45 46 46 46 46 46 46 44 42 40 37 32 29 30
33 35 39 37 39 40 41 42 42 42 43 42 42 41 38 39 37 41 45 47 47 48 48 48 48 48 48 48 48 48 48 48 48 47 47 48 48 48 49 49 49 46 40
36 36 39 39 38 40 41 42 42 42 43 43 43 44 44 44 44 44 44 43 42 43 46 47 48 49 49 49 49 50 50 50 50 50 50 50 50 50 50 50 50 51 51
37 37 39 40 40 40 40 41 42 42 42 43 44 44 44 45 45 46 46 46 47 48 48 47 47 47 47 48 49 50 50 49 49 49 49 49 50 50 51 50 51 51 52
37 38 41 39 40 41 41 41 41 42 43 43 43 43 44 44 44 45 45 46 46 47 47 48 48 48 49 50 50 51 52 52 52 52 52 51 51 52 52 53 52 53 53
35 38 42 42 38 39 40 40 40 41 41 41 41 42 42 43 43 43 44 44 43 43 44 44 45 46 49 54 54 54 57 56 55 54 52 52 53 55 56 56 57 59 58
34 37 40 42 40 38 38 39 39 40 39 39 38 38 39 40 40 40 40 41 41 41 41 42 44 49 57 59 55 52 47 42 35 31 29 30 34 41 45 48 52 57 59
44 38 35 35 38 37 37 36 37 38 38 37 37 36 37 37 38 38 39 40 40 40 42 44 50 56 58 54 48 39 35 32 32 32 29 33 32 31 32 36 43 47 48
56 49 44 41 37 37 38 36 36 36 36 36 36 36 38 39 41 42 43 44 44 45 48 52 56 56 51 44 38 35 33 34 36 37 41 40 39 38 38 38 38 41 45
48 53 53 51 48 42 39 38 39 38 37 36 37 38 43 45 41 36 37 41 44 47 50 50 49 44 41 40 38 36 35 37 41 47 49 45 41 37 42 47 48 47 46
45 54 58 48 44 46 46 44 42 39 37 37 42 45 34 27 28 30 27 23 30 36 39 38 38 38 40 40 38 38 38 43 48 55 52 42 37 39 44 50 59 61 65
49 48 52 46 44 48 46 51 44 39 40 45 39 28 33 37 38 38 36 31 24 25 28 31 32 32 33 36 38 41 47 49 54 56 45 47 48 42 43 43 60 67 70
59 60 60 55 55 51 49 45 43 45 41 30 32 37 39 40 40 40 40 38 34 27 24 26 26 26 26 33 38 40 45 53 45 39 38 40 25 24 30 30 31 39 52
63 66 62 54 52 52 48 44 39 35 33 36 38 40 40 40 41 42 41 37 32 28 26 26 29 36 40 37 24 25 31 29 31 31 34 28 30 30 28 31 33 38 41
70 71 66 56 51 49 46 42 38 38 39 41 41 41 41 41 41 37 30 25 26 27 29 29 32 33 35 36 37 34 36 33 30 30 23 26 29 24 22 23 28 32 36
74 68 70 60 54 51 46 47 48 46 45 43 43 41 40 34 29 28 29 32 32 34 33 34 34 36 37 43 47 54 47 32 26 20 18 23 20 23 30 38 44 51 61
75 76 73 70 62 58 55 53 46 43 38 34 31 29 29 30 32 33 33 31 27 24 20 20 21 26 26 24 26 28 28 22 22 24 18 18 25 42 48 38 36 35 37
66 66 65 58 50 46 43 42 41 42 40 38 37 35 34 33 33 33 30 23 17 14 14 13 14 16 18 20 21 21 22 22 20 20 22 31 41 64 44 30 30 31 32
66 56 53 51 47 48 48 45 42 39 37 34 34 35 35 33 31 29 25 21 18 14 12 12 13 16 18 20 21 22 20 19 22 28 36 51 51 59 54 34 32 32 20
70 59 64 57 50 50 49 49 43 41 40 43 44 37 34 31 28 23 20 17 14 13 12 13 15 18 20 20 19 19 21 27 34 44 66 66 48 46 39 36 34 24 23

GFSSE_700_rhum_060.txt.gz
RH
20 16 14 16 17 17 17 18 16 15 14 10 9 8 7 6 7 8 14 50 74 84 84 82 77 52 10 10 10 11 12 13 14 14 15 15 16 16 17 17 17 17 18
24 16 12 14 15 16 16 16 17 16 16 14 12 10 9 9 8 7 9 17 20 24 31 28 14 9 10 12 13 15 17 19 20 21 22 22 23 23 23 22 22 21 21
25 18 12 12 13 13 15 16 17 18 17 17 17 17 17 15 12 10 10 9 9 9 9 10 11 12 16 18 20 24 25 26 25 25 23 22 22 22 22 22 22 22 22
26 23 19 18 15 13 14 15 17 20 20 20 19 18 18 18 17 17 17 16 15 15 16 17 18 21 24 27 27 26 24 22 23 21 21 23 23 23 22 22 22 20 19
30 30 29 29 28 25 21 16 17 18 20 23 24 24 25 26 26 25 25 24 25 25 26 27 28 26 25 24 25 25 25 25 27 26 27 27 27 27 26 26 26 27 26
33 35 35 35 36 37 37 36 29 20 20 22 22 22 23 24 24 24 24 23 24 24 24 25 25 26 28 33 38 42 43 45 46 46 47 47 48 47 45 42 36 29 27
32 37 38 36 38 39 39 40 40 40 37 29 24 30 32 34 37 37 38 38 38 40 42 44 45 46 47 48 48 49 49 49 49 49 49 49 50 50 50 50 50 51 48
36 38 39 38 38 39 40 41 41 42 42 42 40 38 36 33 35 39 42 44 45 47 48 48 49 50 50 50 51 51 51 51 51 51 51 51 51 51 51 52 52 52 52
38 38 40 40 39 40 41 42 41 42 42 43 44 44 44 44 44 44 44 44 44 43 42 42 44 46 47 48 49 49 49 48 47 47 47 48 50 51 51 51 52 52 54
36 39 40 41 40 40 40 41 42 42 42 43 44 44 44 45 46 46 47 47 48 48 49 48 49 49 49 50 50 50 51 52 53 53 54 55 56 55 53 54 54 54 55
36 39 40 41 41 41 41 42 42 42 42 43 43 44 44 44 44 45 46 46 46 46 47 47 47 48 49 51 52 54 52 54 52 45 42 38 34 34 37 43 53 58 59
37 38 40 41 41 41 41 42 42 42 42 43 42 42 42 42 43 43 43 44 43 43 43 43 44 45 46 52 60 57 50 42 35 31 30 29 28 30 29 28 32 38 47
38 40 42 42 40 40 41 41 42 42 41 40 40 40 39 39 40 40 40 40 40 41 41 41 42 45 51 57 55 46 39 33 31 30 32 33 37 36 34 32 33 33 34
59 37 44 45 43 40 39 39 40 41 40 40 39 38 37 37 37 38 39 40 41 42 43 43 45 50 54 54 49 38 32 31 30 31 36 41 42 39 34 32 35 41 42
58 38 40 44 43 43 40 37 37 38 38 38 37 37 36 37 38 41 42 41 42 41 42 46 48 48 45 40 36 33 32 32 33 34 40 48 49 40 36 36 38 40 50
50 52 42 41 39 37 37 38 39 37 37 37 37 37 37 38 43 42 26 25 25 24 27 32 32 33 33 31 32 34 32 32 36 40 46 47 46 39 48 46 45 45 43
60 60 55 51 50 47 42 40 38 39 39 38 38 37 38 45 30 29 32 34 32 28 21 20 22 23 25 27 28 30 28 34 40 46 42 35 29 29 38 30 27 33 34
50 48 55 55 54 51 50 46 44 43 41 40 38 38 46 30 33 35 37 37 38 37 34 29 24 24 23 21 24 30 39 32 31 27 28 29 29 30 22 24 27 31 32
51 55 53 46 49 50 44 42 45 48 47 41 40 45 30 35 36 37 38 40 42 41 36 28 26 25 25 31 38 38 46 33 32 30 31 25 28 24 23 24 26 24 28
58 52 55 52 49 46 43 47 50 50 43 44 44 32 35 37 37 38 39 41 40 36 27 27 28 31 32 32 34 35 34 34 36 52 40 22 22 21 23 20 19 22 23
64 58 59 59 61 58 55 51 48 48 47 40 34 36 38 39 40 37 37 36 28 26 30 33 36 36 35 38 37 46 45 54 53 46 19 19 18 19 19 21 34 40 37
71 67 65 65 66 59 53 52 50 47 43 43 43 41 42 42 40 34 29 27 29 32 32 32 30 28 23 23 22 28 23 18 20 20 18 18 19 20 23 35 47 42 36
74 70 70 69 70 62 55 52 48 45 47 51 56 46 38 33 30 29 29 30 30 32 30 25 19 17 15 14 16 19 20 20 19 19 22 20 21 23 35 47 59 44 32
73 69 72 71 71 69 60 55 57 61 59 58 52 39 38 36 34 33 33 32 32 32 28 23 20 17 14 14 15 18 21 23 22 21 23 25 31 34 52 51 36 44 33
65 73 72 76 78 75 73 65 61 58 48 43 42 41 38 36 36 37 36 33 30 27 24 20 16 14 14 14 16 19 20 21 21 22 25 31 41 55 63 53 40 40 33
62 64 71 69 68 65 56 48 49 50 48 48 43 41 40 41 41 36 34 31 26 23 22 17 14 13 14 15 17 20 20 18 21 28 36 44 67 100 94 45 42 40 31

GFSSE_700_rhum_063.txt.gz
RH
19 19 20 19 18 19 18 16 14 13 10 8 7 6 6 7 16 41 68 77 76 65 74 78 59 10 10 11 13 14 15 16 18 19 19 20 21 21 20 20 20 20 19
20 15 17 17 16 16 16 16 14 13 12 10 9 8 7 7 10 21 43 74 80 74 52 17 10 11 13 16 18 20 22 23 24 24 23 22 22 23 22 22 22 22 22
19 14 14 14 14 15 16 16 15 14 15 15 14 12 10 9 8 8 10 10 9 9 10 11 14 17 20 23 25 25 24 22 22 20 19 18 21 20 20 19 19 18 17
18 12 11 11 12 13 14 15 16 16 15 15 15 16 17 16 16 14 12 12 12 14 16 18 21 25 26 24 22 21 21 21 22 20 22 24 24 24 23 22 22 23 24
21 18 15 13 12 12 14 15 17 18 19 20 19 21 21 21 21 20 19 19 20 22 25 26 24 23 23 24 26 30 35 41 42 43 45 45 46 47 46 46 43 37 30
28 27 25 22 22 21 18 15 16 18 18 19 19 20 21 22 22 22 22 22 22 22 23 24 26 32 40 44 46 47 48 49 51 51 52 52 52 52 52 52 52 51 51
34 34 33 31 32 34 34 35 32 27 21 19 22 23 24 24 25 26 27 29 31 35 39 43 45 47 49 50 51 52 52 52 52 51 51 51 51 51 51 50 51 53 54
38 38 37 35 36 38 39 39 39 40 40 39 36 33 31 30 30 32 34 37 39 40 42 44 47 47 48 48 48 48 48 48 47 50 49 50 51 50 51 52 53 53 53
41 40 39 38 38 39 40 40 40 40 41 42 42 42 42 42 42 42 43 43 45 47 47 48 48 48 49 50 51 50 52 52 52 54 51 49 47 49 53 54 54 56 56
40 41 40 40 39 39 39 40 41 41 41 42 43 43 43 44 45 46 47 47 48 48 49 49 49 50 50 50 52 54 53 50 46 49 35 30 28 27 29 36 39 43 46
41 41 41 41 41 40 41 41 42 42 42 42 43 44 43 43 44 45 46 46 46 45 45 45 46 46 46 48 52 59 54 43 38 33 30 31 29 34 34 34 33 33 33
47 41 41 42 42 41 42 43 43 42 42 42 42 42 42 42 43 42 43 42 43 43 42 42 43 44 45 49 54 58 46 35 31 29 30 32 37 38 36 32 30 34 40
66 55 40 41 42 42 42 42 43 43 43 42 42 41 39 40 40 40 40 40 40 41 42 42 43 44 47 51 54 47 38 32 29 29 31 34 42 44 41 34 33 34 37
82 80 42 44 41 41 42 42 42 42 42 42 41 40 39 38 37 38 39 41 41 40 40 42 43 46 51 46 37 33 31 29 30 29 32 38 43 46 44 36 46 40 38
78 72 52 45 44 43 41 41 41 41 40 39 39 39 38 37 37 38 42 40 29 27 26 28 28 24 28 27 27 24 24 24 25 27 38 46 47 39 35 30 36 31 24
92 82 69 55 48 46 45 43 40 39 38 38 37 38 38 37 38 40 39 25 29 30 28 23 19 18 19 19 18 17 17 17 25 40 30 30 32 27 28 31 28 24 22
75 71 65 58 49 46 42 40 39 39 40 39 38 38 38 37 39 45 27 31 31 33 34 33 30 26 22 19 19 22 31 43 49 41 32 30 31 26 18 21 25 26 27
75 69 66 61 53 46 43 42 40 41 41 40 39 40 38 38 44 30 32 33 34 36 36 35 32 26 23 23 24 26 30 31 33 33 34 43 51 33 22 20 20 21 23
61 62 61 62 61 60 58 54 49 51 47 47 46 42 39 42 38 33 34 34 35 36 34 30 25 24 26 30 31 32 34 45 56 44 49 57 52 26 21 20 19 17 17
59 51 50 47 46 52 51 51 48 46 43 48 49 41 44 43 32 36 36 36 36 36 31 26 27 30 30 30 30 26 25 24 26 31 33 30 21 19 20 20 18 18 27
63 66 64 58 57 54 49 46 47 48 52 51 43 46 47 35 38 39 40 40 36 30 27 29 30 30 29 24 18 14 13 12 14 23 21 19 18 19 18 17 20 28 45
72 72 69 62 64 60 60 59 56 55 52 52 55 49 40 40 43 43 42 33 28 28 30 31 31 30 26 21 18 16 13 11 13 17 17 16 18 18 17 19 26 42 59
69 74 69 71 67 64 62 63 57 54 54 56 49 44 44 47 47 40 34 32 33 33 32 31 32 29 26 23 20 17 15 12 14 16 17 19 21 18 20 23 33 54 51
60 64 69 63 68 71 67 68 60 57 60 58 53 52 57 52 39 39 39 38 36 33 32 30 28 26 22 18 16 15 16 17 19 18 19 20 21 21 27 29 35 43 38
66 65 60 68 71 72 77 78 75 75 73 63 63 61 57 50 43 42 40 39 38 37 33 31 27 24 24 20 15 15 16 18 20 22 18 21 26 35 46 31 44 60 54
73 67 62 63 73 68 71 77 83 78 78 79 65 55 52 51 44 42 41 43 39 36 34 33 30 29 25 19 14 16 18 19 18 19 20 27 38 50 54 66 51 60 55

GFSSE_700_rhum_066.txt.gz
RH
18 18 19 19 23 28 17 15 14 10 8 6 6 6 11 25 66 73 73 73 75 66 81 69 13 9 11 13 16 18 20 21 22 22 22 21 21 22 22 22 22 22 22
18 17 19 20 19 19 16 15 12 10 12 9 6 6 10 21 52 71 80 78 71 78 49 10 11 13 17 20 23 23 22 20 20 19 18 17 17 17 18 18 18 17 17
18 15 17 17 17 16 15 15 13 12 11 10 8 7 7 11 28 44 51 45 27 12 10 13 17 21 24 24 22 20 21 22 22 21 21 22 22 23 22 22 22 22 22
16 14 16 16 15 16 15 15 15 15 16 15 14 12 10 9 9 10 10 10 11 15 18 21 24 24 22 20 21 25 32 36 37 40 42 45 45 46 46 44 43 38 32
14 12 13 14 14 15 16 16 15 16 16 16 16 16 16 16 16 16 17 18 20 24 26 24 22 23 26 32 39 43 46 49 52 51 52 52 52 52 52 52 52 52 51
14 13 12 12 12 14 15 16 16 17 20 20 20 21 22 22 23 23 23 23 22 22 23 27 33 40 44 46 50 51 51 50 50 47 47 47 47 48 48 47 48 51 54
20 17 16 15 14 14 14 15 16 17 17 18 18 19 19 20 21 22 22 24 26 31 36 40 44 47 48 48 48 47 43 44 47 49 50 50 50 49 48 48 50 52 52
27 26 27 27 27 28 29 29 29 29 26 23 23 24 24 24 24 26 26 28 31 32 35 38 39 41 42 47 48 50 51 52 53 50 48 42 37 33 32 34 40 44 48
33 35 35 35 36 37 38 38 39 40 40 40 40 40 39 40 39 38 40 41 44 46 48 49 50 50 50 51 52 54 54 45 44 40 35 30 28 27 30 31 31 32 35
34 39 40 39 39 40 40 40 41 42 42 42 42 42 43 44 45 45 45 45 45 46 47 48 48 48 48 48 50 56 57 44 36 34 31 30 30 34 36 35 33 33 34
37 38 40 41 41 41 42 42 41 41 42 42 42 42 43 43 45 46 46 46 46 45 45 44 44 45 45 47 51 54 53 41 31 32 29 30 35 38 38 36 33 32 34
42 39 40 41 42 42 42 42 43 42 42 42 42 42 43 43 43 43 44 43 43 43 42 43 43 43 45 47 51 47 46 35 30 32 31 32 35 39 41 40 36 42 40
79 48 40 41 42 43 43 44 44 44 43 42 42 42 42 42 41 40 40 40 40 41 41 42 42 44 45 47 43 43 36 29 27 26 29 31 39 42 39 30 33 31 42
98 86 49 41 41 42 43 43 44 44 44 44 42 41 41 40 40 39 38 40 42 36 32 31 34 35 35 34 30 25 23 25 23 22 26 37 39 32 32 26 30 46 27
94 99 86 56 42 41 42 43 43 43 43 43 42 41 40 39 38 38 38 43 34 26 27 26 22 19 20 19 18 18 17 17 19 26 39 36 27 24 28 26 20 23 37
67 85 97 74 58 43 41 42 43 42 42 42 42 41 40 39 38 38 39 44 26 29 30 31 31 29 26 22 19 18 20 26 35 39 45 34 32 36 43 25 19 20 18
82 76 94 91 93 74 48 46 44 44 43 41 39 39 38 38 38 38 42 33 30 31 31 33 33 32 28 22 23 22 25 27 31 38 44 42 42 51 49 24 17 18 20
84 80 81 77 85 87 68 58 53 44 42 40 40 41 39 39 38 38 44 31 33 33 34 34 32 29 24 24 28 30 31 31 31 32 48 42 43 39 40 21 18 18 18
70 80 66 65 77 71 58 70 54 47 47 46 45 44 44 42 39 41 39 34 37 36 36 34 30 26 27 28 28 27 25 20 17 17 21 28 32 23 22 20 17 18 17
63 73 69 77 82 73 66 64 62 59 56 52 52 49 48 44 40 46 34 37 37 38 36 31 26 27 28 29 27 24 21 17 15 13 14 16 18 19 20 20 20 19 22
64 70 74 80 64 62 61 58 57 53 53 46 46 48 52 44 44 43 37 40 41 41 31 26 28 30 28 29 26 24 22 21 18 14 13 15 18 19 19 18 19 21 27
66 64 67 74 69 59 55 57 55 57 57 53 53 54 47 44 50 39 42 43 46 38 30 31 31 30 28 28 26 24 21 19 17 14 12 15 19 18 20 22 20 24 32
70 69 70 67 70 67 68 73 68 66 60 58 53 50 48 53 48 48 47 47 42 34 35 34 33 31 30 28 27 24 21 18 14 13 13 17 20 21 23 23 22 32 44
57 58 65 66 68 70 70 76 76 74 77 74 73 70 60 59 56 58 49 41 39 39 39 37 36 34 31 29 28 28 25 20 16 13 16 20 22 22 22 23 28 33 30
66 66 63 65 69 71 75 72 75 76 87 92 90 77 80 75 79 87 91 54 44 45 44 42 38 36 36 34 32 29 24 18 16 18 18 22 22 22 23 28 30 37 40
65 66 68 73 65 64 69 74 72 84 76 80 83 88 93 90 89 89 82 58 49 49 48 44 42 41 39 36 33 29 24 19 17 19 19 20 25 26 32 34 34 42 81

GFSSE_700_rhum_069.txt.gz
RH
20 16 17 18 32 27 16 14 13 11 8 7 8 9 41 72 70 62 73 88 84 86 77 34 9 11 14 19 21 22 21 20 19 18 17 17 17 17 17 17 17 16 16
19 16 18 24 33 26 16 14 12 9 9 6 8 14 39 68 74 72 70 76 64 74 25 9 12 18 22 23 21 19 18 19 19 19 19 20 20 20 20 20 19 19 20
19 16 17 27 44 35 16 14 11 12 8 7 8 14 25 61 69 73 75 68 61 14 11 16 21 23 22 20 20 22 26 28 32 34 34 38 37 41 42 40 38 33 31
19 16 17 19 19 17 16 13 12 11 10 9 8 10 17 33 39 33 21 12 11 15 20 23 23 20 21 26 32 38 41 42 44 45 45 47 47 48 48 49 50 50 49
17 15 18 17 16 16 15 15 15 15 15 15 14 11 10 11 11 12 14 17 20 24 24 22 23 28 32 36 38 42 46 46 43 40 39 41 41 42 41 42 44 47 50
16 15 16 16 15 15 15 15 15 16 16 16 17 17 17 18 19 22 24 25 23 22 24 29 33 38 40 39 37 36 35 36 40 45 44 44 44 42 38 38 40 42 46
16 15 15 16 16 15 15 17 17 19 20 20 21 22 21 21 21 21 22 24 27 32 33 34 33 32 32 35 38 44 46 44 45 43 42 35 30 27 27 28 29 30 34
17 16 16 16 16 16 15 16 16 17 19 19 20 21 22 23 25 26 27 28 31 35 38 39 39 42 46 50 51 51 49 42 38 35 32 29 28 28 31 29 29 28 29
19 16 17 16 17 17 19 20 22 22 23 25 26 29 31 31 32 32 35 39 44 46 49 50 50 49 49 48 49 52 50 42 34 30 30 28 30 34 33 31 29 28 30
26 20 23 26 29 33 36 38 40 40 40 41 41 42 42 42 43 43 43 44 46 47 48 48 47 47 47 47 48 47 42 39 31 27 27 27 30 34 38 37 33 30 31
33 27 32 36 38 40 41 42 42 42 43 42 43 42 43 44 45 45 45 45 45 45 45 45 45 45 45 46 48 47 38 36 28 26 28 28 29 33 36 34 30 28 34
43 34 33 36 40 41 42 43 43 43 43 44 45 45 44 44 44 44 44 44 44 43 43 43 43 44 44 45 47 43 34 33 28 26 24 25 31 40 35 32 26 37 34
62 44 36 37 38 41 42 43 43 44 44 44 44 46 46 46 44 43 42 42 41 41 40 40 40 41 43 44 42 34 31 26 23 22 20 21 30 25 20 20 24 39 41
94 79 56 39 38 40 42 42 44 44 44 44 44 45 45 44 43 42 41 40 41 41 34 29 30 30 29 27 24 22 22 19 17 18 27 36 41 33 31 31 33 25 29
62 96 87 66 46 41 41 42 43 44 45 45 45 45 44 43 42 40 39 39 41 38 28 28 28 26 23 22 21 19 18 19 22 30 40 36 39 33 34 49 39 19 22
65 73 95 95 84 68 44 42 44 44 44 44 44 44 44 43 41 40 38 39 44 30 30 31 32 32 32 30 26 23 22 23 26 29 32 42 50 42 39 46 37 15 15
81 82 71 73 99 81 58 68 55 54 47 45 43 43 43 42 40 39 38 39 44 30 32 33 36 37 36 29 24 26 28 29 30 28 23 22 24 23 23 32 21 17 18
82 90 78 82 69 87 89 81 86 81 54 46 45 44 42 42 40 39 39 39 43 32 34 34 34 32 28 26 28 29 30 26 22 18 15 14 13 16 20 22 19 17 21
65 92 98 83 54 79 88 90 84 78 72 60 49 42 42 43 42 41 39 40 41 34 36 36 35 31 26 27 28 27 26 25 22 21 19 16 13 14 16 18 18 18 21
58 58 69 81 69 80 80 91 94 85 68 53 53 53 56 51 48 45 40 43 39 36 39 40 36 27 27 28 28 26 26 26 24 22 19 16 14 15 16 16 18 21 22
62 75 75 74 76 82 79 90 86 82 74 68 68 61 58 53 53 50 42 48 38 41 41 42 32 30 31 32 30 30 28 27 24 21 18 15 14 15 15 16 18 18 21
64 69 74 76 80 73 78 73 75 77 76 68 60 55 56 57 62 56 51 47 44 46 47 47 34 34 33 33 35 32 29 27 26 24 22 17 15 16 19 19 19 20 22
71 70 69 65 68 68 61 59 60 64 69 65 59 58 56 60 68 52 59 53 55 56 51 41 39 38 34 37 36 35 32 30 27 25 23 18 16 18 21 23 23 26 29
69 74 77 74 82 78 74 83 82 74 80 71 72 75 62 66 65 81 80 70 71 72 51 48 44 42 41 37 37 38 38 35 31 28 24 19 17 19 21 23 23 28 41
64 65 69 73 77 79 76 78 82 91 94 97 89 92 93 86 85 88 85 92 80 78 70 76 50 46 47 46 50 46 41 36 31 28 24 21 20 20 21 23 24 30 37
65 65 71 70 69 67 66 67 69 78 90 92 88 100 96 90 92 94 97 97 97 99 96 60 54 59 72 60 54 47 43 38 31 27 25 24 24 23 25 25 32 30 35

GFSSE_700_rhum_072.txt.gz
RH
18 17 16 16 30 31 17 15 13 12 9 8 8 7 19 47 59 72 93 94 88 76 55 11 10 13 19 20 20 19 18 17 17 17 18 19 18 19 19 18 18 19 19
20 18 16 16 28 24 15 14 13 9 7 8 20 58 68 69 68 76 84 74 66 60 12 11 16 21 21 19 18 18 19 21 23 24 28 32 31 30 31 33 32 28 26
21 17 17 26 41 40 15 14 10 13 6 8 23 54 59 75 75 69 72 68 57 11 13 20 22 21 20 20 22 25 30 34 37 39 40 41 42 41 41 41 44 43 42
20 17 17 32 45 27 15 12 12 8 7 9 16 50 63 73 71 70 64 38 11 16 21 22 20 22 26 30 34 34 34 33 32 31 31 31 30 33 32 32 34 37 40
20 19 18 42 28 16 14 12 12 10 9 9 14 22 41 37 28 16 11 15 20 23 21 23 28 32 35 36 35 32 29 29 31 32 33 34 32 30 28 29 30 32 35
21 19 20 53 19 16 15 16 15 15 14 12 10 11 12 12 13 16 20 24 23 23 28 33 36 36 32 28 28 32 33 31 29 30 30 28 25 24 26 26 26 27 28
20 20 22 50 17 16 16 16 17 16 16 16 16 16 18 20 22 23 22 22 25 30 33 31 29 31 33 38 38 34 27 24 25 26 25 26 26 28 28 26 25 25 27
20 20 19 20 18 17 17 18 19 21 21 21 21 21 21 21 21 23 27 28 29 31 34 36 38 43 43 44 44 41 36 30 25 25 24 26 28 32 31 29 26 25 25
25 21 19 18 19 20 21 21 19 21 20 20 21 21 22 24 25 28 32 37 41 44 46 48 48 49 48 47 47 44 35 31 25 24 25 26 28 31 31 32 30 28 29
62 24 19 19 20 20 20 20 20 21 22 24 27 30 32 34 38 39 39 41 43 45 47 47 47 46 46 45 45 45 38 31 28 25 25 26 26 28 32 33 27 23 25
48 33 20 20 20 20 21 24 27 32 36 39 41 43 43 44 44 45 46 46 46 46 45 44 44 44 44 44 45 43 37 31 27 24 20 18 20 26 28 18 19 21 42
50 35 23 22 23 28 33 38 40 42 43 44 44 45 46 46 46 46 46 47 46 45 44 43 42 41 41 40 38 34 28 25 21 20 17 16 18 25 28 26 24 27 28
58 56 41 27 29 33 39 42 43 44 45 45 46 46 47 47 47 47 47 46 44 43 42 41 40 38 36 34 30 24 21 19 17 16 19 32 39 39 36 30 34 39 21
78 64 53 38 32 33 38 42 44 45 45 46 46 47 47 47 47 46 44 43 42 41 40 34 31 30 28 24 21 20 19 18 19 21 27 34 32 36 36 39 48 47 24
96 76 78 63 43 36 38 40 43 44 45 46 46 47 47 46 45 44 42 41 40 42 39 30 29 29 29 29 29 27 25 24 24 27 30 31 33 37 42 29 32 27 18
98 95 97 89 65 49 53 41 42 43 44 45 46 47 46 45 44 44 42 40 40 41 39 30 31 32 34 34 34 27 25 28 30 31 29 22 17 14 13 15 20 18 17
78 80 81 73 83 84 65 61 52 45 43 44 46 46 45 44 44 45 43 40 39 41 39 32 34 35 34 33 29 26 28 29 28 25 20 18 18 15 12 14 17 18 19
86 87 94 86 77 95 93 90 83 74 67 58 55 46 44 44 46 46 44 42 39 42 39 35 37 38 36 30 26 26 26 27 26 24 23 22 20 17 13 13 16 19 19
80 82 98 97 87 89 85 94 97 84 89 80 84 73 55 51 50 45 45 43 40 42 40 38 40 40 37 27 26 28 28 27 26 26 24 22 18 16 14 13 15 17 19
77 70 72 85 77 83 96 96 91 88 96 95 92 71 67 52 51 49 47 45 41 42 42 40 43 42 35 29 31 30 31 32 31 28 27 26 22 17 15 15 16 18 19
78 64 66 70 85 76 72 78 79 96 91 89 75 72 64 66 69 66 57 51 44 46 43 41 44 47 33 35 35 34 35 34 33 32 29 27 26 20 16 15 17 18 19
64 72 90 100 93 74 67 87 93 87 83 85 87 84 79 80 69 66 62 62 49 51 46 48 50 50 38 40 41 37 35 35 35 34 32 29 27 23 19 18 18 18 20
78 84 83 84 80 97 96 90 100 81 76 89 84 80 76 64 56 66 65 77 58 58 56 59 60 52 48 43 44 41 39 41 46 43 34 32 30 25 22 20 20 20 22
73 80 86 87 84 86 89 91 100 99 99 100 100 100 97 78 65 62 71 82 84 78 82 84 82 56 48 48 45 48 57 57 53 48 40 35 32 27 23 21 22 22 25
56 64 71 81 87 81 76 79 81 86 85 85 94 96 100 97 85 75 82 89 93 98 98 97 97 75 73 90 53 67 64 60 59 51 46 37 31 28 25 22 23 23 23
60 59 66 70 72 76 80 84 85 91 86 95 90 86 87 87 97 94 98 97 96 98 97 97 98 98 95 56 54 63 76 72 61 60 53 36 29 26 25 24 24 27 27

GFSSE_700_rhum_075.txt.gz
RH
27 17 18 19 28 28 17 14 12 12 11 9 10 4 12 47 62 57 79 84 81 64 18 11 12 17 19 19 17 17 17 17 17 18 18 18 19 19 20 20 18 18 18
23 18 18 24 26 30 15 14 13 10 8 8 7 13 28 42 57 90 93 87 74 30 12 13 18 19 18 17 19 20 22 23 25 26 28 30 32 34 33 32 34 33 32
22 20 18 27 25 26 16 14 11 8 8 36 62 64 69 68 78 85 74 65 39 12 16 20 20 18 20 22 27 30 30 31 31 30 28 25 24 24 25 27 29 30 31
22 19 19 42 44 36 15 13 12 7 9 47 61 63 78 74 70 72 70 46 13 18 22 21 20 24 29 32 32 30 27 24 25 25 26 24 24 24 24 24 24 24 26
23 19 20 59 67 28 15 12 13 7 9 29 61 64 80 74 72 68 43 13 19 23 21 23 29 34 34 32 26 24 25 26 26 25 24 24 23 24 24 24 24 23 23
22 21 23 56 60 18 13 13 10 8 10 17 52 70 72 43 25 13 14 21 22 21 23 28 34 34 29 29 29 27 27 25 25 25 24 24 25 26 24 21 20 21 22
22 23 25 62 49 16 14 13 12 11 10 13 21 37 19 12 13 19 23 22 22 25 29 29 28 30 34 36 36 29 24 22 23 24 25 27 29 28 27 26 23 21 21
25 28 40 65 33 16 17 17 17 16 15 14 13 14 15 20 24 23 23 27 29 27 27 31 38 44 44 40 38 33 28 24 22 22 23 24 27 28 27 26 22 18 19
27 30 50 75 30 18 18 18 18 19 20 20 21 23 24 23 24 26 27 28 34 40 43 43 43 45 45 45 42 38 32 27 22 20 20 21 22 25 28 24 22 20 22
62 49 38 59 20 18 18 20 23 24 24 22 22 23 24 26 27 31 35 38 40 43 46 46 46 45 44 45 44 39 30 25 21 19 17 16 16 19 23 20 17 18 22
60 52 37 23 20 21 23 25 23 23 23 24 24 26 29 33 36 39 42 45 46 46 46 44 44 44 43 42 41 38 28 22 20 18 15 13 14 20 28 29 27 29 32
72 61 31 22 23 24 24 24 22 23 26 30 35 40 43 45 46 47 48 48 48 47 45 44 42 41 40 38 36 29 22 18 16 14 14 23 36 32 34 32 34 41 39
87 70 55 26 27 27 25 24 25 31 37 41 44 46 47 48 48 49 49 49 47 46 44 41 37 35 34 31 26 21 18 16 16 17 21 26 29 31 36 42 37 38 38
77 98 71 39 30 29 28 28 33 39 44 45 46 47 48 48 49 50 49 47 45 43 42 40 35 32 30 28 26 26 25 23 22 22 27 29 29 27 23 23 27 26 28
82 97 89 62 35 32 31 33 37 42 45 46 47 47 48 48 49 49 47 45 43 42 41 41 32 31 32 32 32 32 27 25 27 30 30 26 20 16 13 12 11 13 17
95 79 96 87 50 37 34 36 39 43 45 46 47 47 48 48 48 46 45 44 42 41 41 42 32 33 35 36 35 31 26 28 30 29 25 22 20 20 18 15 12 12 14
94 99 90 89 91 72 47 39 41 43 45 46 48 47 47 48 46 45 44 45 44 41 40 44 33 34 36 35 33 28 27 29 29 28 26 25 23 20 18 16 13 13 15
94 92 96 94 98 86 81 71 56 46 46 47 48 48 50 48 45 44 45 48 46 42 41 45 35 36 37 38 34 28 29 30 29 28 27 26 24 22 19 15 13 12 12
83 91 83 94 87 73 79 78 84 74 58 52 48 49 52 51 48 48 50 52 48 45 41 44 39 38 40 40 34 28 31 31 32 33 31 29 27 25 23 20 15 12 13
97 82 77 76 79 92 93 82 98 96 88 83 75 72 68 71 69 67 67 60 52 49 43 44 44 38 41 44 34 31 33 34 35 34 34 34 32 28 26 23 18 14 14
99 93 78 78 100 84 95 92 96 91 84 74 86 90 96 86 84 70 65 57 52 52 46 46 48 41 42 45 36 36 38 37 36 36 38 38 35 33 30 26 22 17 14
99 83 93 98 99 99 92 100 94 90 90 85 82 92 90 90 99 82 78 76 71 61 52 49 50 45 49 48 41 39 40 40 39 41 51 55 46 36 33 29 25 21 18
72 86 94 78 89 84 84 96 97 98 98 97 96 92 94 92 99 99 83 80 82 64 64 62 67 56 61 53 49 47 43 42 44 51 58 64 58 42 37 32 28 24 21
78 84 83 87 92 92 97 95 99 96 100 100 100 100 99 100 99 98 88 85 94 81 88 84 78 77 83 74 53 60 74 60 52 56 60 65 63 60 54 32 28 27 24
70 71 76 82 81 87 93 97 98 100 99 96 99 93 95 97 98 95 99 99 98 99 99 98 99 96 98 99 88 83 89 66 56 68 73 70 64 60 46 32 27 27 27
58 62 62 70 72 73 81 90 89 94 98 99 98 96 98 99 95 92 96 98 100 99 100 100 100 99 99 99 100 99 80 66 78 78 72 62 64 56 40 28 26 27 29

GFSSE_700_rhum_078.txt.gz
RH
35 33 20 20 17 33 18 14 12 11 11 10 10 4 14 48 64 62 52 71 75 40 14 12 14 17 17 16 15 15 16 16 17 18 20 21 20 20 20 21 21 21 28
33 25 19 36 22 28 17 14 12 11 10 9 9 4 40 52 74 68 82 81 60 21 13 15 18 18 16 17 18 22 23 25 27 28 27 26 25 26 28 29 29 29 28
36 23 20 40 23 27 16 13 13 10 8 7 6 17 43 54 62 93 90 72 29 15 14 18 18 17 20 23 25 28 28 27 24 20 19 19 20 20 21 21 22 22 22
35 22 21 46 23 26 16 14 10 9 21 39 30 44 52 67 90 88 72 37 16 16 19 18 18 20 23 26 26 25 22 21 22 23 22 22 22 23 22 21 21 20 20
32 23 22 45 50 35 16 13 12 9 73 73 73 77 74 78 81 77 63 21 18 21 20 19 21 24 26 24 21 20 23 23 23 23 23 23 22 20 18 17 17 18 19
26 26 26 54 64 50 16 12 13 9 54 73 70 80 82 73 70 68 27 17 22 22 23 26 27 26 23 22 23 22 21 22 22 23 23 25 24 23 21 20 18 16 16
30 30 35 61 68 41 15 16 8 10 31 70 74 84 76 67 56 21 18 23 22 25 28 31 27 28 29 28 25 25 22 21 22 23 23 25 27 25 22 20 18 15 15
73 72 57 64 64 29 13 14 10 10 21 63 77 84 55 17 13 19 24 24 26 30 29 27 32 36 38 38 34 29 25 21 20 20 22 22 23 24 24 19 16 14 14
67 73 66 72 68 29 14 12 12 10 18 32 54 54 14 14 22 24 24 28 29 27 30 38 42 43 39 39 37 32 27 22 20 18 17 16 15 17 18 19 20 21 21
70 79 61 75 74 35 18 16 16 14 15 20 26 16 19 25 24 25 28 29 34 39 42 46 46 45 43 41 38 33 26 23 20 18 15 13 14 17 20 31 28 29 34
96 88 72 78 80 22 36 19 18 16 16 16 19 24 25 26 28 29 33 38 41 44 47 45 45 44 42 39 37 35 27 21 19 16 14 17 31 34 32 34 34 34 42
98 93 84 86 79 22 36 21 22 24 24 24 25 25 27 28 33 37 40 44 47 48 48 46 44 41 41 39 36 28 22 20 17 16 18 24 29 30 31 36 39 31 27
100 99 90 88 76 23 22 35 28 26 25 26 27 28 32 37 42 46 48 49 50 50 48 45 43 40 38 35 32 26 21 19 20 21 22 26 28 26 21 18 17 20 22
99 100 87 95 59 26 25 34 35 26 26 28 32 38 43 46 48 49 50 51 50 49 46 44 40 37 35 32 29 28 29 26 23 25 28 28 23 18 16 15 13 12 14
93 98 100 99 51 30 30 30 29 31 31 36 41 45 47 48 49 50 50 50 50 47 45 42 41 35 32 32 32 34 32 27 27 29 28 25 22 20 20 19 16 14 11
96 100 100 99 57 36 34 31 30 32 42 42 44 46 48 48 49 50 50 49 47 45 43 42 42 36 34 35 36 34 32 28 30 29 27 26 24 23 21 18 16 15 13
68 94 97 88 61 49 41 38 35 36 41 49 48 48 48 48 48 49 49 47 45 44 43 42 42 39 35 37 38 36 30 29 30 30 28 27 27 26 25 22 20 16 14
76 93 97 98 75 71 64 41 40 40 43 47 49 49 49 49 50 48 46 44 44 46 46 42 41 44 36 38 39 38 32 30 31 30 30 31 30 28 26 25 23 20 15
78 73 87 97 91 85 78 62 63 46 45 46 49 51 52 51 51 50 47 44 45 49 50 45 41 44 39 38 40 42 32 31 33 33 35 34 34 33 31 28 25 22 19
91 100 100 98 99 96 94 85 85 76 71 53 50 52 53 51 52 50 51 54 49 54 54 50 45 44 45 39 41 43 36 32 34 36 36 36 40 41 36 32 30 27 24
97 94 97 100 92 92 78 76 85 81 92 96 75 85 82 78 75 60 69 78 69 62 64 56 51 44 46 44 42 45 40 35 39 39 39 44 54 54 48 39 34 31 28
99 95 98 99 98 99 94 82 85 88 88 86 84 87 88 89 99 87 84 93 80 79 66 59 54 48 49 49 48 50 44 42 42 42 44 50 57 62 64 55 47 36 31
99 100 99 100 91 83 92 94 97 88 76 73 79 82 84 90 85 95 90 96 98 99 98 92 75 67 63 69 71 58 49 47 45 47 52 54 58 62 65 61 59 48 33
94 90 96 94 91 99 99 96 96 97 96 96 98 89 94 89 86 84 90 94 100 100 99 100 98 88 85 87 83 80 63 62 69 79 62 63 56 66 68 67 60 47 34
92 97 93 88 95 90 72 88 90 98 99 100 98 97 100 100 94 98 100 98 99 100 99 99 99 93 92 92 91 93 94 86 74 82 82 70 67 70 67 66 62 44 31
86 80 75 76 80 82 87 93 95 97 99 90 99 94 99 98 98 98 100 98 97 98 98 97 99 100 100 99 100 100 100 100 98 94 71 79 77 73 71 69 66 60 34

GFSSE_700_rhum_081.txt.gz
RH
44 44 40 30 19 26 24 16 17 14 10 11 11 8 18 54 54 48 36 72 67 40 16 14 12 15 16 15 14 14 14 15 16 16 18 20 21 21 21 22 22 24 24
56 35 34 28 19 23 24 14 12 11 10 10 11 5 14 37 58 49 47 72 62 20 14 14 16 16 15 14 15 16 18 21 24 25 24 21 19 18 17 18 18 20 21
56 50 25 22 20 21 23 13 12 11 9 10 11 4 30 49 76 60 76 75 37 18 16 18 17 16 15 17 19 21 23 23 21 18 18 19 19 19 19 18 19 19 20
52 45 30 20 24 19 22 13 12 9 8 8 4 11 48 61 66 88 84 58 24 17 17 18 17 19 22 22 22 21 20 18 20 22 20 19 17 15 15 16 16 16 17
68 35 26 25 31 20 20 14 11 8 8 8 12 41 53 57 87 92 72 33 19 18 19 19 19 22 23 24 22 20 22 22 21 22 22 21 20 20 19 18 16 15 15
41 34 28 31 47 28 20 14 10 17 70 60 55 56 68 87 93 76 54 24 20 21 21 22 24 25 23 21 22 22 21 22 23 23 25 26 25 23 20 19 17 15 15
58 45 69 71 65 63 23 14 13 30 88 81 80 82 89 85 80 74 41 20 21 22 24 26 26 23 23 24 22 21 20 21 21 22 24 26 25 23 23 18 16 15 14
90 67 75 65 70 72 39 13 15 22 86 82 81 89 89 77 73 52 20 20 23 24 28 27 25 30 31 29 25 22 21 20 19 20 22 21 19 20 19 18 20 21 22
97 99 75 72 78 76 41 15 13 13 73 88 82 90 88 74 49 18 23 25 26 28 27 29 35 38 39 36 33 26 20 19 18 17 16 14 13 13 16 28 29 30 32
97 95 91 82 89 82 57 17 12 10 44 80 85 97 76 23 14 21 26 28 31 28 32 40 42 44 43 40 36 32 26 22 20 17 14 13 17 31 28 31 33 30 25
94 94 97 86 90 85 64 20 12 10 20 58 83 83 25 14 21 27 29 32 30 37 43 46 46 45 43 42 38 35 28 22 20 16 13 19 28 31 28 28 25 26 17
100 98 98 95 90 96 61 47 14 12 19 35 49 55 15 24 27 30 32 32 40 42 44 46 46 45 43 40 38 33 26 20 18 17 18 22 26 27 26 20 15 14 13
89 100 100 93 86 100 61 57 20 16 18 27 32 20 24 27 28 30 36 40 43 48 49 48 46 44 42 39 36 31 24 22 22 22 22 27 26 23 18 16 16 15 13
75 88 99 100 100 100 69 56 40 18 16 20 20 25 26 26 31 38 41 46 49 51 50 48 45 42 39 37 34 31 29 28 25 25 27 28 25 21 20 21 19 17 15
73 72 96 98 93 99 78 49 46 26 23 24 26 26 28 30 38 43 48 50 52 51 50 48 45 42 39 35 33 33 33 33 28 28 29 26 25 23 22 21 19 17 15
78 64 91 88 100 100 86 39 54 41 34 28 28 31 35 41 46 49 50 51 51 51 49 47 44 42 41 35 34 35 34 32 30 29 28 26 25 25 26 26 24 22 20
84 71 94 92 100 100 64 34 63 54 42 36 34 37 41 46 48 49 50 50 51 50 49 45 43 42 42 37 36 37 35 33 26 28 29 27 28 30 29 28 26 24 22
84 70 92 84 100 100 53 45 44 60 57 45 41 42 45 47 48 49 49 50 50 49 46 44 44 42 42 42 37 39 38 34 28 29 30 30 33 33 33 32 30 27 24
85 82 56 79 98 90 74 50 45 46 55 55 58 49 48 48 49 49 49 49 48 46 44 46 49 47 43 44 41 39 41 40 31 30 32 35 35 36 38 41 39 34 30
82 86 79 86 90 88 80 65 63 48 45 48 54 52 53 54 52 52 52 51 49 47 46 48 53 52 48 45 46 41 40 44 40 32 34 37 38 44 51 55 55 47 39
98 94 96 94 99 97 88 95 86 69 62 51 50 51 53 55 56 54 55 56 59 54 53 62 60 61 54 48 47 46 44 48 46 36 38 39 40 48 55 59 59 57 58
98 93 100 100 99 98 95 86 83 96 90 78 76 75 83 82 69 76 80 74 73 69 75 80 80 71 62 56 49 56 59 54 48 41 41 42 45 52 56 56 61 63 61
100 98 98 100 100 100 100 96 91 97 100 98 92 90 87 86 91 83 84 83 85 82 88 91 95 97 74 75 81 79 73 70 68 48 46 48 60 66 62 59 63 64 65
100 97 100 100 100 99 98 99 98 99 96 94 98 94 91 89 91 85 81 90 93 92 91 94 99 100 98 96 88 93 89 84 67 61 52 56 71 78 75 72 68 68 66
98 93 94 95 97 96 95 97 96 98 94 97 97 99 98 98 97 87 89 83 78 88 84 81 96 98 100 100 99 99 99 98 94 98 93 94 68 90 80 70 72 70 70
98 98 92 90 93 93 92 99 95 96 98 98 93 98 93 94 80 89 99 95 97 94 95 91 90 100 99 100 100 100 100 99 100 100 99 99 98 83 75 75 62 69 70

GFSSE_700_rhum_084.txt.gz
RH
51 44 48 48 34 20 21 18 14 23 22 12 13 12 41 56 60 58 51 77 66 50 21 16 12 14 15 14 13 13 14 14 14 15 17 20 20 19 17 16 17 17 17
54 57 39 44 34 21 21 18 11 14 10 11 11 9 21 62 65 60 42 73 64 34 20 14 13 15 14 14 15 16 18 19 20 20 18 15 15 16 16 16 15 16 18
58 52 56 32 32 23 21 19 11 10 9 10 11 7 12 54 48 50 39 65 55 25 17 14 15 15 14 16 19 21 22 21 17 15 17 19 18 17 15 14 15 15 15
59 52 55 40 25 25 23 18 11 10 9 9 11 8 12 39 60 48 61 73 42 23 16 16 16 16 17 19 21 20 18 17 17 20 18 16 15 14 14 13 13 12 12
57 55 53 38 26 30 24 18 12 10 8 8 10 6 38 53 72 69 82 60 34 21 17 18 18 19 21 20 18 17 17 18 20 20 18 18 18 17 16 14 12 12 13
50 52 44 37 66 41 26 20 13 9 7 6 5 21 57 61 64 86 82 46 24 18 18 18 20 22 22 20 19 20 20 21 21 21 22 24 21 19 16 14 14 13 14
57 48 46 70 81 69 34 21 13 8 15 11 17 63 63 67 82 92 68 34 22 19 20 21 22 22 21 21 21 19 19 20 22 21 24 24 22 21 19 16 18 20 22
64 55 60 74 81 71 59 26 13 15 84 69 74 72 78 89 94 81 66 36 21 21 24 26 24 22 24 25 24 22 20 18 20 20 21 18 15 13 15 26 26 28 29
78 70 75 88 82 75 75 40 17 23 89 89 84 87 98 98 85 74 54 28 22 24 26 26 26 29 31 31 27 25 22 19 17 16 15 12 11 19 23 28 31 31 23
83 78 68 99 88 89 83 53 19 15 85 90 88 91 98 86 80 58 32 20 24 27 28 26 32 38 38 37 35 32 26 22 20 16 13 12 22 31 26 29 25 23 18
82 98 100 99 94 98 97 68 20 14 58 89 88 94 100 83 76 29 20 23 26 30 29 36 42 44 43 40 38 35 27 21 20 15 14 18 26 27 27 24 17 13 13
67 74 98 99 100 100 100 90 32 23 16 80 88 99 97 73 25 21 24 25 29 29 37 45 46 45 43 41 39 37 29 22 17 14 18 20 25 27 23 16 16 16 15
70 64 78 98 99 100 100 99 67 25 11 36 80 98 95 36 15 23 27 28 28 37 44 47 48 47 44 40 40 35 28 23 20 20 21 24 27 24 20 19 20 18 17
57 64 56 90 90 99 100 100 91 39 13 13 48 86 90 29 20 27 28 31 36 42 47 49 48 46 45 41 37 33 30 29 26 22 24 27 26 22 21 21 20 19 18
53 59 68 71 74 96 99 100 98 73 18 13 24 62 62 24 26 28 32 34 40 47 50 51 50 47 44 42 37 34 31 32 31 25 26 26 25 23 23 25 27 26 24
66 71 88 84 68 90 99 97 96 81 24 16 24 46 39 18 27 28 34 40 47 51 51 52 50 47 44 42 38 36 35 35 33 28 27 26 26 25 30 29 29 28 26
76 88 92 72 58 91 98 100 99 76 46 18 21 26 21 27 32 34 40 47 51 52 52 51 50 46 44 42 40 36 36 38 35 30 28 27 26 31 32 33 33 33 31
84 91 92 88 50 71 97 92 97 85 82 37 24 27 29 30 36 41 46 50 51 51 52 51 50 46 44 43 42 42 37 38 39 35 28 30 29 34 35 35 38 44 45
85 89 90 93 59 69 95 92 95 98 94 73 47 33 33 38 41 46 48 50 50 51 51 50 48 46 48 48 45 44 43 37 37 40 31 31 32 36 37 39 46 52 54
90 88 96 97 97 89 80 93 96 91 98 96 72 49 40 42 45 47 48 49 50 50 50 47 45 46 52 55 53 47 45 44 41 44 45 33 35 37 39 42 46 53 53
98 92 97 99 90 84 69 97 92 67 66 80 73 72 53 51 54 56 52 50 51 51 51 50 52 49 53 62 61 54 48 46 53 50 45 40 37 40 43 51 49 54 56
100 96 99 97 97 99 98 98 79 75 72 67 68 59 65 62 57 60 58 57 56 57 57 58 62 62 70 70 79 71 64 70 65 56 54 46 42 44 46 56 58 59 64
100 100 100 100 97 99 100 100 100 78 83 71 78 76 80 72 65 75 75 72 76 73 78 75 69 73 82 84 90 90 83 76 76 67 66 56 46 48 52 72 76 73 70
100 98 100 100 100 100 100 100 100 95 88 99 97 97 100 95 99 97 85 78 80 91 84 82 94 94 88 98 99 99 97 98 98 90 82 70 54 60 71 73 78 86 74
98 100 100 100 100 100 100 100 100 98 98 100 95 94 96 100 100 98 99 82 85 90 75 76 90 93 96 99 97 95 99 100 100 100 99 87 85 98 97 92 100 99 73
100 100 99 100 100 98 91 100 99 98 100 100 89 98 98 84 97 98 97 86 73 62 74 76 80 83 86 90 90 100 100 100 100 100 100 100 99 98 96 97 87 74 47

GFSSE_700_rhum_087.txt.gz
RH
59 51 50 54 52 38 24 24 26 16 23 17 10 8 16 23 41 44 45 77 76 54 23 22 12 11 13 13 12 12 12 12 13 14 16 18 18 16 14 14 14 14 15
59 54 46 46 52 38 26 24 20 14 18 17 11 12 21 42 54 49 53 52 73 49 26 19 11 13 13 12 13 14 14 16 18 18 14 14 15 15 14 13 12 12 13
64 63 54 51 47 38 29 25 20 13 14 10 11 10 23 56 62 61 58 50 66 42 27 16 13 14 13 14 16 17 17 18 16 14 17 17 14 13 11 10 10 10 10
61 61 54 54 52 34 30 28 22 12 10 10 10 11 14 51 67 59 44 47 62 38 24 14 14 14 16 18 19 19 17 15 17 19 17 14 13 12 12 12 11 11 10
63 61 57 55 56 34 29 29 23 13 11 10 10 16 19 44 52 62 38 55 56 35 22 14 15 16 18 19 18 17 16 18 21 20 17 17 16 15 14 12 12 11 13
69 58 56 61 52 36 38 38 24 14 12 9 10 21 27 57 42 63 61 73 43 29 18 15 16 18 20 18 16 17 18 19 21 23 23 23 18 17 14 12 14 18 20
70 66 62 58 49 83 60 46 27 15 16 8 10 22 30 62 64 65 83 67 33 25 17 18 18 19 19 18 18 17 18 20 22 23 24 22 19 17 14 22 24 26 26
68 68 66 70 57 90 78 45 31 15 40 10 15 34 64 71 71 72 86 50 30 22 18 20 21 20 18 20 19 19 19 18 20 22 22 18 13 12 14 24 28 26 20
73 84 76 66 66 97 93 68 39 18 67 46 61 67 68 75 73 89 74 39 29 22 20 22 23 22 23 26 25 22 19 18 16 17 14 11 10 19 22 25 26 23 16
78 86 98 83 64 73 89 80 64 32 83 90 74 84 79 87 88 94 65 40 29 23 23 24 23 26 31 32 32 28 22 19 15 17 13 10 16 24 22 23 17 12 12
76 78 89 95 90 81 87 85 80 51 71 89 99 87 92 95 100 87 67 38 25 24 26 26 28 34 37 36 36 32 25 21 16 15 11 12 20 24 23 18 14 16 15
72 75 79 91 98 99 81 94 95 60 49 99 100 99 99 100 94 80 51 28 25 28 29 27 34 40 41 40 38 35 30 23 16 16 13 15 20 24 20 17 18 18 17
69 68 78 78 76 92 100 99 100 91 65 52 99 99 99 100 92 80 38 24 28 31 29 33 41 44 42 41 41 37 34 27 18 18 18 19 23 23 20 20 20 19 19
64 75 81 73 67 62 93 100 100 100 70 50 76 98 98 100 91 62 22 25 30 33 35 43 44 44 45 45 42 37 32 28 27 24 22 24 24 23 22 22 24 26 26
75 74 77 62 61 52 89 96 97 100 94 74 28 81 99 100 91 26 18 27 33 32 43 47 48 48 48 44 40 38 34 32 31 27 23 26 26 24 23 28 29 29 31
65 74 82 66 75 49 59 79 94 88 99 62 54 22 91 100 87 18 22 27 32 34 44 50 52 52 50 46 42 37 34 34 34 30 25 25 26 25 28 31 32 33 34
87 92 84 70 77 57 56 56 81 95 99 71 53 18 27 89 93 22 26 30 34 41 48 53 53 52 50 47 44 43 39 36 36 34 29 26 26 26 32 34 35 37 42
86 96 95 86 86 72 65 60 64 99 100 100 60 18 20 45 72 26 32 38 40 48 51 52 53 52 50 46 44 43 43 41 37 38 38 31 28 28 33 36 38 43 48
57 89 86 94 91 81 74 50 70 99 98 98 54 25 24 55 59 28 34 44 46 50 52 52 52 51 50 48 49 50 46 44 44 41 42 41 33 31 33 37 40 46 49
56 84 93 99 95 96 96 51 75 93 100 100 82 37 27 45 33 33 39 44 47 50 51 51 51 51 47 46 51 61 60 49 45 56 47 45 42 37 35 36 41 48 54
68 78 93 99 96 100 100 79 64 78 98 100 98 80 34 35 35 37 43 46 48 50 50 51 51 49 48 49 53 53 61 58 55 57 53 48 48 47 40 38 41 46 52
81 74 87 97 98 94 97 94 77 72 95 100 100 98 84 50 43 44 45 47 49 49 50 50 52 53 55 61 66 71 76 72 67 72 65 59 58 54 45 43 45 50 67
68 66 72 93 100 100 96 100 99 90 97 98 98 97 100 97 73 70 67 62 59 59 62 64 67 72 74 73 77 91 88 89 88 87 82 78 78 67 49 50 52 57 67
85 70 89 100 100 100 100 100 100 98 94 94 97 96 100 98 96 90 94 86 88 76 83 82 92 84 87 90 97 97 94 94 98 100 98 98 88 82 59 56 66 69 70
99 88 92 98 100 100 100 100 100 99 99 97 99 99 98 100 100 100 100 100 93 97 90 94 92 87 93 82 84 93 97 100 99 98 100 100 99 99 78 63 73 92 97
97 89 100 100 99 99 100 100 100 100 100 100 100 100 100 99 99 99 98 98 98 95 93 86 89 82 73 72 78 78 83 92 94 99 99 99 100 100 99 100 100 99 86

GFSSE_700_rhum_090.txt.gz
RH
61 57 55 52 55 55 40 27 22 27 25 26 13 10 8 12 19 26 35 47 76 60 39 28 16 10 12 12 11 11 11 11 12 14 16 17 16 15 14 13 13 13 13
59 59 51 47 46 56 42 30 26 31 21 30 18 11 10 15 20 34 42 65 82 64 38 28 13 11 11 11 11 12 12 14 17 16 13 14 15 14 12 11 10 10 10
70 64 59 59 55 51 44 34 26 32 39 40 20 16 15 22 28 47 47 56 67 60 33 23 13 12 12 12 13 14 16 18 15 16 18 16 12 11 10 9 9 9 9
63 68 66 62 58 55 46 37 29 25 28 60 26 22 16 29 42 51 55 58 65 51 27 20 13 13 12 14 15 15 17 15 18 18 16 12 12 11 10 9 9 10 10
65 65 65 66 67 59 47 37 32 28 16 18 13 49 32 40 52 63 62 56 63 38 22 18 14 14 14 15 15 14 15 18 19 18 17 16 13 11 10 9 10 13 15
64 67 64 67 67 68 62 44 38 30 18 13 25 33 49 50 50 65 57 40 62 30 22 17 16 16 17 17 14 14 16 21 21 21 20 20 16 13 9 12 17 21 21
67 70 70 73 74 78 65 58 49 32 19 14 15 36 72 51 62 50 60 51 60 27 22 18 18 18 18 16 14 15 18 22 22 23 24 22 16 12 11 17 21 20 15
63 66 74 78 79 80 82 74 71 38 29 54 19 44 78 52 70 49 64 75 50 29 21 18 19 20 19 16 16 16 17 20 20 22 22 20 12 9 10 16 22 19 12
54 63 68 75 72 71 67 75 66 37 30 65 20 57 71 58 73 75 71 83 47 28 22 19 21 21 19 19 19 17 16 18 19 18 18 13 9 13 19 21 16 12 11
59 60 71 83 82 84 70 67 74 48 26 60 37 59 58 71 84 84 83 76 42 29 23 22 24 24 23 24 23 22 18 16 17 15 13 10 11 20 20 20 14 13 14
59 61 59 78 86 95 83 72 72 63 34 49 76 61 70 79 84 84 91 70 39 29 24 25 25 24 29 30 28 24 21 18 17 15 13 11 16 22 22 18 15 17 16
57 60 70 77 85 96 98 90 86 75 42 44 84 82 88 91 84 86 97 63 40 31 25 28 27 30 35 37 33 29 27 20 17 14 12 13 16 22 21 18 18 18 17
58 57 64 72 74 76 91 97 99 92 54 47 76 98 96 92 88 98 99 70 42 29 25 28 30 37 40 40 38 35 31 24 18 17 17 15 18 23 21 20 20 21 25
60 60 62 65 69 72 83 81 79 91 81 45 64 81 99 98 93 100 95 69 37 26 27 29 34 41 41 42 42 38 35 28 25 24 21 18 23 24 23 22 24 28 29
60 54 54 58 59 60 67 66 70 70 95 76 62 83 99 85 99 99 92 70 30 27 32 32 40 43 44 47 44 39 36 33 28 29 26 23 25 24 24 25 29 31 34
75 55 58 69 67 66 62 58 55 59 73 99 82 82 88 99 94 99 98 68 28 29 36 35 44 47 51 51 48 43 40 37 33 30 27 26 26 26 25 29 32 34 37
65 58 63 60 57 58 79 64 38 33 38 92 92 92 76 95 100 92 98 45 25 32 40 41 48 51 53 51 48 46 43 39 36 36 31 27 24 26 26 32 35 36 41
61 63 73 80 61 74 82 72 61 56 49 68 89 89 70 71 98 100 88 23 28 34 40 45 51 54 54 53 50 46 44 43 42 36 36 34 32 27 29 31 36 39 43
62 56 54 68 84 91 88 82 76 78 76 78 93 95 83 53 53 92 92 26 33 38 42 46 52 54 54 53 50 47 47 45 44 45 43 38 37 38 34 32 34 39 43
55 45 50 56 61 89 95 87 95 85 84 76 97 97 79 52 18 26 90 54 35 40 45 47 52 53 53 52 51 47 50 54 54 55 50 46 45 42 44 40 35 37 42
40 53 57 51 76 87 98 93 93 98 83 75 86 99 84 40 26 31 83 75 34 40 45 47 52 53 52 52 48 47 51 55 56 58 57 53 51 46 47 48 44 40 43
62 68 66 67 71 84 94 94 98 100 97 73 85 96 98 86 58 65 82 62 38 41 47 50 51 51 52 51 50 57 63 65 65 68 69 70 68 61 59 56 52 46 50
74 71 71 68 67 66 80 92 95 97 99 99 86 97 97 93 65 54 53 47 44 45 49 51 51 53 56 63 71 74 77 82 90 93 92 89 87 86 81 76 64 50 51
89 83 72 77 84 73 67 90 98 96 99 100 83 98 98 98 97 92 67 56 48 52 53 56 58 68 77 82 90 91 92 91 94 84 96 97 94 98 99 97 96 65 56
100 99 96 92 90 78 97 99 100 100 100 100 99 99 100 100 99 99 99 100 89 78 89 90 87 88 91 92 93 88 98 90 83 82 96 96 95 95 98 100 97 82 70
98 99 98 100 99 82 100 100 100 100 100 100 100 100 100 100 100 99 99 99 100 98 100 98 100 99 98 98 96 92 83 78 72 77 80 86 83 90 90 99 100 99 99

GFSSE_700_rhum_093.txt.gz
RH
52 61 58 55 56 57 51 36 28 26 29 27 22 15 10 9 14 20 29 32 37 68 50 21 22 12 11 11 10 11 10 11 12 12 14 16 14 13 12 10 9 10 9
50 58 57 53 48 55 54 41 32 29 29 24 26 18 11 10 14 21 26 39 62 71 52 22 20 11 11 10 10 11 12 14 16 16 13 13 13 11 9 8 8 7 7
61 63 57 54 53 53 50 47 41 34 35 26 28 24 13 13 20 22 33 44 66 79 55 27 19 12 11 11 12 12 15 17 14 14 16 13 10 9 8 8 8 8 8
58 62 68 67 63 59 55 48 56 53 43 44 60 25 19 17 22 31 44 48 52 59 51 27 20 13 11 12 14 14 15 14 14 16 13 11 10 10 9 8 9 11 11
59 60 63 66 67 64 60 52 50 50 40 36 56 42 36 38 29 46 49 52 59 54 45 26 21 13 12 14 16 16 14 15 18 16 14 14 12 10 9 9 12 17 17
71 67 64 67 69 70 68 60 54 55 45 27 46 31 55 46 61 51 60 63 64 58 41 27 22 14 14 15 16 16 15 17 19 18 18 18 14 11 10 15 18 19 16
77 76 73 71 68 65 73 74 68 57 46 28 17 22 43 54 63 57 63 62 52 60 32 26 20 14 15 15 14 16 18 18 20 22 23 22 16 11 11 16 19 16 12
69 66 69 70 75 74 76 77 71 65 49 31 26 23 37 61 52 67 59 60 49 57 32 26 20 16 16 17 14 15 17 20 21 21 22 22 14 9 10 15 19 16 11
73 70 60 62 66 75 73 71 71 67 63 37 39 41 42 62 63 60 68 56 64 51 31 25 20 18 18 16 15 15 16 17 19 20 20 17 10 10 16 18 15 12 12
82 76 73 73 69 75 74 82 74 68 72 48 31 50 29 65 71 71 79 65 78 54 29 24 22 20 20 18 16 16 17 16 16 16 15 12 10 14 19 20 15 15 15
67 70 67 68 80 82 91 89 89 88 82 58 30 48 41 63 66 57 85 74 85 59 30 25 24 22 22 21 19 18 18 18 16 14 13 12 11 18 22 20 16 17 17
60 63 60 60 64 69 97 99 98 94 94 68 36 57 44 63 61 70 86 82 86 51 31 28 26 25 24 25 25 23 22 21 17 14 14 12 12 16 22 19 19 19 19
64 62 60 58 62 60 68 83 95 96 99 93 46 67 61 78 70 78 88 89 94 58 31 30 26 26 30 31 30 30 27 26 21 16 14 14 16 18 21 20 20 22 26
78 65 61 60 58 56 58 67 72 80 99 99 69 91 89 86 87 90 90 90 97 60 32 31 29 29 33 37 37 34 33 31 28 22 20 20 20 23 22 22 22 27 30
75 74 67 61 60 59 57 58 58 55 59 67 82 83 98 100 95 91 92 93 100 41 38 33 32 31 36 43 43 41 37 34 32 30 26 24 22 26 25 23 25 29 33
77 74 77 66 57 55 54 53 54 49 48 50 62 76 72 94 100 100 97 94 100 80 38 37 36 34 43 46 48 46 43 38 35 34 32 28 25 25 25 25 29 32 35
68 65 69 67 53 45 42 42 43 51 51 50 53 52 54 68 93 99 100 99 99 87 45 46 44 34 45 48 50 49 48 44 39 36 35 32 27 25 25 26 30 34 37
75 63 61 56 52 46 47 53 41 36 53 50 58 52 44 83 72 88 99 100 99 71 53 47 43 40 45 48 53 53 50 47 44 39 36 35 35 29 27 29 29 34 38
77 69 64 52 51 49 46 76 64 47 58 56 62 65 50 80 80 90 86 100 98 94 53 49 50 41 48 51 54 54 52 47 45 44 44 43 40 37 38 36 33 33 34
76 69 60 50 40 39 37 44 60 70 71 78 78 90 88 63 86 94 90 100 100 93 50 54 52 43 49 54 55 54 53 49 48 48 46 45 45 45 44 44 44 42 38
74 67 56 46 33 46 56 56 60 70 84 88 93 92 90 93 92 87 93 95 99 89 50 49 50 49 51 53 55 54 52 50 47 51 54 52 52 54 51 52 48 50 49
63 58 57 41 38 58 67 60 58 75 87 88 99 93 98 96 100 90 91 86 63 90 55 51 51 52 50 53 54 53 53 50 49 52 56 59 61 66 64 70 60 58 58
53 47 41 53 68 68 63 61 67 76 88 98 100 98 98 98 99 100 92 48 60 100 60 50 47 51 52 53 53 53 53 52 55 73 80 79 83 81 83 72 79 80 76
44 60 62 64 69 61 58 68 76 84 86 97 100 100 97 96 97 99 98 76 70 95 60 49 54 56 59 55 54 55 58 70 78 84 93 92 86 85 82 91 79 82 94
65 69 82 72 81 75 74 84 84 85 74 75 98 100 100 100 100 100 100 96 96 95 78 66 63 62 64 64 71 75 84 87 94 90 91 81 90 84 91 91 97 94 79
87 96 87 97 100 98 92 78 100 93 99 98 99 100 100 99 99 100 99 96 87 83 83 95 94 92 84 85 86 93 98 99 99 99 98 97 96 80 78 82 86 82 89

GFSSE_700_rhum_096.txt.gz
RH
50 53 59 64 59 57 55 48 36 33 31 30 26 21 15 10 12 23 36 41 33 43 62 35 29 23 10 10 10 10 10 10 11 12 13 14 13 12 11 10 9 8 8
47 48 58 64 56 56 55 52 42 36 37 36 28 25 19 12 10 15 24 31 38 55 63 35 29 19 11 10 10 11 11 12 14 15 13 13 12 10 8 7 7 8 8
54 54 63 60 56 52 53 74 54 42 41 45 36 31 25 14 11 16 23 31 47 72 72 41 30 21 11 11 11 12 12 14 14 12 14 12 9 8 8 8 8 9 9
60 67 72 64 62 59 58 72 70 69 62 64 60 59 30 18 16 21 24 37 50 59 74 45 29 26 12 11 13 13 14 14 12 14 11 9 9 8 8 8 10 12 13
64 61 56 62 75 70 64 60 60 71 69 58 70 65 54 36 22 23 32 43 48 54 61 44 28 25 13 12 14 14 13 12 14 13 11 12 10 9 8 9 14 18 17
74 70 58 58 61 65 70 67 62 57 57 56 57 66 73 54 59 45 37 45 49 58 58 45 28 24 14 13 14 14 13 13 16 15 14 15 12 10 10 14 18 17 14
75 80 77 69 63 63 67 68 69 67 61 57 44 27 38 51 54 73 55 45 62 64 58 45 27 24 15 14 16 14 13 14 18 18 21 21 17 11 10 13 17 16 12
67 68 75 78 74 73 72 72 71 72 69 66 47 29 21 50 53 58 68 56 63 60 58 43 28 23 16 16 17 14 14 16 18 20 21 22 18 10 9 12 17 14 11
71 68 73 68 67 66 66 70 74 74 71 67 63 41 50 59 67 68 64 63 64 56 55 40 28 24 18 17 17 16 15 16 18 20 20 20 15 9 11 14 16 12 13
74 77 81 75 72 68 73 75 74 79 80 75 74 56 60 60 73 82 70 74 61 62 65 43 30 25 21 17 17 16 17 16 16 18 17 16 12 10 14 18 16 14 15
71 69 81 85 83 88 87 92 97 97 90 92 86 65 44 48 46 93 79 72 68 68 66 42 31 26 23 18 17 18 17 16 16 15 14 13 11 11 17 19 17 16 17
57 61 66 66 73 84 82 84 92 99 97 95 99 67 42 46 38 93 91 74 83 75 77 39 30 28 26 20 18 20 21 20 17 15 14 13 11 12 17 20 18 18 18
54 58 63 63 61 62 77 65 66 76 86 98 100 90 52 62 57 85 94 71 92 83 82 54 33 30 28 22 22 24 26 26 22 18 15 13 13 14 17 21 19 19 22
64 68 77 70 74 82 59 57 58 58 68 75 96 88 65 97 75 90 90 80 93 93 93 57 32 32 29 24 24 26 28 30 30 24 18 17 17 18 21 22 21 21 24
64 76 75 78 70 75 73 60 57 54 54 55 57 65 64 77 91 89 89 85 87 96 100 56 33 35 34 28 28 31 30 33 34 30 25 25 23 20 23 24 23 25 29
68 71 76 75 72 63 58 57 56 55 55 53 49 47 47 49 70 95 88 98 95 99 98 74 38 38 39 37 33 36 38 38 37 35 32 31 28 25 24 25 24 28 32
68 73 70 65 68 66 58 53 52 47 43 40 41 44 44 49 48 64 89 93 100 100 99 100 48 47 46 45 41 46 43 42 41 37 35 34 31 28 25 27 27 28 34
73 73 71 69 67 64 59 52 46 39 44 50 54 43 44 58 58 58 62 71 72 99 93 100 91 70 52 46 50 50 51 49 47 43 39 36 35 34 29 28 28 29 33
79 76 71 66 62 58 56 50 46 39 38 56 70 63 63 65 69 68 54 51 57 72 91 100 100 95 61 50 53 56 54 54 52 48 44 42 40 37 37 38 32 32 33
75 76 74 67 61 53 51 47 40 25 26 41 64 61 69 75 75 70 60 73 84 87 84 86 99 88 80 61 56 57 57 56 54 50 46 45 44 44 45 44 41 42 42
79 76 74 72 64 55 44 45 26 18 23 43 53 62 72 78 81 79 76 76 89 87 83 90 96 95 70 62 57 58 57 56 55 53 49 49 50 49 50 51 51 51 49
78 83 82 72 63 53 47 49 32 32 47 44 53 66 71 75 85 100 90 85 88 98 93 91 100 97 77 76 60 58 57 56 55 53 51 48 51 57 57 59 61 61 67
69 89 76 65 57 50 43 31 36 50 55 50 58 76 82 79 97 96 100 89 78 100 98 100 98 90 72 64 58 57 58 56 54 53 52 51 55 62 69 77 75 83 78
64 70 69 55 50 37 48 59 59 61 54 53 59 73 74 83 97 98 99 99 100 100 100 96 100 97 83 78 70 59 59 56 54 55 55 58 71 78 85 88 86 97 91
56 51 40 32 40 54 57 64 67 64 68 57 70 76 74 73 81 98 97 98 98 100 99 97 99 98 97 90 69 62 59 59 58 58 60 76 86 89 93 83 83 84 82
74 72 51 74 71 72 62 67 71 81 80 88 96 93 97 72 86 99 100 100 100 100 100 100 100 97 95 74 71 75 71 75 79 82 85 96 99 99 91 90 96 97 90

GFSSE_700_rhum_099.txt.gz
RH
48 51 52 57 65 60 56 52 43 38 44 43 36 42 30 20 15 28 43 38 39 35 58 42 30 33 23 9 9 9 9 8 9 10 12 12 11 11 10 8 7 8 8
43 47 49 56 68 60 56 53 47 41 38 38 36 41 44 18 14 15 27 35 35 38 66 43 31 27 20 10 10 10 10 10 11 12 11 11 10 8 7 7 7 7 8
58 54 53 62 69 59 63 68 62 47 43 42 43 37 35 23 14 13 18 26 29 44 74 55 32 23 18 10 10 12 12 12 13 11 12 10 8 7 7 8 8 9 9
58 70 74 67 64 63 66 69 68 64 63 61 59 56 60 29 17 17 21 25 33 47 80 68 36 24 18 11 11 12 13 14 12 13 11 8 8 8 8 9 11 13 13
58 58 66 62 74 74 69 63 63 63 65 66 59 62 60 58 31 21 23 27 47 60 56 58 39 27 22 13 12 13 13 13 13 13 10 10 9 8 8 10 14 17 15
64 59 61 60 66 72 71 69 65 65 61 58 57 54 68 77 56 51 34 45 39 57 60 57 39 26 22 15 12 13 12 12 15 14 13 13 11 9 9 13 16 15 12
67 76 68 65 62 65 64 66 69 68 67 66 64 53 42 50 62 57 63 51 44 50 63 58 42 26 22 16 13 13 12 12 16 17 17 19 17 12 9 11 14 15 10
65 69 80 76 71 70 72 73 71 71 72 74 74 70 46 27 54 65 64 70 54 57 66 60 44 26 24 18 14 13 12 13 15 19 20 22 20 13 9 10 13 13 10
57 74 72 78 81 76 73 74 74 72 70 72 74 72 61 50 50 69 71 71 67 62 63 56 45 27 24 21 16 15 13 13 15 18 20 20 19 13 9 12 14 13 12
60 69 78 70 73 68 67 75 80 79 82 87 85 76 72 53 58 68 81 76 79 70 64 61 50 28 25 23 18 15 14 14 14 17 18 18 17 12 9 14 16 14 14
50 56 65 78 83 83 83 91 99 100 100 100 100 92 80 54 63 66 74 91 80 78 65 67 50 30 27 25 22 18 16 15 15 15 15 15 13 10 10 15 19 16 16
54 57 54 64 73 84 93 97 98 94 95 99 100 99 98 66 55 65 58 84 93 81 69 73 52 30 29 28 24 21 19 18 16 16 14 13 12 11 12 16 18 18 18
53 57 61 60 62 62 70 81 85 76 68 68 75 100 96 71 59 62 44 77 86 85 83 79 70 41 31 30 28 24 23 22 22 19 17 14 13 12 13 16 19 19 20
49 54 54 53 54 57 61 61 72 65 58 55 58 67 80 84 89 99 86 88 91 90 85 88 81 41 34 33 30 26 27 30 28 25 21 18 16 14 15 19 22 21 22
46 49 56 60 58 60 60 70 62 58 54 53 52 52 52 72 73 70 77 96 94 94 82 92 92 60 37 37 35 30 30 35 37 33 28 25 23 22 20 21 24 23 24
37 48 59 64 72 66 65 68 69 60 56 53 53 51 50 52 52 58 56 64 84 93 91 97 95 97 41 41 40 34 38 38 41 41 38 31 28 29 26 33 40 28 27
38 45 59 68 77 71 65 60 58 55 53 52 49 45 39 36 39 50 47 49 56 79 89 97 100 100 90 48 45 36 40 46 45 45 43 39 34 31 30 27 30 40 34
33 47 52 78 82 76 69 65 62 60 55 50 44 40 36 34 39 43 46 50 51 59 77 80 87 96 99 88 54 48 43 51 51 50 48 44 39 36 34 33 30 28 37
14 49 51 74 81 76 74 71 65 58 53 50 46 41 38 49 46 55 50 57 60 57 58 68 77 82 91 95 76 54 46 52 55 56 52 48 45 42 38 38 38 30 30
12 44 56 85 85 79 73 67 62 56 50 44 38 28 28 46 62 64 63 57 58 63 64 60 74 79 95 96 97 92 55 59 60 58 56 52 48 46 44 43 42 40 40
13 38 82 87 82 74 68 62 58 52 46 42 31 28 21 45 58 69 71 67 70 74 67 72 63 72 89 97 94 94 92 64 61 58 58 54 50 48 47 46 46 48 48
17 56 86 82 77 72 66 61 52 44 44 46 39 23 26 44 53 68 70 73 74 85 86 89 80 91 93 94 100 100 96 72 58 59 57 56 54 51 51 53 56 58 61
24 66 79 81 74 74 70 64 56 47 40 32 27 32 48 45 50 66 75 76 84 87 94 94 88 95 92 96 100 97 83 60 66 62 66 57 55 53 50 58 60 63 71
45 72 77 80 85 78 67 54 45 35 40 55 52 52 49 50 56 58 72 91 87 91 97 100 93 98 99 98 100 99 94 96 80 64 57 58 57 56 55 63 68 73 86
69 78 80 80 79 65 54 44 33 50 53 58 58 59 49 50 53 69 69 85 91 93 100 100 99 100 99 100 100 100 99 93 98 82 59 59 60 62 65 65 78 88 91
69 72 69 66 54 44 39 51 58 64 67 75 85 90 72 83 80 95 75 78 86 92 98 100 98 97 98 100 99 100 99 93 98 91 75 70 78 75 88 86 90 95 90

GFSSE_700_rhum_102.txt.gz
RH
49 50 54 54 64 63 59 55 45 54 60 63 42 54 43 22 17 18 35 44 40 34 47 47 29 30 30 10 9 9 9 11 10 11 11 11 10 10 8 8 7 9 8
36 42 49 50 60 66 56 56 49 42 40 39 40 37 47 41 18 15 20 34 40 34 52 50 34 30 27 11 10 10 10 11 13 13 11 11 10 8 7 6 7 8 8
40 46 48 50 64 69 59 61 55 53 50 48 49 46 43 34 19 14 17 24 33 38 64 56 30 24 24 13 10 11 12 12 13 12 13 11 8 7 7 7 8 9 9
58 61 63 64 58 69 68 69 66 61 59 60 60 65 60 58 24 17 18 23 28 44 73 70 34 24 22 15 12 12 13 13 13 14 12 9 9 8 8 9 11 13 12
55 64 73 72 69 68 69 67 64 63 60 60 60 57 60 70 50 28 22 24 28 62 67 64 43 26 22 17 13 13 13 13 13 14 12 11 10 9 9 11 15 16 14
51 59 67 64 70 70 74 73 70 65 63 62 60 59 54 71 74 52 50 50 52 58 66 63 44 25 22 19 14 14 14 13 14 16 14 13 11 10 11 13 16 14 12
47 47 61 58 62 70 72 73 68 64 67 67 68 68 65 48 46 63 63 63 59 47 50 66 52 28 23 21 17 14 14 13 14 17 17 18 17 13 10 12 14 16 11
47 60 53 65 68 72 70 70 66 68 73 72 73 77 78 66 41 49 66 67 72 55 57 68 64 34 24 23 19 16 15 14 15 18 20 21 21 16 11 10 13 14 11
51 53 62 73 74 78 84 82 80 80 82 82 83 84 82 74 64 56 66 72 74 76 69 70 67 45 26 25 22 18 16 15 15 18 21 21 21 18 12 12 14 15 12
60 55 67 69 73 77 77 78 85 85 91 90 90 90 87 76 60 58 70 76 82 83 73 69 64 53 29 27 25 22 18 16 15 17 19 20 20 17 12 12 15 16 14
46 53 57 69 72 73 74 69 73 83 97 83 95 96 96 83 67 61 68 72 84 83 85 78 64 60 32 29 27 25 21 18 17 17 17 17 17 15 12 12 16 18 16
39 40 43 50 59 72 75 77 85 90 91 96 88 91 95 95 92 61 70 74 70 90 85 80 74 66 41 31 30 27 24 22 20 20 18 16 15 14 12 13 17 19 18
43 46 44 43 46 60 68 81 91 96 99 92 78 73 94 98 89 75 62 61 56 77 90 85 76 72 59 34 32 30 28 25 24 24 23 20 16 15 13 14 18 21 20
34 50 55 53 53 54 62 60 65 76 81 87 66 57 62 76 93 77 75 78 61 72 86 100 87 81 77 52 34 33 30 27 26 26 26 26 23 18 15 15 18 22 21
15 43 48 54 58 58 56 56 55 56 62 70 77 69 51 52 57 58 81 75 80 88 89 83 98 86 88 73 40 36 34 29 27 28 30 30 28 26 24 22 22 23 23
9 14 43 49 54 58 58 56 57 58 60 56 57 54 50 49 50 49 49 74 61 57 68 81 91 92 92 100 73 41 39 34 32 34 33 34 34 31 29 30 49 61 33
9 9 12 41 49 55 62 64 61 58 68 66 58 53 52 49 45 41 37 40 48 55 69 71 78 87 91 92 100 53 43 39 34 34 39 37 37 37 35 35 31 35 58
10 9 10 19 42 57 68 71 68 65 62 58 56 57 50 44 41 38 39 32 31 42 49 68 66 73 76 86 87 100 91 47 39 42 38 45 42 38 38 37 38 34 33
19 11 9 14 31 57 79 81 74 68 64 62 61 56 49 47 45 42 38 33 30 44 48 49 67 68 61 82 88 92 95 86 60 47 39 44 50 44 42 40 40 42 36
28 22 17 15 36 47 78 96 89 76 70 67 61 55 51 45 41 36 30 38 52 50 55 58 58 74 75 68 85 94 97 98 91 59 55 49 55 52 49 46 46 42 44
40 24 19 18 49 63 77 92 87 78 74 66 58 51 48 43 38 34 26 36 55 60 63 68 69 71 61 66 74 87 92 100 91 93 85 71 59 60 56 50 48 48 47
51 28 19 20 59 99 98 91 82 76 68 62 53 45 48 45 40 27 22 31 54 61 67 62 66 73 79 79 77 73 84 96 99 87 92 90 65 82 65 58 50 50 50
39 30 23 26 94 93 89 84 77 70 61 56 49 48 45 38 37 31 31 40 48 55 64 73 83 84 90 94 90 98 91 96 88 92 91 78 87 91 70 59 55 55 56
33 31 31 63 82 84 82 84 75 66 61 55 51 42 35 51 53 56 56 49 50 56 63 77 86 90 94 98 96 91 99 98 98 96 93 78 90 70 75 70 62 60 62
70 71 79 85 88 93 83 72 72 66 57 50 34 45 51 58 63 57 48 47 56 60 63 80 91 80 88 100 98 78 98 100 100 99 100 100 85 86 81 79 69 64 65
64 73 82 90 88 94 86 82 72 60 46 33 54 76 85 97 93 74 73 66 86 84 91 84 89 96 98 98 100 99 96 100 100 100 99 100 98 99 99 99 93 88 81

GFSSE_700_rhum_105.txt.gz
RH
53 48 57 58 63 61 60 57 51 55 58 68 43 46 62 32 21 24 34 42 41 39 41 53 28 28 24 10 10 10 11 56 12 12 12 13 13 12 10 8 11 9 33
48 50 52 52 62 62 61 57 54 44 41 50 46 46 35 51 28 18 19 31 34 38 44 57 35 28 27 12 10 11 11 12 13 13 12 12 11 9 8 7 8 8 9
34 39 47 50 57 63 63 58 60 50 52 54 56 55 49 51 30 17 14 21 29 37 62 64 36 26 23 16 11 12 13 14 14 13 13 12 9 8 8 8 9 9 9
46 36 50 54 60 60 65 63 72 68 62 61 62 62 64 58 56 19 15 18 24 41 64 66 49 27 23 19 13 14 14 14 14 14 13 10 9 8 8 10 12 13 13
57 51 60 64 59 61 64 67 69 68 67 61 63 62 56 57 72 43 25 20 25 46 73 72 54 31 23 21 16 14 14 14 14 15 13 11 10 9 9 10 15 16 15
53 58 61 73 69 69 69 74 74 69 65 64 63 63 62 60 70 63 52 58 35 54 74 66 57 36 24 22 19 15 14 14 15 17 15 14 12 10 10 13 16 16 12
44 49 51 60 63 65 71 77 76 74 68 65 67 69 70 68 52 48 62 64 60 61 61 59 64 50 29 23 22 18 16 15 15 18 18 17 18 15 11 12 13 16 14
37 44 48 48 56 51 58 62 73 74 69 72 74 74 78 78 68 61 56 67 69 67 53 54 65 62 41 27 24 21 17 16 16 18 21 21 23 20 14 11 11 14 13
40 48 57 61 50 65 59 67 69 75 79 81 80 78 81 79 78 70 70 66 74 76 73 64 70 70 50 34 27 24 20 17 16 17 20 21 23 22 18 13 14 16 14
42 54 55 59 66 78 73 76 80 80 81 82 82 83 81 81 77 66 59 63 70 81 89 76 72 70 59 40 30 27 25 19 16 16 18 19 22 21 19 14 13 16 15
42 56 65 68 74 73 77 79 80 75 75 80 77 77 78 83 83 75 59 62 68 84 88 91 80 73 65 52 35 30 28 25 19 16 16 16 18 19 18 14 12 15 17
24 39 50 61 62 69 76 77 79 74 70 70 72 73 72 84 81 85 79 61 70 67 77 91 85 82 72 62 49 37 31 27 25 19 16 16 16 16 16 14 12 16 18
12 20 32 40 44 50 62 71 75 75 76 75 78 82 87 85 85 89 89 80 66 60 60 71 95 91 79 76 61 49 34 30 29 24 19 18 17 16 16 14 13 15 19
8 9 20 34 41 42 47 58 68 75 84 88 94 90 72 61 75 99 89 79 71 64 52 48 80 86 92 84 78 66 41 34 31 28 22 21 20 19 16 16 22 16 20
7 8 8 17 39 53 50 59 56 64 72 83 83 83 79 68 75 65 70 80 87 84 80 80 74 74 82 86 84 88 66 40 35 32 28 22 24 23 21 17 26 20 19
8 8 8 8 14 40 59 67 66 63 60 65 61 60 62 72 70 66 59 61 52 73 83 69 67 83 82 81 81 76 93 56 40 36 32 27 27 29 28 24 22 35 61
9 8 9 8 8 16 41 58 70 65 61 65 65 63 59 56 53 51 50 48 44 38 47 64 69 71 77 86 94 85 78 84 56 46 37 32 27 30 31 31 29 27 30
11 11 10 9 8 9 23 48 61 70 66 71 67 65 62 58 53 50 46 41 37 38 37 31 32 48 83 82 86 95 92 95 94 77 46 40 35 31 32 35 35 34 32
18 19 18 13 10 10 10 37 52 66 74 79 74 73 68 58 56 52 46 45 46 43 40 36 34 36 41 65 79 84 90 97 91 90 89 86 45 45 36 31 38 38 36
27 28 28 26 20 13 11 25 51 74 82 82 74 68 63 64 60 52 50 48 44 40 36 32 41 51 51 50 54 76 76 73 93 100 100 93 62 93 48 45 39 42 44
49 48 39 28 26 25 18 28 48 97 100 94 82 77 71 66 58 55 49 46 44 38 34 30 51 57 61 61 61 58 67 85 76 80 93 99 95 91 60 51 50 54 46
55 57 52 50 51 30 24 28 60 99 98 98 92 78 72 64 57 52 48 45 43 39 31 23 43 59 61 64 69 78 74 62 71 74 67 82 92 98 66 68 74 55 52
63 44 24 26 53 57 38 47 88 98 92 92 83 76 67 60 53 47 47 46 41 42 38 26 38 53 67 71 77 82 84 80 75 68 72 76 71 81 89 81 86 69 59
78 59 56 94 47 33 39 60 82 92 98 90 92 74 63 56 53 51 43 34 36 36 32 32 47 56 60 71 84 86 90 95 94 100 97 86 85 82 92 75 81 74 73
79 78 88 92 68 67 85 82 92 99 99 91 83 67 61 58 51 33 48 56 54 48 46 52 60 65 67 76 86 90 93 96 100 100 99 99 91 87 100 91 100 89 91
84 75 81 93 97 98 99 98 97 92 93 81 75 68 62 50 42 72 79 75 81 73 55 61 69 80 89 88 86 93 98 84 100 100 98 100 97 98 98 100 99 99 94

GFSSE_700_rhum_108.txt.gz
RH
38 43 47 56 63 62 60 56 56 55 62 65 44 43 47 54 25 16 18 34 42 39 36 58 34 31 25 10 10 17 70 71 12 12 12 13 13 12 10 16 37 84 72
37 46 52 56 62 64 62 56 56 48 46 51 58 46 42 48 31 19 14 15 30 38 36 58 54 34 30 13 11 13 12 13 13 14 13 13 12 10 9 8 9 12 20
27 42 50 52 57 64 65 63 60 54 52 60 63 60 60 58 57 24 14 12 19 34 60 60 54 33 28 21 12 13 14 13 13 13 13 12 10 8 8 8 8 9 10
27 22 36 50 57 61 69 65 70 60 64 64 62 64 63 59 62 37 18 15 17 52 78 73 66 42 27 24 15 13 13 14 14 13 13 10 9 8 8 9 11 12 13
47 40 31 47 54 61 62 66 72 77 73 67 63 61 63 61 67 64 40 20 21 42 61 75 65 55 32 25 21 14 14 14 14 15 13 11 11 10 9 10 14 17 16
54 57 58 58 57 60 59 66 67 74 73 71 67 63 64 64 62 54 56 54 30 30 62 73 57 50 44 29 25 18 14 14 13 14 15 13 14 11 10 12 15 16 14
55 53 57 65 70 68 65 70 70 76 74 70 67 68 68 68 67 60 52 64 63 51 71 73 60 59 50 39 30 25 17 14 13 14 16 14 16 16 13 11 12 14 15
30 41 47 48 50 62 67 71 72 74 76 73 69 67 70 70 75 69 58 54 68 68 65 61 50 57 59 47 34 30 26 17 14 13 14 17 20 21 20 14 11 11 13
33 36 34 34 32 47 57 54 69 74 77 75 68 68 70 70 75 73 72 67 65 73 78 75 56 59 66 56 42 33 32 27 19 13 13 14 19 22 22 19 14 12 14
22 36 49 50 49 54 42 57 61 69 74 74 70 70 71 68 71 71 69 66 62 65 78 85 78 69 65 63 50 38 34 32 29 22 13 12 16 19 20 20 16 13 14
13 18 38 55 60 55 66 76 75 75 76 75 74 73 70 68 69 70 71 67 58 61 72 83 93 90 75 66 59 49 38 33 32 32 22 14 12 14 17 18 16 13 13
8 11 18 40 67 68 69 67 74 80 84 80 79 75 70 67 62 63 67 72 68 61 63 67 83 87 87 82 74 60 50 36 34 34 35 20 14 13 14 15 15 13 12
6 7 8 11 25 51 69 66 65 77 80 80 75 71 67 67 67 78 73 68 80 76 66 63 61 68 88 89 81 77 67 48 38 36 37 32 19 15 15 14 13 13 12
7 7 7 8 8 12 24 41 48 62 69 71 79 80 80 81 83 78 73 77 87 80 77 64 51 49 64 76 76 77 79 72 52 40 40 37 27 20 18 18 15 15 15
8 8 8 8 7 8 9 16 34 47 62 71 76 87 93 94 81 73 78 56 65 73 82 83 84 85 77 76 76 87 80 77 84 66 48 42 34 27 22 22 21 23 27
9 8 8 8 8 8 8 11 23 40 58 70 68 73 97 97 89 78 65 77 76 61 64 63 76 85 87 83 85 83 92 86 78 83 71 51 43 34 27 24 25 24 44
8 8 8 8 8 8 8 8 16 42 59 70 70 71 64 72 70 59 61 64 59 56 51 48 48 55 78 86 72 75 88 96 92 90 88 75 70 49 36 28 25 27 26
10 10 10 10 10 9 9 9 8 23 53 69 72 75 74 71 67 61 57 55 55 52 45 37 36 37 36 33 39 74 89 94 99 97 100 99 87 70 52 42 38 35 32
16 16 16 15 14 13 11 10 9 9 33 61 68 72 79 76 69 64 60 58 55 47 43 42 45 43 40 40 39 49 61 76 84 92 99 100 100 92 78 66 74 49 43
24 26 26 21 20 20 18 17 15 10 11 39 62 74 81 78 74 71 64 61 60 52 48 49 47 43 39 34 39 38 44 51 63 68 83 88 95 92 96 89 83 72 66
32 35 37 39 39 38 38 25 25 21 12 24 59 85 76 83 80 74 65 67 62 54 53 50 46 40 35 33 36 47 50 46 45 49 56 76 85 84 100 100 85 80 89
40 41 44 48 42 43 48 48 38 28 20 28 52 85 88 87 82 78 74 68 61 57 53 49 45 44 40 36 25 41 61 65 64 61 55 57 64 80 81 83 94 90 95
45 48 47 46 53 33 32 40 64 40 45 48 64 79 98 94 90 86 80 67 61 56 52 50 43 33 30 37 31 41 62 76 72 69 69 67 68 72 78 85 83 87 84
40 51 59 56 80 50 52 49 81 65 62 72 97 88 99 97 89 88 72 68 59 55 51 47 36 36 45 42 42 42 62 73 76 86 80 68 72 72 89 95 96 88 80
46 54 69 61 82 97 85 75 72 78 92 94 99 96 97 94 82 81 71 63 60 54 34 38 49 51 52 56 54 61 74 74 82 93 91 87 96 92 89 96 86 88 99
61 74 79 61 76 76 84 94 100 100 93 94 88 93 99 98 88 78 69 64 54 46 66 63 74 73 65 60 60 66 74 76 76 79 80 92 99 98 100 99 88 90 97

GFSSE_700_rhum_111.txt.gz
RH
41 50 48 60 60 66 60 57 55 55 56 61 47 43 36 50 36 18 14 22 34 34 34 51 39 33 31 10 22 61 89 27 12 12 12 12 12 11 10 24 28 69 58
47 36 46 51 60 64 62 58 57 55 52 52 56 50 49 50 44 23 14 12 20 29 31 42 59 34 33 17 11 34 19 14 13 13 13 12 12 10 8 8 9 20 18
50 37 47 55 58 67 66 58 56 57 53 58 60 60 58 57 54 47 16 12 14 22 38 48 57 52 32 27 12 12 13 13 13 13 13 12 10 9 8 8 8 9 9
34 30 48 52 54 64 68 68 60 61 60 65 64 62 62 62 56 52 26 14 14 72 83 85 69 60 42 31 24 13 13 13 12 12 13 12 9 8 8 10 11 12 12
25 25 28 45 59 65 71 72 68 75 69 68 67 64 61 60 58 63 51 32 16 39 49 84 75 53 48 37 31 24 13 12 12 11 12 12 9 9 9 10 13 16 15
46 41 44 42 56 57 70 71 67 73 79 76 71 64 63 63 61 60 52 53 45 22 46 77 72 54 47 42 36 34 24 12 12 11 11 13 11 10 9 11 13 16 15
50 54 56 56 65 68 63 65 72 70 80 78 75 68 68 66 64 65 60 54 59 55 40 72 75 59 53 47 39 35 34 26 12 11 10 14 14 14 13 11 10 11 13
26 44 55 55 60 70 72 69 70 73 82 83 80 73 71 67 65 64 66 59 54 63 62 60 66 53 42 49 47 37 34 34 28 15 11 11 14 16 18 18 14 11 10
25 28 30 41 44 49 50 62 63 72 76 78 78 75 71 70 69 66 67 69 66 61 66 68 70 60 51 54 55 45 35 34 36 33 21 12 11 14 18 20 20 16 12
14 20 28 29 30 36 48 53 66 64 59 70 73 73 70 67 71 69 68 72 70 67 64 70 78 78 67 62 61 55 43 35 36 37 37 18 12 12 14 17 19 18 15
8 10 13 20 27 33 44 56 58 66 79 75 78 78 76 75 74 72 67 67 68 67 60 61 67 79 84 78 70 63 56 45 39 38 37 36 21 13 13 14 16 16 15
6 6 7 10 15 23 33 44 54 74 83 84 84 84 80 77 76 77 72 69 74 76 70 61 59 66 73 82 82 78 72 62 48 41 40 35 32 22 15 13 12 13 13
6 6 6 6 7 10 18 25 32 50 55 70 82 87 83 79 74 70 71 74 83 83 82 80 68 64 63 71 82 80 77 76 66 51 46 41 35 34 22 17 15 13 12
8 7 7 7 7 6 7 12 21 29 37 44 61 79 78 78 77 76 75 80 78 77 86 88 83 72 57 53 54 72 74 77 76 71 64 55 40 35 34 24 18 17 15
9 9 9 8 8 8 8 7 8 12 21 31 33 50 64 77 81 84 93 82 76 79 52 62 79 77 79 86 79 68 69 83 88 86 82 77 71 46 37 34 27 20 18
8 8 8 8 9 8 8 8 8 8 10 16 28 37 59 72 75 82 91 75 79 67 55 66 73 71 65 67 82 89 86 81 83 89 90 86 84 75 49 41 39 31 24
10 9 9 8 9 8 8 8 9 8 8 12 22 36 46 66 72 89 96 93 86 59 68 75 69 64 76 71 70 71 94 94 85 88 85 87 88 89 82 58 54 43 33
18 18 16 14 13 12 10 9 9 9 9 9 20 45 50 50 66 77 79 82 68 64 63 60 57 52 45 38 42 47 44 54 70 90 92 98 98 94 99 92 66 48 41
25 22 18 16 15 15 15 14 12 10 9 9 11 32 57 60 75 69 75 70 64 61 63 61 58 50 44 51 58 53 48 45 54 77 77 94 98 92 95 94 92 71 51
26 20 19 24 26 23 21 20 19 18 12 12 12 14 38 60 79 80 76 71 74 68 64 60 56 50 47 49 48 45 43 39 38 60 87 71 68 80 92 95 94 97 90
25 24 29 35 35 34 33 31 31 32 32 22 22 26 33 52 81 90 89 81 80 78 68 63 63 59 52 52 51 45 40 36 32 30 46 74 58 49 57 64 78 82 84
35 28 31 32 39 42 39 41 39 34 45 44 30 34 43 68 75 94 94 91 84 80 70 70 64 58 58 55 52 45 34 28 29 28 25 41 54 60 59 58 57 77 81
30 28 31 39 44 43 52 38 20 26 42 59 47 67 53 68 80 98 100 100 96 90 82 73 66 63 60 58 54 49 45 37 38 35 32 35 70 74 74 72 78 75 70
26 28 36 52 54 42 68 58 37 53 79 79 58 72 74 75 86 97 90 99 98 94 83 76 68 65 60 52 35 33 41 51 64 54 53 44 49 58 73 79 82 87 73
25 30 51 66 61 40 78 74 64 71 78 79 87 98 100 95 100 100 94 91 91 87 78 73 68 64 55 48 42 40 48 61 61 63 58 60 69 62 66 79 76 82 96
36 49 60 70 75 52 46 59 67 84 92 96 96 99 97 98 99 97 99 98 90 85 78 71 62 54 51 46 70 66 78 79 64 67 70 70 71 70 68 70 77 81 88

GFSSE_700_rhum_114.txt.gz
RH
51 57 51 62 67 70 64 58 59 60 63 67 59 44 40 49 42 23 16 18 27 30 32 35 49 40 37 15 28 72 43 10 10 10 10 11 12 13 15 14 24 35 30
49 43 47 53 65 67 66 61 59 58 60 60 56 48 52 49 53 35 18 13 17 22 27 27 52 43 40 32 11 27 12 10 11 11 11 11 11 11 12 17 30 28 15
44 45 39 50 54 64 66 65 61 60 58 53 60 63 62 59 55 54 25 13 12 17 32 60 62 56 45 40 30 11 11 11 12 12 11 10 11 9 8 7 8 9 10
40 43 43 48 55 57 72 69 67 64 60 58 65 63 62 60 56 61 41 23 12 36 84 83 70 56 47 43 39 34 11 10 11 12 12 11 10 8 7 7 8 9 10
29 31 29 48 56 55 66 74 72 68 67 64 68 67 64 60 57 58 59 44 24 20 59 80 84 59 46 41 40 41 36 12 10 11 13 11 10 8 7 8 9 11 13
37 38 43 39 40 59 68 68 72 72 75 79 77 71 65 63 61 60 59 53 51 32 29 55 85 70 52 45 40 39 42 38 13 10 11 12 12 10 9 8 9 12 13
38 46 52 53 57 63 63 65 74 72 72 75 83 78 72 69 66 64 64 61 57 59 46 36 82 76 60 51 46 41 38 40 36 17 10 10 12 12 12 11 9 10 11
22 24 42 53 59 70 80 79 74 70 76 77 83 80 75 71 68 68 67 68 62 55 63 58 60 72 65 46 45 46 41 39 40 36 16 11 10 11 13 15 16 14 11
23 22 21 29 52 55 59 64 77 82 80 79 83 83 80 74 69 66 69 71 74 70 62 65 66 67 68 51 53 55 48 39 39 44 36 22 12 12 14 16 16 17 17
14 17 18 18 20 23 37 44 46 52 69 75 77 81 83 82 74 71 69 68 72 74 71 70 67 74 77 68 60 62 59 48 40 40 40 37 27 16 12 12 16 17 17
6 8 10 12 12 13 18 23 29 36 52 55 64 76 76 77 79 79 79 78 73 76 75 68 65 66 70 79 78 71 66 60 51 43 42 39 37 32 20 13 12 13 15
6 5 5 6 7 9 11 13 19 29 40 42 62 80 83 83 80 78 80 81 80 77 75 78 73 66 66 74 83 84 79 74 66 57 49 43 39 37 34 21 14 13 12
6 6 6 5 5 5 6 7 9 14 25 39 56 64 70 79 88 87 86 84 74 76 75 80 84 80 69 70 75 82 85 81 76 72 63 54 43 39 38 33 24 16 14
8 8 8 8 8 7 6 6 6 6 9 16 30 49 56 65 83 86 81 78 76 77 79 79 77 82 80 75 64 62 69 85 82 81 76 69 60 47 43 38 36 29 20
10 10 10 9 9 9 9 8 8 7 6 8 12 20 31 47 64 75 76 78 83 89 81 74 70 73 87 82 78 73 76 71 78 80 88 85 80 74 63 49 41 37 32
8 8 9 8 8 7 8 8 9 9 8 8 8 10 19 28 44 52 62 75 81 92 83 82 67 64 84 84 87 82 88 88 88 90 87 89 90 86 84 76 55 52 40
14 15 15 17 18 17 15 12 10 9 8 9 9 8 10 23 40 52 60 72 84 78 72 77 74 63 81 85 89 95 94 91 95 98 96 89 94 92 85 88 85 81 65
18 19 22 22 21 20 19 17 16 14 13 11 9 9 9 13 37 49 64 72 94 96 90 88 72 61 70 71 59 57 58 59 58 72 81 81 92 95 96 99 87 93 91
23 27 27 23 18 17 18 19 18 16 14 15 14 12 11 10 17 50 62 70 83 94 97 91 71 62 60 60 57 49 44 50 53 51 47 50 61 76 88 100 96 99 96
29 29 28 20 18 20 23 24 25 26 24 22 22 21 16 14 17 67 75 72 80 80 83 87 82 74 64 66 59 48 45 48 49 49 46 43 39 39 67 77 83 91 96
36 29 29 22 23 27 30 31 29 28 33 36 35 31 31 22 15 29 77 96 90 98 89 83 81 76 71 64 62 60 57 52 51 53 49 41 38 35 31 36 62 64 65
36 21 25 23 27 34 44 40 38 38 32 34 37 43 48 32 34 32 48 74 93 99 94 92 88 85 77 70 67 64 59 49 47 44 37 33 30 30 33 27 36 48 46
23 20 23 23 34 52 54 41 48 44 40 34 39 39 55 37 34 50 91 82 85 100 100 100 99 99 89 79 71 66 64 55 44 29 22 22 26 40 38 34 38 70 67
24 20 20 29 46 53 51 38 54 54 59 61 77 70 55 54 75 67 72 98 100 100 100 99 98 99 96 83 73 70 68 65 53 35 23 21 28 41 54 42 40 69 71
40 32 32 42 46 50 52 40 56 57 78 78 91 86 95 90 98 81 76 82 82 92 99 98 98 99 87 79 76 71 67 55 46 48 29 29 39 46 59 60 59 54 64
46 46 46 49 53 54 54 47 46 48 69 87 100 99 99 99 94 94 94 93 89 90 92 86 93 92 84 76 69 64 54 64 72 96 97 58 83 94 71 65 59 65 70

GFSSE_700_rhum_117.txt.gz
RH
50 49 53 61 69 71 67 62 61 62 64 66 69 46 47 46 51 35 21 16 19 28 29 28 46 46 43 38 14 40 19 10 9 9 9 10 10 11 11 10 14 20 21
45 40 50 54 60 73 68 64 62 64 62 64 65 58 52 52 55 55 36 16 13 18 25 26 38 52 43 41 37 10 9 9 10 10 11 11 11 11 13 11 12 21 21
41 43 38 47 52 63 72 67 65 62 62 61 56 62 66 65 64 59 45 20 13 16 27 74 80 69 44 38 39 40 11 9 9 10 11 11 11 10 8 7 6 7 9
33 39 43 41 44 52 62 72 68 67 63 61 58 63 63 61 60 59 59 43 21 15 64 82 76 60 49 41 37 41 41 12 9 10 10 11 11 9 8 7 7 8 8
24 26 32 45 52 54 57 65 72 72 72 69 65 67 66 63 61 59 63 59 42 22 47 84 88 78 53 43 39 37 42 34 11 9 9 10 10 9 8 7 8 10 11
33 31 32 39 59 55 65 71 73 77 76 75 74 74 75 69 64 61 61 62 54 50 28 50 69 86 64 50 44 40 38 42 30 12 10 9 10 10 9 8 8 10 12
30 30 36 43 53 55 49 68 76 79 79 77 80 82 80 75 69 66 65 64 63 59 58 43 51 83 81 62 52 45 42 39 43 31 13 11 11 12 11 10 9 8 9
18 21 23 30 44 58 57 71 72 71 78 81 78 80 86 83 77 74 71 68 67 67 60 61 60 62 80 75 57 48 46 42 39 41 36 21 12 12 14 15 15 14 13
19 18 18 18 21 35 48 60 68 76 82 82 83 86 90 89 86 81 80 76 76 74 71 69 65 71 71 70 64 53 54 51 42 38 39 38 31 16 11 12 16 18 18
15 16 15 14 15 17 20 31 46 51 53 56 66 69 76 79 82 84 81 80 80 78 76 75 74 73 73 78 79 63 63 62 54 42 38 38 40 37 25 14 12 13 16
6 6 7 9 11 12 12 14 17 22 26 31 37 46 53 54 58 70 77 78 80 81 79 77 76 70 70 76 80 85 74 70 65 56 47 39 38 38 39 31 17 12 12
5 5 5 5 5 5 5 6 10 14 18 25 32 46 50 55 72 78 81 85 85 86 86 82 77 75 71 67 71 83 93 91 78 72 64 54 44 40 38 38 31 18 14
6 6 6 7 6 6 6 6 6 6 8 12 21 34 40 51 73 75 75 83 86 87 83 79 76 75 77 78 71 68 77 90 90 84 78 73 60 50 43 40 38 34 22
9 9 9 9 9 9 8 8 7 7 6 6 8 12 22 36 54 59 64 78 87 85 81 76 76 79 81 77 80 77 71 68 80 90 86 80 77 69 56 47 44 38 35
11 10 10 10 9 9 9 9 9 9 9 8 8 7 8 12 24 48 56 64 80 81 82 82 86 79 74 76 78 87 74 65 66 69 83 87 81 84 78 68 60 69 45
10 9 9 10 11 11 12 11 10 8 8 8 9 9 9 8 9 14 33 50 57 71 75 78 84 84 85 83 74 84 83 85 87 92 91 92 90 89 90 89 85 83 77
9 10 12 14 16 16 17 18 17 17 16 15 11 8 9 10 9 9 13 30 46 55 62 67 80 84 84 87 79 74 88 90 90 93 98 100 99 92 91 94 93 96 90
11 14 17 20 23 24 21 17 15 15 15 15 15 15 14 11 10 10 10 16 45 64 65 62 79 78 75 93 86 80 86 85 85 86 85 84 85 90 95 98 100 95 99
22 26 28 30 28 26 18 16 17 21 22 21 21 22 18 16 15 12 10 11 53 58 82 80 76 80 81 95 88 74 72 69 58 52 47 53 55 60 47 44 50 68 92
33 31 32 30 19 20 15 22 29 32 28 28 28 25 28 26 22 21 16 15 33 91 80 97 96 94 94 89 80 70 66 63 58 52 44 47 49 50 50 47 43 39 38
38 34 31 16 13 16 25 37 46 36 32 32 33 33 35 38 40 37 27 17 29 95 85 99 99 99 95 90 92 84 71 71 64 58 57 56 54 54 54 52 48 42 37
38 34 23 17 18 23 34 44 47 34 36 35 33 29 23 28 40 48 38 28 20 43 82 98 84 94 99 100 100 96 79 72 68 65 63 61 58 55 51 41 33 32 30
38 31 23 20 21 33 46 46 44 42 43 44 42 49 67 60 58 52 35 35 58 62 59 76 100 100 100 100 100 99 98 80 71 64 64 57 49 41 30 23 20 21 27
38 33 33 32 37 40 44 43 37 37 44 50 54 56 76 82 60 56 68 53 47 95 99 99 87 100 100 100 100 99 100 98 80 62 58 60 48 35 25 23 25 23 32
43 38 41 40 42 44 44 43 38 36 40 43 47 66 92 93 100 99 94 97 82 98 98 99 91 92 84 82 99 98 95 99 96 84 67 59 52 42 32 30 33 32 44
45 46 44 44 45 47 47 51 57 58 50 46 47 54 77 97 91 79 96 97 100 100 100 99 93 89 85 92 87 90 87 82 72 63 51 45 40 43 47 72 70 77 87

GFSSE_700_rhum_120.txt.gz
RH
50 50 52 56 63 70 68 64 64 62 64 65 67 68 48 50 50 53 43 22 16 22 26 29 38 49 47 38 34 9 9 9 8 8 10 10 10 11 11 9 8 11 17
50 44 44 51 55 66 73 68 64 63 64 61 62 60 60 61 58 58 57 33 16 15 23 31 43 59 44 38 38 35 10 9 9 9 9 11 12 11 13 10 9 11 15
45 42 39 64 51 61 69 72 66 64 67 63 61 60 61 63 63 61 58 46 26 14 20 77 88 84 48 41 37 40 35 10 9 10 10 10 10 10 10 8 7 7 8
33 32 35 49 67 47 55 66 70 67 68 65 62 60 64 66 64 60 57 58 51 27 26 73 81 81 59 49 41 36 41 31 11 10 10 11 10 10 9 8 8 8 8
27 20 21 40 58 56 50 60 66 75 73 73 72 66 68 71 69 63 57 55 57 49 28 54 82 88 77 56 49 41 38 40 30 12 10 12 12 10 9 8 7 8 10
33 31 23 26 65 67 61 64 62 69 80 80 79 79 74 76 74 70 66 62 60 58 55 36 48 66 84 75 56 49 42 38 37 30 14 10 11 12 11 10 8 8 9
28 26 25 25 31 43 50 50 56 66 73 78 81 79 82 86 84 77 72 71 67 66 62 58 51 52 61 88 71 61 48 42 37 37 31 18 11 12 13 13 12 10 10
21 17 18 20 20 28 48 50 54 63 68 70 72 77 78 80 86 86 82 78 74 74 73 67 61 65 59 70 78 73 55 47 44 36 37 35 26 14 11 13 14 16 16
19 18 17 17 18 17 17 33 45 50 61 69 72 73 72 74 84 88 86 83 80 76 75 75 72 72 71 76 74 69 66 53 53 47 36 37 38 33 21 12 12 15 17
16 15 15 15 15 15 15 17 20 33 46 50 54 58 65 66 63 69 73 75 80 79 75 76 75 75 75 75 77 79 79 67 61 61 51 38 37 37 35 30 18 12 12
6 6 6 6 5 5 6 9 11 13 16 20 28 34 39 42 46 52 56 54 64 77 79 80 81 78 77 72 68 73 77 82 74 69 66 55 43 38 38 38 36 24 14
5 5 4 4 5 5 4 4 4 5 6 9 14 18 23 32 41 52 52 56 63 78 82 85 85 84 80 74 72 73 68 74 79 83 76 70 63 51 40 38 39 39 27
5 6 6 6 6 6 6 6 6 6 6 6 6 7 10 17 27 41 57 72 83 82 81 86 88 86 78 74 76 78 76 70 69 76 80 80 77 73 58 44 41 40 38
7 7 8 9 9 9 9 9 9 9 9 8 8 8 7 7 9 16 31 49 69 77 81 87 89 88 80 79 79 87 83 79 74 74 74 81 84 80 77 69 54 53 56
10 10 10 10 10 10 9 9 9 8 8 9 9 9 9 9 8 8 9 20 40 60 59 77 88 89 84 80 85 86 82 85 88 80 71 69 72 78 82 81 76 68 64
11 11 10 10 9 8 9 10 11 11 10 10 10 10 8 8 8 9 9 9 10 26 51 56 70 84 83 88 85 84 86 83 88 81 76 75 78 82 84 83 87 87 83
11 10 9 10 12 13 15 18 20 20 19 18 17 17 16 16 14 12 9 8 9 9 15 39 50 62 71 76 87 86 87 87 86 86 91 90 91 96 99 96 95 91 99
9 10 13 16 20 24 25 24 22 16 14 14 16 16 16 15 15 16 16 14 12 11 11 29 45 47 51 59 72 80 86 91 91 84 90 91 96 90 95 96 96 96 98
14 17 20 22 24 25 17 14 15 29 33 36 31 25 23 24 24 21 22 20 17 15 12 25 48 74 74 73 78 83 86 96 92 78 81 78 65 53 53 53 52 76 69
26 26 27 27 26 16 14 22 30 34 32 32 29 29 27 25 26 29 29 31 30 24 18 16 97 75 99 89 87 87 82 87 97 80 74 70 63 54 48 48 49 50 52
35 34 32 29 21 18 22 28 32 38 33 28 30 29 29 28 26 22 23 38 42 38 25 29 36 99 76 90 99 94 91 98 96 86 77 70 67 60 52 52 54 55 54
45 42 37 28 22 23 26 30 35 40 32 29 32 35 35 37 33 40 35 40 51 43 34 26 36 71 94 82 97 100 88 98 100 97 95 86 77 67 64 62 61 61 59
46 44 38 30 28 27 33 38 41 36 32 31 35 38 40 42 48 60 54 52 50 39 66 98 76 62 70 97 99 99 100 99 99 100 98 92 78 70 67 66 64 60 49
46 44 38 36 33 32 39 43 41 41 41 36 32 33 37 44 50 64 74 76 79 70 71 80 98 100 82 89 94 91 93 96 73 76 95 99 97 76 68 65 60 54 49
42 41 40 40 39 39 41 40 42 46 51 50 45 39 35 36 35 61 74 85 92 98 100 100 91 94 78 71 61 75 98 96 90 88 59 71 73 74 70 62 50 42 40
42 43 42 42 42 41 28 20 31 48 51 54 54 57 60 52 51 56 58 57 62 70 89 98 98 86 81 80 76 72 74 73 81 77 67 66 62 55 51 53 48 52 70